<?xml version="1.0" encoding="UTF-8" standalone="no" ?>
<gpx xmlns="http://www.topografix.com/GPX/1/1" xmlns:xsi="http://www.w3.org/2001/XMLSchema-instance" xsi:schemaLocation="http://www.topografix.com/GPX/1/1 http://www.topografix.com/GPX/1/1/gpx.xsd" version="1.1" creator="VisuGPX - https://www.visugpx.com">
  <metadata>
    <name>GHINU ==&gt; NAYAPUL (NEPAL)</name>
    <desc><![CDATA[Trek entre DHAULAGIRI et ANNAPURNA]]></desc>
  </metadata>
  <trk>
    <name><![CDATA[GHINU NAYAPAUL]]></name>
    <trkseg>
      <trkpt lat="28.40742" lon="83.82051">
        <ele>1539.21</ele>
        <time>2013-11-04T02:11:13Z</time>
      </trkpt>
      <trkpt lat="28.40779" lon="83.81953">
        <ele>1538.73</ele>
        <time>2013-11-04T02:11:33Z</time>
      </trkpt>
      <trkpt lat="28.40789" lon="83.81965">
        <ele>1539.21</ele>
        <time>2013-11-04T02:11:46Z</time>
      </trkpt>
      <trkpt lat="28.40776" lon="83.81947">
        <ele>1539.21</ele>
        <time>2013-11-04T02:12:08Z</time>
      </trkpt>
      <trkpt lat="28.40768" lon="83.81956">
        <ele>1538.73</ele>
        <time>2013-11-04T02:12:27Z</time>
      </trkpt>
      <trkpt lat="28.40775" lon="83.81961">
        <ele>1540.17</ele>
        <time>2013-11-04T02:12:35Z</time>
      </trkpt>
      <trkpt lat="28.40782" lon="83.81962">
        <ele>1538.73</ele>
        <time>2013-11-04T02:12:45Z</time>
      </trkpt>
      <trkpt lat="28.40783" lon="83.81962">
        <ele>1536.8</ele>
        <time>2013-11-04T02:12:50Z</time>
      </trkpt>
      <trkpt lat="28.40785" lon="83.81963">
        <ele>1534.4</ele>
        <time>2013-11-04T02:12:56Z</time>
      </trkpt>
      <trkpt lat="28.40785" lon="83.81965">
        <ele>1532.96</ele>
        <time>2013-11-04T02:13:02Z</time>
      </trkpt>
      <trkpt lat="28.40784" lon="83.81969">
        <ele>1531.52</ele>
        <time>2013-11-04T02:13:07Z</time>
      </trkpt>
      <trkpt lat="28.40783" lon="83.81969">
        <ele>1530.56</ele>
        <time>2013-11-04T02:13:10Z</time>
      </trkpt>
      <trkpt lat="28.40777" lon="83.81972">
        <ele>1529.11</ele>
        <time>2013-11-04T02:13:15Z</time>
      </trkpt>
      <trkpt lat="28.40785" lon="83.81967">
        <ele>1527.67</ele>
        <time>2013-11-04T02:13:28Z</time>
      </trkpt>
      <trkpt lat="28.40788" lon="83.81963">
        <ele>1525.27</ele>
        <time>2013-11-04T02:13:36Z</time>
      </trkpt>
      <trkpt lat="28.40795" lon="83.81954">
        <ele>1522.39</ele>
        <time>2013-11-04T02:13:52Z</time>
      </trkpt>
      <trkpt lat="28.40796" lon="83.81951">
        <ele>1519.02</ele>
        <time>2013-11-04T02:14:00Z</time>
      </trkpt>
      <trkpt lat="28.40796" lon="83.8195">
        <ele>1519.02</ele>
        <time>2013-11-04T02:14:01Z</time>
      </trkpt>
      <trkpt lat="28.408" lon="83.81942">
        <ele>1516.14</ele>
        <time>2013-11-04T02:14:19Z</time>
      </trkpt>
      <trkpt lat="28.40802" lon="83.81937">
        <ele>1512.77</ele>
        <time>2013-11-04T02:14:28Z</time>
      </trkpt>
      <trkpt lat="28.40796" lon="83.81939">
        <ele>1509.89</ele>
        <time>2013-11-04T02:14:42Z</time>
      </trkpt>
      <trkpt lat="28.40792" lon="83.81933">
        <ele>1507</ele>
        <time>2013-11-04T02:15:00Z</time>
      </trkpt>
      <trkpt lat="28.40791" lon="83.81932">
        <ele>1506.52</ele>
        <time>2013-11-04T02:15:15Z</time>
      </trkpt>
      <trkpt lat="28.40795" lon="83.81924">
        <ele>1507</ele>
        <time>2013-11-04T02:15:40Z</time>
      </trkpt>
      <trkpt lat="28.40788" lon="83.81928">
        <ele>1507.48</ele>
        <time>2013-11-04T02:15:59Z</time>
      </trkpt>
      <trkpt lat="28.4078" lon="83.81925">
        <ele>1506.04</ele>
        <time>2013-11-04T02:16:17Z</time>
      </trkpt>
      <trkpt lat="28.40783" lon="83.81925">
        <ele>1506.04</ele>
        <time>2013-11-04T02:16:35Z</time>
      </trkpt>
      <trkpt lat="28.40792" lon="83.81917">
        <ele>1505.56</ele>
        <time>2013-11-04T02:16:57Z</time>
      </trkpt>
      <trkpt lat="28.40791" lon="83.81909">
        <ele>1505.08</ele>
        <time>2013-11-04T02:17:03Z</time>
      </trkpt>
      <trkpt lat="28.4079" lon="83.81906">
        <ele>1506.04</ele>
        <time>2013-11-04T02:17:06Z</time>
      </trkpt>
      <trkpt lat="28.40789" lon="83.81898">
        <ele>1505.56</ele>
        <time>2013-11-04T02:17:21Z</time>
      </trkpt>
      <trkpt lat="28.4079" lon="83.81894">
        <ele>1505.56</ele>
        <time>2013-11-04T02:17:40Z</time>
      </trkpt>
      <trkpt lat="28.40794" lon="83.81889">
        <ele>1505.56</ele>
        <time>2013-11-04T02:18:06Z</time>
      </trkpt>
      <trkpt lat="28.40795" lon="83.81887">
        <ele>1503.64</ele>
        <time>2013-11-04T02:18:18Z</time>
      </trkpt>
      <trkpt lat="28.40795" lon="83.81886">
        <ele>1506.04</ele>
        <time>2013-11-04T02:18:19Z</time>
      </trkpt>
      <trkpt lat="28.40795" lon="83.81886">
        <ele>1504.12</ele>
        <time>2013-11-04T02:18:20Z</time>
      </trkpt>
      <trkpt lat="28.40795" lon="83.81886">
        <ele>1506.04</ele>
        <time>2013-11-04T02:18:21Z</time>
      </trkpt>
      <trkpt lat="28.40794" lon="83.81885">
        <ele>1506.52</ele>
        <time>2013-11-04T02:18:26Z</time>
      </trkpt>
      <trkpt lat="28.40794" lon="83.81885">
        <ele>1505.56</ele>
        <time>2013-11-04T02:18:45Z</time>
      </trkpt>
      <trkpt lat="28.40793" lon="83.81884">
        <ele>1506.52</ele>
        <time>2013-11-04T02:19:03Z</time>
      </trkpt>
      <trkpt lat="28.40793" lon="83.81884">
        <ele>1505.08</ele>
        <time>2013-11-04T02:19:04Z</time>
      </trkpt>
      <trkpt lat="28.40792" lon="83.81888">
        <ele>1506.52</ele>
        <time>2013-11-04T02:19:15Z</time>
      </trkpt>
      <trkpt lat="28.40793" lon="83.81889">
        <ele>1505.56</ele>
        <time>2013-11-04T02:19:37Z</time>
      </trkpt>
      <trkpt lat="28.40791" lon="83.81888">
        <ele>1506.04</ele>
        <time>2013-11-04T02:19:47Z</time>
      </trkpt>
      <trkpt lat="28.40792" lon="83.81887">
        <ele>1505.56</ele>
        <time>2013-11-04T02:20:06Z</time>
      </trkpt>
      <trkpt lat="28.40794" lon="83.81897">
        <ele>1506.52</ele>
        <time>2013-11-04T02:20:24Z</time>
      </trkpt>
      <trkpt lat="28.40794" lon="83.81901">
        <ele>1507.97</ele>
        <time>2013-11-04T02:20:30Z</time>
      </trkpt>
      <trkpt lat="28.40783" lon="83.81903">
        <ele>1507</ele>
        <time>2013-11-04T02:20:43Z</time>
      </trkpt>
      <trkpt lat="28.40782" lon="83.81908">
        <ele>1507.97</ele>
        <time>2013-11-04T02:20:49Z</time>
      </trkpt>
      <trkpt lat="28.40781" lon="83.81917">
        <ele>1507.48</ele>
        <time>2013-11-04T02:20:56Z</time>
      </trkpt>
      <trkpt lat="28.40775" lon="83.81937">
        <ele>1507.48</ele>
        <time>2013-11-04T02:21:11Z</time>
      </trkpt>
      <trkpt lat="28.40776" lon="83.81956">
        <ele>1509.89</ele>
        <time>2013-11-04T02:21:32Z</time>
      </trkpt>
      <trkpt lat="28.40783" lon="83.81976">
        <ele>1512.77</ele>
        <time>2013-11-04T02:21:49Z</time>
      </trkpt>
      <trkpt lat="28.40782" lon="83.81976">
        <ele>1513.73</ele>
        <time>2013-11-04T02:21:51Z</time>
      </trkpt>
      <trkpt lat="28.40782" lon="83.81977">
        <ele>1512.29</ele>
        <time>2013-11-04T02:21:52Z</time>
      </trkpt>
      <trkpt lat="28.40782" lon="83.81977">
        <ele>1513.73</ele>
        <time>2013-11-04T02:21:53Z</time>
      </trkpt>
      <trkpt lat="28.40781" lon="83.81978">
        <ele>1512.29</ele>
        <time>2013-11-04T02:21:54Z</time>
      </trkpt>
      <trkpt lat="28.40781" lon="83.81978">
        <ele>1514.21</ele>
        <time>2013-11-04T02:21:55Z</time>
      </trkpt>
      <trkpt lat="28.40769" lon="83.81979">
        <ele>1515.66</ele>
        <time>2013-11-04T02:22:10Z</time>
      </trkpt>
      <trkpt lat="28.40765" lon="83.81978">
        <ele>1516.62</ele>
        <time>2013-11-04T02:22:12Z</time>
      </trkpt>
      <trkpt lat="28.40761" lon="83.81979">
        <ele>1517.1</ele>
        <time>2013-11-04T02:22:19Z</time>
      </trkpt>
      <trkpt lat="28.4076" lon="83.8198">
        <ele>1518.06</ele>
        <time>2013-11-04T02:22:21Z</time>
      </trkpt>
      <trkpt lat="28.40756" lon="83.81986">
        <ele>1519.5</ele>
        <time>2013-11-04T02:22:36Z</time>
      </trkpt>
      <trkpt lat="28.40755" lon="83.81989">
        <ele>1520.46</ele>
        <time>2013-11-04T02:22:39Z</time>
      </trkpt>
      <trkpt lat="28.40747" lon="83.81995">
        <ele>1523.35</ele>
        <time>2013-11-04T02:22:55Z</time>
      </trkpt>
      <trkpt lat="28.40744" lon="83.82012">
        <ele>1524.79</ele>
        <time>2013-11-04T02:23:11Z</time>
      </trkpt>
      <trkpt lat="28.40743" lon="83.82018">
        <ele>1526.23</ele>
        <time>2013-11-04T02:23:23Z</time>
      </trkpt>
      <trkpt lat="28.40751" lon="83.82027">
        <ele>1527.67</ele>
        <time>2013-11-04T02:23:40Z</time>
      </trkpt>
      <trkpt lat="28.40756" lon="83.82043">
        <ele>1530.56</ele>
        <time>2013-11-04T02:23:56Z</time>
      </trkpt>
      <trkpt lat="28.4076" lon="83.82052">
        <ele>1532.48</ele>
        <time>2013-11-04T02:24:13Z</time>
      </trkpt>
      <trkpt lat="28.40763" lon="83.82061">
        <ele>1533.92</ele>
        <time>2013-11-04T02:24:25Z</time>
      </trkpt>
      <trkpt lat="28.40765" lon="83.82072">
        <ele>1535.84</ele>
        <time>2013-11-04T02:24:40Z</time>
      </trkpt>
      <trkpt lat="28.40765" lon="83.82074">
        <ele>1537.29</ele>
        <time>2013-11-04T02:24:46Z</time>
      </trkpt>
      <trkpt lat="28.40766" lon="83.82075">
        <ele>1537.77</ele>
        <time>2013-11-04T02:24:50Z</time>
      </trkpt>
      <trkpt lat="28.40768" lon="83.82083">
        <ele>1536.32</ele>
        <time>2013-11-04T02:24:59Z</time>
      </trkpt>
      <trkpt lat="28.40768" lon="83.82083">
        <ele>1540.17</ele>
        <time>2013-11-04T02:25:00Z</time>
      </trkpt>
      <trkpt lat="28.40768" lon="83.82083">
        <ele>1538.25</ele>
        <time>2013-11-04T02:25:01Z</time>
      </trkpt>
      <trkpt lat="28.4077" lon="83.82093">
        <ele>1540.65</ele>
        <time>2013-11-04T02:25:24Z</time>
      </trkpt>
      <trkpt lat="28.40771" lon="83.82099">
        <ele>1543.53</ele>
        <time>2013-11-04T02:25:41Z</time>
      </trkpt>
      <trkpt lat="28.40757" lon="83.82097">
        <ele>1546.42</ele>
        <time>2013-11-04T02:25:58Z</time>
      </trkpt>
      <trkpt lat="28.40751" lon="83.821">
        <ele>1548.34</ele>
        <time>2013-11-04T02:26:12Z</time>
      </trkpt>
      <trkpt lat="28.40757" lon="83.82119">
        <ele>1550.26</ele>
        <time>2013-11-04T02:26:31Z</time>
      </trkpt>
      <trkpt lat="28.40747" lon="83.82126">
        <ele>1550.26</ele>
        <time>2013-11-04T02:26:49Z</time>
      </trkpt>
      <trkpt lat="28.40745" lon="83.8213">
        <ele>1550.26</ele>
        <time>2013-11-04T02:27:08Z</time>
      </trkpt>
      <trkpt lat="28.40738" lon="83.82141">
        <ele>1551.22</ele>
        <time>2013-11-04T02:27:24Z</time>
      </trkpt>
      <trkpt lat="28.40729" lon="83.82147">
        <ele>1552.67</ele>
        <time>2013-11-04T02:27:33Z</time>
      </trkpt>
      <trkpt lat="28.40718" lon="83.82157">
        <ele>1552.67</ele>
        <time>2013-11-04T02:27:48Z</time>
      </trkpt>
      <trkpt lat="28.40712" lon="83.82178">
        <ele>1554.59</ele>
        <time>2013-11-04T02:28:08Z</time>
      </trkpt>
      <trkpt lat="28.40706" lon="83.82192">
        <ele>1556.03</ele>
        <time>2013-11-04T02:28:30Z</time>
      </trkpt>
      <trkpt lat="28.40699" lon="83.82196">
        <ele>1556.51</ele>
        <time>2013-11-04T02:28:48Z</time>
      </trkpt>
      <trkpt lat="28.40699" lon="83.82196">
        <ele>1559.4</ele>
        <time>2013-11-04T02:28:49Z</time>
      </trkpt>
      <trkpt lat="28.40678" lon="83.82196">
        <ele>1560.36</ele>
        <time>2013-11-04T02:29:04Z</time>
      </trkpt>
      <trkpt lat="28.40675" lon="83.82211">
        <ele>1562.28</ele>
        <time>2013-11-04T02:29:19Z</time>
      </trkpt>
      <trkpt lat="28.40677" lon="83.82223">
        <ele>1563.72</ele>
        <time>2013-11-04T02:29:32Z</time>
      </trkpt>
      <trkpt lat="28.4065" lon="83.82231">
        <ele>1563.72</ele>
        <time>2013-11-04T02:29:49Z</time>
      </trkpt>
      <trkpt lat="28.40643" lon="83.82229">
        <ele>1564.2</ele>
        <time>2013-11-04T02:29:56Z</time>
      </trkpt>
      <trkpt lat="28.40633" lon="83.82236">
        <ele>1564.68</ele>
        <time>2013-11-04T02:30:13Z</time>
      </trkpt>
      <trkpt lat="28.40625" lon="83.82237">
        <ele>1563.24</ele>
        <time>2013-11-04T02:30:31Z</time>
      </trkpt>
      <trkpt lat="28.40612" lon="83.82235">
        <ele>1564.2</ele>
        <time>2013-11-04T02:30:44Z</time>
      </trkpt>
      <trkpt lat="28.40612" lon="83.82235">
        <ele>1564.2</ele>
        <time>2013-11-04T02:30:45Z</time>
      </trkpt>
      <trkpt lat="28.40599" lon="83.82233">
        <ele>1562.28</ele>
        <time>2013-11-04T02:31:03Z</time>
      </trkpt>
      <trkpt lat="28.40591" lon="83.82235">
        <ele>1561.32</ele>
        <time>2013-11-04T02:31:14Z</time>
      </trkpt>
      <trkpt lat="28.40581" lon="83.82246">
        <ele>1561.32</ele>
        <time>2013-11-04T02:31:32Z</time>
      </trkpt>
      <trkpt lat="28.40575" lon="83.82257">
        <ele>1561.32</ele>
        <time>2013-11-04T02:31:50Z</time>
      </trkpt>
      <trkpt lat="28.40577" lon="83.82256">
        <ele>1561.8</ele>
        <time>2013-11-04T02:32:09Z</time>
      </trkpt>
      <trkpt lat="28.40576" lon="83.82261">
        <ele>1561.8</ele>
        <time>2013-11-04T02:32:22Z</time>
      </trkpt>
      <trkpt lat="28.40563" lon="83.82278">
        <ele>1562.76</ele>
        <time>2013-11-04T02:32:41Z</time>
      </trkpt>
      <trkpt lat="28.40553" lon="83.82281">
        <ele>1565.64</ele>
        <time>2013-11-04T02:32:56Z</time>
      </trkpt>
      <trkpt lat="28.40539" lon="83.82286">
        <ele>1567.09</ele>
        <time>2013-11-04T02:33:14Z</time>
      </trkpt>
      <trkpt lat="28.40533" lon="83.82291">
        <ele>1568.05</ele>
        <time>2013-11-04T02:33:21Z</time>
      </trkpt>
      <trkpt lat="28.40518" lon="83.82303">
        <ele>1568.05</ele>
        <time>2013-11-04T02:33:38Z</time>
      </trkpt>
      <trkpt lat="28.40506" lon="83.82319">
        <ele>1570.45</ele>
        <time>2013-11-04T02:33:59Z</time>
      </trkpt>
      <trkpt lat="28.40494" lon="83.82329">
        <ele>1571.89</ele>
        <time>2013-11-04T02:34:17Z</time>
      </trkpt>
      <trkpt lat="28.40493" lon="83.82333">
        <ele>1571.41</ele>
        <time>2013-11-04T02:34:20Z</time>
      </trkpt>
      <trkpt lat="28.40479" lon="83.82345">
        <ele>1574.3</ele>
        <time>2013-11-04T02:34:38Z</time>
      </trkpt>
      <trkpt lat="28.40468" lon="83.82351">
        <ele>1574.3</ele>
        <time>2013-11-04T02:34:51Z</time>
      </trkpt>
      <trkpt lat="28.40453" lon="83.82362">
        <ele>1573.33</ele>
        <time>2013-11-04T02:35:09Z</time>
      </trkpt>
      <trkpt lat="28.40442" lon="83.82375">
        <ele>1572.37</ele>
        <time>2013-11-04T02:35:24Z</time>
      </trkpt>
      <trkpt lat="28.40419" lon="83.8239">
        <ele>1571.89</ele>
        <time>2013-11-04T02:35:45Z</time>
      </trkpt>
      <trkpt lat="28.40426" lon="83.8238">
        <ele>1572.85</ele>
        <time>2013-11-04T02:36:02Z</time>
      </trkpt>
      <trkpt lat="28.4042" lon="83.82385">
        <ele>1572.85</ele>
        <time>2013-11-04T02:36:23Z</time>
      </trkpt>
      <trkpt lat="28.40417" lon="83.82388">
        <ele>1573.33</ele>
        <time>2013-11-04T02:36:26Z</time>
      </trkpt>
      <trkpt lat="28.40401" lon="83.82395">
        <ele>1573.33</ele>
        <time>2013-11-04T02:36:42Z</time>
      </trkpt>
      <trkpt lat="28.40398" lon="83.82396">
        <ele>1572.85</ele>
        <time>2013-11-04T02:36:44Z</time>
      </trkpt>
      <trkpt lat="28.40385" lon="83.82401">
        <ele>1572.85</ele>
        <time>2013-11-04T02:37:00Z</time>
      </trkpt>
      <trkpt lat="28.40385" lon="83.82401">
        <ele>1570.93</ele>
        <time>2013-11-04T02:37:05Z</time>
      </trkpt>
      <trkpt lat="28.40369" lon="83.82403">
        <ele>1567.57</ele>
        <time>2013-11-04T02:37:20Z</time>
      </trkpt>
      <trkpt lat="28.40352" lon="83.82406">
        <ele>1566.61</ele>
        <time>2013-11-04T02:37:37Z</time>
      </trkpt>
      <trkpt lat="28.40348" lon="83.82412">
        <ele>1567.57</ele>
        <time>2013-11-04T02:37:47Z</time>
      </trkpt>
      <trkpt lat="28.40345" lon="83.82417">
        <ele>1567.09</ele>
        <time>2013-11-04T02:37:52Z</time>
      </trkpt>
      <trkpt lat="28.4033" lon="83.82422">
        <ele>1567.09</ele>
        <time>2013-11-04T02:38:10Z</time>
      </trkpt>
      <trkpt lat="28.40318" lon="83.82428">
        <ele>1566.12</ele>
        <time>2013-11-04T02:38:23Z</time>
      </trkpt>
      <trkpt lat="28.40304" lon="83.82445">
        <ele>1566.12</ele>
        <time>2013-11-04T02:38:43Z</time>
      </trkpt>
      <trkpt lat="28.40298" lon="83.82445">
        <ele>1566.61</ele>
        <time>2013-11-04T02:39:04Z</time>
      </trkpt>
      <trkpt lat="28.40282" lon="83.82448">
        <ele>1567.57</ele>
        <time>2013-11-04T02:39:19Z</time>
      </trkpt>
      <trkpt lat="28.40265" lon="83.82444">
        <ele>1565.64</ele>
        <time>2013-11-04T02:39:35Z</time>
      </trkpt>
      <trkpt lat="28.4025" lon="83.82436">
        <ele>1566.61</ele>
        <time>2013-11-04T02:39:51Z</time>
      </trkpt>
      <trkpt lat="28.40242" lon="83.82434">
        <ele>1564.68</ele>
        <time>2013-11-04T02:40:09Z</time>
      </trkpt>
      <trkpt lat="28.40234" lon="83.82425">
        <ele>1561.8</ele>
        <time>2013-11-04T02:40:24Z</time>
      </trkpt>
      <trkpt lat="28.40231" lon="83.82421">
        <ele>1561.8</ele>
        <time>2013-11-04T02:40:28Z</time>
      </trkpt>
      <trkpt lat="28.40227" lon="83.82419">
        <ele>1561.32</ele>
        <time>2013-11-04T02:40:32Z</time>
      </trkpt>
      <trkpt lat="28.4022" lon="83.82409">
        <ele>1560.36</ele>
        <time>2013-11-04T02:40:44Z</time>
      </trkpt>
      <trkpt lat="28.40216" lon="83.82404">
        <ele>1560.84</ele>
        <time>2013-11-04T02:40:50Z</time>
      </trkpt>
      <trkpt lat="28.4021" lon="83.82395">
        <ele>1561.8</ele>
        <time>2013-11-04T02:41:03Z</time>
      </trkpt>
      <trkpt lat="28.40203" lon="83.82392">
        <ele>1561.32</ele>
        <time>2013-11-04T02:41:11Z</time>
      </trkpt>
      <trkpt lat="28.40197" lon="83.82383">
        <ele>1559.4</ele>
        <time>2013-11-04T02:41:24Z</time>
      </trkpt>
      <trkpt lat="28.40189" lon="83.8238">
        <ele>1556.51</ele>
        <time>2013-11-04T02:41:35Z</time>
      </trkpt>
      <trkpt lat="28.40189" lon="83.82379">
        <ele>1556.03</ele>
        <time>2013-11-04T02:41:36Z</time>
      </trkpt>
      <trkpt lat="28.40177" lon="83.82368">
        <ele>1554.11</ele>
        <time>2013-11-04T02:41:51Z</time>
      </trkpt>
      <trkpt lat="28.40175" lon="83.82361">
        <ele>1554.11</ele>
        <time>2013-11-04T02:42:03Z</time>
      </trkpt>
      <trkpt lat="28.40174" lon="83.82359">
        <ele>1554.59</ele>
        <time>2013-11-04T02:42:04Z</time>
      </trkpt>
      <trkpt lat="28.40165" lon="83.82345">
        <ele>1556.51</ele>
        <time>2013-11-04T02:42:18Z</time>
      </trkpt>
      <trkpt lat="28.40158" lon="83.82327">
        <ele>1557.47</ele>
        <time>2013-11-04T02:42:33Z</time>
      </trkpt>
      <trkpt lat="28.40147" lon="83.82316">
        <ele>1556.51</ele>
        <time>2013-11-04T02:42:45Z</time>
      </trkpt>
      <trkpt lat="28.40144" lon="83.82312">
        <ele>1557.95</ele>
        <time>2013-11-04T02:42:50Z</time>
      </trkpt>
      <trkpt lat="28.40134" lon="83.82293">
        <ele>1559.4</ele>
        <time>2013-11-04T02:43:06Z</time>
      </trkpt>
      <trkpt lat="28.40127" lon="83.82284">
        <ele>1559.88</ele>
        <time>2013-11-04T02:43:15Z</time>
      </trkpt>
      <trkpt lat="28.4012" lon="83.82269">
        <ele>1558.43</ele>
        <time>2013-11-04T02:43:34Z</time>
      </trkpt>
      <trkpt lat="28.40113" lon="83.82264">
        <ele>1557.47</ele>
        <time>2013-11-04T02:43:49Z</time>
      </trkpt>
      <trkpt lat="28.40113" lon="83.82265">
        <ele>1559.4</ele>
        <time>2013-11-04T02:43:53Z</time>
      </trkpt>
      <trkpt lat="28.40113" lon="83.82271">
        <ele>1557.47</ele>
        <time>2013-11-04T02:44:05Z</time>
      </trkpt>
      <trkpt lat="28.40107" lon="83.82276">
        <ele>1556.99</ele>
        <time>2013-11-04T02:44:21Z</time>
      </trkpt>
      <trkpt lat="28.40106" lon="83.82272">
        <ele>1556.99</ele>
        <time>2013-11-04T02:44:43Z</time>
      </trkpt>
      <trkpt lat="28.40102" lon="83.82282">
        <ele>1555.07</ele>
        <time>2013-11-04T02:45:01Z</time>
      </trkpt>
      <trkpt lat="28.40098" lon="83.82291">
        <ele>1551.71</ele>
        <time>2013-11-04T02:45:12Z</time>
      </trkpt>
      <trkpt lat="28.4009" lon="83.82295">
        <ele>1548.34</ele>
        <time>2013-11-04T02:45:27Z</time>
      </trkpt>
      <trkpt lat="28.40089" lon="83.82309">
        <ele>1545.46</ele>
        <time>2013-11-04T02:45:38Z</time>
      </trkpt>
      <trkpt lat="28.40086" lon="83.82317">
        <ele>1542.57</ele>
        <time>2013-11-04T02:45:50Z</time>
      </trkpt>
      <trkpt lat="28.40081" lon="83.82317">
        <ele>1539.21</ele>
        <time>2013-11-04T02:46:00Z</time>
      </trkpt>
      <trkpt lat="28.40075" lon="83.82318">
        <ele>1535.84</ele>
        <time>2013-11-04T02:46:09Z</time>
      </trkpt>
      <trkpt lat="28.40076" lon="83.8233">
        <ele>1532.48</ele>
        <time>2013-11-04T02:46:20Z</time>
      </trkpt>
      <trkpt lat="28.40076" lon="83.82338">
        <ele>1531.52</ele>
        <time>2013-11-04T02:46:25Z</time>
      </trkpt>
      <trkpt lat="28.40075" lon="83.82353">
        <ele>1528.15</ele>
        <time>2013-11-04T02:46:39Z</time>
      </trkpt>
      <trkpt lat="28.40074" lon="83.82363">
        <ele>1525.27</ele>
        <time>2013-11-04T02:46:49Z</time>
      </trkpt>
      <trkpt lat="28.40073" lon="83.82366">
        <ele>1524.31</ele>
        <time>2013-11-04T02:46:52Z</time>
      </trkpt>
      <trkpt lat="28.40069" lon="83.82379">
        <ele>1521.42</ele>
        <time>2013-11-04T02:47:03Z</time>
      </trkpt>
      <trkpt lat="28.40066" lon="83.82392">
        <ele>1518.06</ele>
        <time>2013-11-04T02:47:13Z</time>
      </trkpt>
      <trkpt lat="28.40066" lon="83.82394">
        <ele>1517.58</ele>
        <time>2013-11-04T02:47:15Z</time>
      </trkpt>
      <trkpt lat="28.40064" lon="83.82404">
        <ele>1514.21</ele>
        <time>2013-11-04T02:47:25Z</time>
      </trkpt>
      <trkpt lat="28.40057" lon="83.82409">
        <ele>1511.33</ele>
        <time>2013-11-04T02:47:38Z</time>
      </trkpt>
      <trkpt lat="28.40056" lon="83.8241">
        <ele>1507.97</ele>
        <time>2013-11-04T02:47:51Z</time>
      </trkpt>
      <trkpt lat="28.40053" lon="83.82416">
        <ele>1505.08</ele>
        <time>2013-11-04T02:48:01Z</time>
      </trkpt>
      <trkpt lat="28.40052" lon="83.82421">
        <ele>1502.2</ele>
        <time>2013-11-04T02:48:15Z</time>
      </trkpt>
      <trkpt lat="28.40053" lon="83.82427">
        <ele>1499.79</ele>
        <time>2013-11-04T02:48:32Z</time>
      </trkpt>
      <trkpt lat="28.40053" lon="83.82436">
        <ele>1497.39</ele>
        <time>2013-11-04T02:48:49Z</time>
      </trkpt>
      <trkpt lat="28.40045" lon="83.82456">
        <ele>1495.47</ele>
        <time>2013-11-04T02:49:07Z</time>
      </trkpt>
      <trkpt lat="28.4004" lon="83.82458">
        <ele>1494.03</ele>
        <time>2013-11-04T02:49:15Z</time>
      </trkpt>
      <trkpt lat="28.40013" lon="83.82464">
        <ele>1492.58</ele>
        <time>2013-11-04T02:49:34Z</time>
      </trkpt>
      <trkpt lat="28.4" lon="83.82458">
        <ele>1496.91</ele>
        <time>2013-11-04T02:49:51Z</time>
      </trkpt>
      <trkpt lat="28.3999" lon="83.82448">
        <ele>1498.83</ele>
        <time>2013-11-04T02:50:08Z</time>
      </trkpt>
      <trkpt lat="28.39981" lon="83.82445">
        <ele>1499.79</ele>
        <time>2013-11-04T02:50:20Z</time>
      </trkpt>
      <trkpt lat="28.39977" lon="83.82443">
        <ele>1498.35</ele>
        <time>2013-11-04T02:50:26Z</time>
      </trkpt>
      <trkpt lat="28.39969" lon="83.82444">
        <ele>1494.99</ele>
        <time>2013-11-04T02:50:44Z</time>
      </trkpt>
      <trkpt lat="28.39967" lon="83.8245">
        <ele>1494.51</ele>
        <time>2013-11-04T02:50:59Z</time>
      </trkpt>
      <trkpt lat="28.39969" lon="83.82447">
        <ele>1494.99</ele>
        <time>2013-11-04T02:51:19Z</time>
      </trkpt>
      <trkpt lat="28.39969" lon="83.82443">
        <ele>1495.47</ele>
        <time>2013-11-04T02:51:40Z</time>
      </trkpt>
      <trkpt lat="28.39969" lon="83.82443">
        <ele>1495.95</ele>
        <time>2013-11-04T02:52:06Z</time>
      </trkpt>
      <trkpt lat="28.39968" lon="83.82443">
        <ele>1496.43</ele>
        <time>2013-11-04T02:52:31Z</time>
      </trkpt>
      <trkpt lat="28.39968" lon="83.82441">
        <ele>1495.95</ele>
        <time>2013-11-04T02:53:00Z</time>
      </trkpt>
      <trkpt lat="28.39968" lon="83.8244">
        <ele>1496.91</ele>
        <time>2013-11-04T02:53:18Z</time>
      </trkpt>
      <trkpt lat="28.39969" lon="83.82441">
        <ele>1497.39</ele>
        <time>2013-11-04T02:53:43Z</time>
      </trkpt>
      <trkpt lat="28.39966" lon="83.82443">
        <ele>1497.39</ele>
        <time>2013-11-04T02:54:08Z</time>
      </trkpt>
      <trkpt lat="28.39965" lon="83.82433">
        <ele>1497.87</ele>
        <time>2013-11-04T02:54:30Z</time>
      </trkpt>
      <trkpt lat="28.39964" lon="83.82442">
        <ele>1498.35</ele>
        <time>2013-11-04T02:54:52Z</time>
      </trkpt>
      <trkpt lat="28.39966" lon="83.82443">
        <ele>1498.83</ele>
        <time>2013-11-04T02:55:18Z</time>
      </trkpt>
      <trkpt lat="28.39967" lon="83.82445">
        <ele>1498.83</ele>
        <time>2013-11-04T02:55:44Z</time>
      </trkpt>
      <trkpt lat="28.39968" lon="83.82442">
        <ele>1499.31</ele>
        <time>2013-11-04T02:56:08Z</time>
      </trkpt>
      <trkpt lat="28.39975" lon="83.82445">
        <ele>1499.79</ele>
        <time>2013-11-04T02:56:28Z</time>
      </trkpt>
      <trkpt lat="28.39971" lon="83.82453">
        <ele>1500.27</ele>
        <time>2013-11-04T02:56:48Z</time>
      </trkpt>
      <trkpt lat="28.3997" lon="83.82454">
        <ele>1499.79</ele>
        <time>2013-11-04T02:56:50Z</time>
      </trkpt>
      <trkpt lat="28.39968" lon="83.8246">
        <ele>1497.87</ele>
        <time>2013-11-04T02:56:54Z</time>
      </trkpt>
      <trkpt lat="28.39962" lon="83.82465">
        <ele>1497.87</ele>
        <time>2013-11-04T02:57:01Z</time>
      </trkpt>
      <trkpt lat="28.3995" lon="83.82466">
        <ele>1496.91</ele>
        <time>2013-11-04T02:57:09Z</time>
      </trkpt>
      <trkpt lat="28.39945" lon="83.82474">
        <ele>1495.47</ele>
        <time>2013-11-04T02:57:17Z</time>
      </trkpt>
      <trkpt lat="28.39933" lon="83.82474">
        <ele>1493.55</ele>
        <time>2013-11-04T02:57:32Z</time>
      </trkpt>
      <trkpt lat="28.39928" lon="83.82479">
        <ele>1490.18</ele>
        <time>2013-11-04T02:57:49Z</time>
      </trkpt>
      <trkpt lat="28.39924" lon="83.82481">
        <ele>1487.3</ele>
        <time>2013-11-04T02:57:59Z</time>
      </trkpt>
      <trkpt lat="28.39919" lon="83.82483">
        <ele>1483.93</ele>
        <time>2013-11-04T02:58:08Z</time>
      </trkpt>
      <trkpt lat="28.39907" lon="83.82492">
        <ele>1482.01</ele>
        <time>2013-11-04T02:58:22Z</time>
      </trkpt>
      <trkpt lat="28.39899" lon="83.82505">
        <ele>1480.57</ele>
        <time>2013-11-04T02:58:39Z</time>
      </trkpt>
      <trkpt lat="28.39889" lon="83.82518">
        <ele>1477.2</ele>
        <time>2013-11-04T02:58:57Z</time>
      </trkpt>
      <trkpt lat="28.39881" lon="83.8252">
        <ele>1474.32</ele>
        <time>2013-11-04T02:59:10Z</time>
      </trkpt>
      <trkpt lat="28.39873" lon="83.8253">
        <ele>1471.44</ele>
        <time>2013-11-04T02:59:25Z</time>
      </trkpt>
      <trkpt lat="28.39867" lon="83.82537">
        <ele>1469.03</ele>
        <time>2013-11-04T02:59:45Z</time>
      </trkpt>
      <trkpt lat="28.39856" lon="83.82544">
        <ele>1466.63</ele>
        <time>2013-11-04T03:00:04Z</time>
      </trkpt>
      <trkpt lat="28.39856" lon="83.82549">
        <ele>1463.74</ele>
        <time>2013-11-04T03:00:22Z</time>
      </trkpt>
      <trkpt lat="28.39857" lon="83.82557">
        <ele>1462.78</ele>
        <time>2013-11-04T03:00:27Z</time>
      </trkpt>
      <trkpt lat="28.39855" lon="83.82564">
        <ele>1462.78</ele>
        <time>2013-11-04T03:00:32Z</time>
      </trkpt>
      <trkpt lat="28.39848" lon="83.82572">
        <ele>1462.3</ele>
        <time>2013-11-04T03:00:41Z</time>
      </trkpt>
      <trkpt lat="28.39833" lon="83.82577">
        <ele>1462.3</ele>
        <time>2013-11-04T03:01:00Z</time>
      </trkpt>
      <trkpt lat="28.39829" lon="83.82577">
        <ele>1462.78</ele>
        <time>2013-11-04T03:01:21Z</time>
      </trkpt>
      <trkpt lat="28.39829" lon="83.82581">
        <ele>1463.26</ele>
        <time>2013-11-04T03:01:45Z</time>
      </trkpt>
      <trkpt lat="28.3982" lon="83.82585">
        <ele>1461.34</ele>
        <time>2013-11-04T03:02:00Z</time>
      </trkpt>
      <trkpt lat="28.39807" lon="83.8259">
        <ele>1460.86</ele>
        <time>2013-11-04T03:02:16Z</time>
      </trkpt>
      <trkpt lat="28.39806" lon="83.8259">
        <ele>1459.9</ele>
        <time>2013-11-04T03:02:17Z</time>
      </trkpt>
      <trkpt lat="28.39798" lon="83.82589">
        <ele>1458.46</ele>
        <time>2013-11-04T03:02:26Z</time>
      </trkpt>
      <trkpt lat="28.39792" lon="83.82588">
        <ele>1458.94</ele>
        <time>2013-11-04T03:02:31Z</time>
      </trkpt>
      <trkpt lat="28.39781" lon="83.8259">
        <ele>1460.86</ele>
        <time>2013-11-04T03:02:46Z</time>
      </trkpt>
      <trkpt lat="28.39776" lon="83.8259">
        <ele>1463.74</ele>
        <time>2013-11-04T03:02:59Z</time>
      </trkpt>
      <trkpt lat="28.39774" lon="83.8259">
        <ele>1463.74</ele>
        <time>2013-11-04T03:03:02Z</time>
      </trkpt>
      <trkpt lat="28.39755" lon="83.8259">
        <ele>1465.67</ele>
        <time>2013-11-04T03:03:19Z</time>
      </trkpt>
      <trkpt lat="28.39741" lon="83.82588">
        <ele>1465.19</ele>
        <time>2013-11-04T03:03:34Z</time>
      </trkpt>
      <trkpt lat="28.39728" lon="83.82585">
        <ele>1466.15</ele>
        <time>2013-11-04T03:03:49Z</time>
      </trkpt>
      <trkpt lat="28.39717" lon="83.82577">
        <ele>1464.23</ele>
        <time>2013-11-04T03:04:04Z</time>
      </trkpt>
      <trkpt lat="28.39706" lon="83.82573">
        <ele>1466.15</ele>
        <time>2013-11-04T03:04:19Z</time>
      </trkpt>
      <trkpt lat="28.39696" lon="83.82567">
        <ele>1468.07</ele>
        <time>2013-11-04T03:04:36Z</time>
      </trkpt>
      <trkpt lat="28.39688" lon="83.82563">
        <ele>1469.51</ele>
        <time>2013-11-04T03:04:49Z</time>
      </trkpt>
      <trkpt lat="28.39684" lon="83.82558">
        <ele>1469.99</ele>
        <time>2013-11-04T03:04:54Z</time>
      </trkpt>
      <trkpt lat="28.39672" lon="83.82549">
        <ele>1470.47</ele>
        <time>2013-11-04T03:05:11Z</time>
      </trkpt>
      <trkpt lat="28.39659" lon="83.82546">
        <ele>1472.88</ele>
        <time>2013-11-04T03:05:27Z</time>
      </trkpt>
      <trkpt lat="28.39646" lon="83.82538">
        <ele>1471.44</ele>
        <time>2013-11-04T03:05:44Z</time>
      </trkpt>
      <trkpt lat="28.39636" lon="83.82539">
        <ele>1469.03</ele>
        <time>2013-11-04T03:05:54Z</time>
      </trkpt>
      <trkpt lat="28.39628" lon="83.82539">
        <ele>1466.63</ele>
        <time>2013-11-04T03:06:03Z</time>
      </trkpt>
      <trkpt lat="28.39613" lon="83.82527">
        <ele>1465.67</ele>
        <time>2013-11-04T03:06:20Z</time>
      </trkpt>
      <trkpt lat="28.39602" lon="83.82523">
        <ele>1462.3</ele>
        <time>2013-11-04T03:06:37Z</time>
      </trkpt>
      <trkpt lat="28.39592" lon="83.82515">
        <ele>1459.42</ele>
        <time>2013-11-04T03:06:50Z</time>
      </trkpt>
      <trkpt lat="28.39579" lon="83.8251">
        <ele>1456.05</ele>
        <time>2013-11-04T03:07:06Z</time>
      </trkpt>
      <trkpt lat="28.39572" lon="83.82505">
        <ele>1453.17</ele>
        <time>2013-11-04T03:07:20Z</time>
      </trkpt>
      <trkpt lat="28.39563" lon="83.82498">
        <ele>1450.29</ele>
        <time>2013-11-04T03:07:33Z</time>
      </trkpt>
      <trkpt lat="28.39553" lon="83.82494">
        <ele>1446.92</ele>
        <time>2013-11-04T03:07:50Z</time>
      </trkpt>
      <trkpt lat="28.39537" lon="83.82497">
        <ele>1445</ele>
        <time>2013-11-04T03:08:07Z</time>
      </trkpt>
      <trkpt lat="28.39533" lon="83.82497">
        <ele>1444.52</ele>
        <time>2013-11-04T03:08:12Z</time>
      </trkpt>
      <trkpt lat="28.39519" lon="83.82501">
        <ele>1440.67</ele>
        <time>2013-11-04T03:08:29Z</time>
      </trkpt>
      <trkpt lat="28.39514" lon="83.82503">
        <ele>1439.71</ele>
        <time>2013-11-04T03:08:35Z</time>
      </trkpt>
      <trkpt lat="28.39501" lon="83.82509">
        <ele>1437.79</ele>
        <time>2013-11-04T03:08:49Z</time>
      </trkpt>
      <trkpt lat="28.39484" lon="83.82516">
        <ele>1435.87</ele>
        <time>2013-11-04T03:09:07Z</time>
      </trkpt>
      <trkpt lat="28.39473" lon="83.82519">
        <ele>1434.42</ele>
        <time>2013-11-04T03:09:22Z</time>
      </trkpt>
      <trkpt lat="28.39463" lon="83.82525">
        <ele>1431.06</ele>
        <time>2013-11-04T03:09:39Z</time>
      </trkpt>
      <trkpt lat="28.39449" lon="83.8252">
        <ele>1429.62</ele>
        <time>2013-11-04T03:09:55Z</time>
      </trkpt>
      <trkpt lat="28.39444" lon="83.82523">
        <ele>1429.14</ele>
        <time>2013-11-04T03:10:00Z</time>
      </trkpt>
      <trkpt lat="28.39437" lon="83.82529">
        <ele>1428.18</ele>
        <time>2013-11-04T03:10:09Z</time>
      </trkpt>
      <trkpt lat="28.39421" lon="83.82527">
        <ele>1430.1</ele>
        <time>2013-11-04T03:10:27Z</time>
      </trkpt>
      <trkpt lat="28.39409" lon="83.82522">
        <ele>1430.58</ele>
        <time>2013-11-04T03:10:43Z</time>
      </trkpt>
      <trkpt lat="28.39408" lon="83.82522">
        <ele>1430.58</ele>
        <time>2013-11-04T03:10:45Z</time>
      </trkpt>
      <trkpt lat="28.39395" lon="83.82516">
        <ele>1432.98</ele>
        <time>2013-11-04T03:11:04Z</time>
      </trkpt>
      <trkpt lat="28.39384" lon="83.82512">
        <ele>1434.91</ele>
        <time>2013-11-04T03:11:23Z</time>
      </trkpt>
      <trkpt lat="28.39385" lon="83.82511">
        <ele>1435.39</ele>
        <time>2013-11-04T03:11:44Z</time>
      </trkpt>
      <trkpt lat="28.39384" lon="83.82518">
        <ele>1435.39</ele>
        <time>2013-11-04T03:12:06Z</time>
      </trkpt>
      <trkpt lat="28.39387" lon="83.82522">
        <ele>1435.39</ele>
        <time>2013-11-04T03:12:12Z</time>
      </trkpt>
      <trkpt lat="28.39386" lon="83.82529">
        <ele>1435.87</ele>
        <time>2013-11-04T03:12:29Z</time>
      </trkpt>
      <trkpt lat="28.39383" lon="83.8253">
        <ele>1435.39</ele>
        <time>2013-11-04T03:12:51Z</time>
      </trkpt>
      <trkpt lat="28.39376" lon="83.82522">
        <ele>1432.98</ele>
        <time>2013-11-04T03:13:09Z</time>
      </trkpt>
      <trkpt lat="28.39374" lon="83.82519">
        <ele>1432.5</ele>
        <time>2013-11-04T03:13:13Z</time>
      </trkpt>
      <trkpt lat="28.3936" lon="83.82515">
        <ele>1433.46</ele>
        <time>2013-11-04T03:13:30Z</time>
      </trkpt>
      <trkpt lat="28.39354" lon="83.82508">
        <ele>1432.5</ele>
        <time>2013-11-04T03:13:39Z</time>
      </trkpt>
      <trkpt lat="28.39342" lon="83.82499">
        <ele>1432.98</ele>
        <time>2013-11-04T03:13:55Z</time>
      </trkpt>
      <trkpt lat="28.39335" lon="83.825">
        <ele>1432.98</ele>
        <time>2013-11-04T03:14:16Z</time>
      </trkpt>
      <trkpt lat="28.3933" lon="83.82499">
        <ele>1436.35</ele>
        <time>2013-11-04T03:14:28Z</time>
      </trkpt>
      <trkpt lat="28.39321" lon="83.82493">
        <ele>1438.27</ele>
        <time>2013-11-04T03:14:42Z</time>
      </trkpt>
      <trkpt lat="28.39305" lon="83.82487">
        <ele>1439.23</ele>
        <time>2013-11-04T03:15:00Z</time>
      </trkpt>
      <trkpt lat="28.39294" lon="83.82486">
        <ele>1442.11</ele>
        <time>2013-11-04T03:15:15Z</time>
      </trkpt>
      <trkpt lat="28.39285" lon="83.82494">
        <ele>1442.11</ele>
        <time>2013-11-04T03:15:29Z</time>
      </trkpt>
      <trkpt lat="28.39268" lon="83.82493">
        <ele>1441.63</ele>
        <time>2013-11-04T03:15:45Z</time>
      </trkpt>
      <trkpt lat="28.39257" lon="83.82491">
        <ele>1441.15</ele>
        <time>2013-11-04T03:16:00Z</time>
      </trkpt>
      <trkpt lat="28.39249" lon="83.8249">
        <ele>1441.15</ele>
        <time>2013-11-04T03:16:08Z</time>
      </trkpt>
      <trkpt lat="28.39231" lon="83.82486">
        <ele>1441.63</ele>
        <time>2013-11-04T03:16:26Z</time>
      </trkpt>
      <trkpt lat="28.39218" lon="83.82488">
        <ele>1444.04</ele>
        <time>2013-11-04T03:16:45Z</time>
      </trkpt>
      <trkpt lat="28.39209" lon="83.82494">
        <ele>1445</ele>
        <time>2013-11-04T03:17:02Z</time>
      </trkpt>
      <trkpt lat="28.39207" lon="83.82494">
        <ele>1445.48</ele>
        <time>2013-11-04T03:17:03Z</time>
      </trkpt>
      <trkpt lat="28.39193" lon="83.82496">
        <ele>1446.92</ele>
        <time>2013-11-04T03:17:20Z</time>
      </trkpt>
      <trkpt lat="28.39181" lon="83.82504">
        <ele>1447.88</ele>
        <time>2013-11-04T03:17:36Z</time>
      </trkpt>
      <trkpt lat="28.39168" lon="83.82513">
        <ele>1448.84</ele>
        <time>2013-11-04T03:17:52Z</time>
      </trkpt>
      <trkpt lat="28.39157" lon="83.82515">
        <ele>1448.36</ele>
        <time>2013-11-04T03:18:07Z</time>
      </trkpt>
      <trkpt lat="28.39147" lon="83.82514">
        <ele>1448.36</ele>
        <time>2013-11-04T03:18:21Z</time>
      </trkpt>
      <trkpt lat="28.39136" lon="83.82522">
        <ele>1448.36</ele>
        <time>2013-11-04T03:18:38Z</time>
      </trkpt>
      <trkpt lat="28.39129" lon="83.82525">
        <ele>1451.73</ele>
        <time>2013-11-04T03:18:56Z</time>
      </trkpt>
      <trkpt lat="28.39118" lon="83.82532">
        <ele>1453.17</ele>
        <time>2013-11-04T03:19:16Z</time>
      </trkpt>
      <trkpt lat="28.39117" lon="83.82533">
        <ele>1454.61</ele>
        <time>2013-11-04T03:19:17Z</time>
      </trkpt>
      <trkpt lat="28.39108" lon="83.82546">
        <ele>1455.09</ele>
        <time>2013-11-04T03:19:34Z</time>
      </trkpt>
      <trkpt lat="28.391" lon="83.82548">
        <ele>1454.61</ele>
        <time>2013-11-04T03:19:46Z</time>
      </trkpt>
      <trkpt lat="28.39086" lon="83.8255">
        <ele>1457.98</ele>
        <time>2013-11-04T03:20:05Z</time>
      </trkpt>
      <trkpt lat="28.39077" lon="83.82549">
        <ele>1458.46</ele>
        <time>2013-11-04T03:20:23Z</time>
      </trkpt>
      <trkpt lat="28.39067" lon="83.82544">
        <ele>1456.05</ele>
        <time>2013-11-04T03:20:34Z</time>
      </trkpt>
      <trkpt lat="28.39066" lon="83.82544">
        <ele>1458.94</ele>
        <time>2013-11-04T03:20:35Z</time>
      </trkpt>
      <trkpt lat="28.39061" lon="83.82542">
        <ele>1459.9</ele>
        <time>2013-11-04T03:20:44Z</time>
      </trkpt>
      <trkpt lat="28.3905" lon="83.82544">
        <ele>1460.38</ele>
        <time>2013-11-04T03:21:01Z</time>
      </trkpt>
      <trkpt lat="28.39036" lon="83.82547">
        <ele>1458.94</ele>
        <time>2013-11-04T03:21:18Z</time>
      </trkpt>
      <trkpt lat="28.39023" lon="83.82556">
        <ele>1456.53</ele>
        <time>2013-11-04T03:21:35Z</time>
      </trkpt>
      <trkpt lat="28.39012" lon="83.82558">
        <ele>1457.98</ele>
        <time>2013-11-04T03:21:51Z</time>
      </trkpt>
      <trkpt lat="28.39011" lon="83.82558">
        <ele>1459.42</ele>
        <time>2013-11-04T03:21:53Z</time>
      </trkpt>
      <trkpt lat="28.39003" lon="83.82558">
        <ele>1457.98</ele>
        <time>2013-11-04T03:22:04Z</time>
      </trkpt>
      <trkpt lat="28.39002" lon="83.82557">
        <ele>1459.42</ele>
        <time>2013-11-04T03:22:05Z</time>
      </trkpt>
      <trkpt lat="28.38994" lon="83.82556">
        <ele>1461.82</ele>
        <time>2013-11-04T03:22:22Z</time>
      </trkpt>
      <trkpt lat="28.38987" lon="83.82554">
        <ele>1463.74</ele>
        <time>2013-11-04T03:22:33Z</time>
      </trkpt>
      <trkpt lat="28.38975" lon="83.82552">
        <ele>1463.74</ele>
        <time>2013-11-04T03:22:49Z</time>
      </trkpt>
      <trkpt lat="28.38973" lon="83.82551">
        <ele>1465.19</ele>
        <time>2013-11-04T03:22:51Z</time>
      </trkpt>
      <trkpt lat="28.38967" lon="83.82546">
        <ele>1465.67</ele>
        <time>2013-11-04T03:23:04Z</time>
      </trkpt>
      <trkpt lat="28.3896" lon="83.82538">
        <ele>1467.11</ele>
        <time>2013-11-04T03:23:12Z</time>
      </trkpt>
      <trkpt lat="28.38959" lon="83.82537">
        <ele>1465.67</ele>
        <time>2013-11-04T03:23:13Z</time>
      </trkpt>
      <trkpt lat="28.38957" lon="83.82535">
        <ele>1467.59</ele>
        <time>2013-11-04T03:23:16Z</time>
      </trkpt>
      <trkpt lat="28.38944" lon="83.82527">
        <ele>1469.99</ele>
        <time>2013-11-04T03:23:36Z</time>
      </trkpt>
      <trkpt lat="28.38926" lon="83.82528">
        <ele>1473.36</ele>
        <time>2013-11-04T03:23:54Z</time>
      </trkpt>
      <trkpt lat="28.38919" lon="83.82524">
        <ele>1474.32</ele>
        <time>2013-11-04T03:24:14Z</time>
      </trkpt>
      <trkpt lat="28.38919" lon="83.8252">
        <ele>1474.32</ele>
        <time>2013-11-04T03:24:37Z</time>
      </trkpt>
      <trkpt lat="28.38931" lon="83.82532">
        <ele>1474.8</ele>
        <time>2013-11-04T03:25:03Z</time>
      </trkpt>
      <trkpt lat="28.38921" lon="83.82528">
        <ele>1475.28</ele>
        <time>2013-11-04T03:25:18Z</time>
      </trkpt>
      <trkpt lat="28.3892" lon="83.82531">
        <ele>1474.32</ele>
        <time>2013-11-04T03:25:31Z</time>
      </trkpt>
      <trkpt lat="28.38919" lon="83.82534">
        <ele>1474.8</ele>
        <time>2013-11-04T03:25:57Z</time>
      </trkpt>
      <trkpt lat="28.38918" lon="83.82535">
        <ele>1474.8</ele>
        <time>2013-11-04T03:26:12Z</time>
      </trkpt>
      <trkpt lat="28.38916" lon="83.82537">
        <ele>1476.72</ele>
        <time>2013-11-04T03:26:27Z</time>
      </trkpt>
      <trkpt lat="28.38912" lon="83.8254">
        <ele>1478.16</ele>
        <time>2013-11-04T03:26:39Z</time>
      </trkpt>
      <trkpt lat="28.38899" lon="83.82547">
        <ele>1480.09</ele>
        <time>2013-11-04T03:26:52Z</time>
      </trkpt>
      <trkpt lat="28.38888" lon="83.82545">
        <ele>1480.09</ele>
        <time>2013-11-04T03:27:04Z</time>
      </trkpt>
      <trkpt lat="28.38874" lon="83.8254">
        <ele>1479.61</ele>
        <time>2013-11-04T03:27:18Z</time>
      </trkpt>
      <trkpt lat="28.38866" lon="83.82538">
        <ele>1477.2</ele>
        <time>2013-11-04T03:27:30Z</time>
      </trkpt>
      <trkpt lat="28.38864" lon="83.82536">
        <ele>1477.2</ele>
        <time>2013-11-04T03:27:33Z</time>
      </trkpt>
      <trkpt lat="28.38855" lon="83.82527">
        <ele>1474.32</ele>
        <time>2013-11-04T03:27:47Z</time>
      </trkpt>
      <trkpt lat="28.38855" lon="83.82526">
        <ele>1474.32</ele>
        <time>2013-11-04T03:27:48Z</time>
      </trkpt>
      <trkpt lat="28.38853" lon="83.82509">
        <ele>1474.8</ele>
        <time>2013-11-04T03:28:02Z</time>
      </trkpt>
      <trkpt lat="28.38849" lon="83.82508">
        <ele>1474.32</ele>
        <time>2013-11-04T03:28:21Z</time>
      </trkpt>
      <trkpt lat="28.38845" lon="83.82508">
        <ele>1470.95</ele>
        <time>2013-11-04T03:28:40Z</time>
      </trkpt>
      <trkpt lat="28.38841" lon="83.82509">
        <ele>1468.55</ele>
        <time>2013-11-04T03:28:56Z</time>
      </trkpt>
      <trkpt lat="28.38837" lon="83.82506">
        <ele>1465.67</ele>
        <time>2013-11-04T03:29:10Z</time>
      </trkpt>
      <trkpt lat="28.38832" lon="83.82502">
        <ele>1463.74</ele>
        <time>2013-11-04T03:29:27Z</time>
      </trkpt>
      <trkpt lat="28.38829" lon="83.82501">
        <ele>1461.34</ele>
        <time>2013-11-04T03:29:42Z</time>
      </trkpt>
      <trkpt lat="28.38829" lon="83.82503">
        <ele>1458.94</ele>
        <time>2013-11-04T03:30:04Z</time>
      </trkpt>
      <trkpt lat="28.38829" lon="83.82505">
        <ele>1456.53</ele>
        <time>2013-11-04T03:30:23Z</time>
      </trkpt>
      <trkpt lat="28.38831" lon="83.82514">
        <ele>1454.13</ele>
        <time>2013-11-04T03:30:43Z</time>
      </trkpt>
      <trkpt lat="28.38827" lon="83.82518">
        <ele>1454.13</ele>
        <time>2013-11-04T03:31:05Z</time>
      </trkpt>
      <trkpt lat="28.38826" lon="83.82519">
        <ele>1451.73</ele>
        <time>2013-11-04T03:31:21Z</time>
      </trkpt>
      <trkpt lat="28.38821" lon="83.82513">
        <ele>1449.81</ele>
        <time>2013-11-04T03:31:35Z</time>
      </trkpt>
      <trkpt lat="28.38814" lon="83.82501">
        <ele>1447.88</ele>
        <time>2013-11-04T03:31:54Z</time>
      </trkpt>
      <trkpt lat="28.38803" lon="83.82499">
        <ele>1447.88</ele>
        <time>2013-11-04T03:32:08Z</time>
      </trkpt>
      <trkpt lat="28.38799" lon="83.82499">
        <ele>1446.92</ele>
        <time>2013-11-04T03:32:13Z</time>
      </trkpt>
      <trkpt lat="28.38792" lon="83.82495">
        <ele>1444.04</ele>
        <time>2013-11-04T03:32:25Z</time>
      </trkpt>
      <trkpt lat="28.38786" lon="83.82491">
        <ele>1442.11</ele>
        <time>2013-11-04T03:32:39Z</time>
      </trkpt>
      <trkpt lat="28.38778" lon="83.82484">
        <ele>1439.23</ele>
        <time>2013-11-04T03:32:57Z</time>
      </trkpt>
      <trkpt lat="28.38775" lon="83.82482">
        <ele>1438.27</ele>
        <time>2013-11-04T03:33:05Z</time>
      </trkpt>
      <trkpt lat="28.38771" lon="83.82479">
        <ele>1436.35</ele>
        <time>2013-11-04T03:33:18Z</time>
      </trkpt>
      <trkpt lat="28.38769" lon="83.82477">
        <ele>1434.91</ele>
        <time>2013-11-04T03:33:30Z</time>
      </trkpt>
      <trkpt lat="28.38767" lon="83.82477">
        <ele>1432.02</ele>
        <time>2013-11-04T03:33:46Z</time>
      </trkpt>
      <trkpt lat="28.38762" lon="83.82473">
        <ele>1430.58</ele>
        <time>2013-11-04T03:33:53Z</time>
      </trkpt>
      <trkpt lat="28.38759" lon="83.82471">
        <ele>1430.1</ele>
        <time>2013-11-04T03:33:55Z</time>
      </trkpt>
      <trkpt lat="28.38751" lon="83.82462">
        <ele>1429.14</ele>
        <time>2013-11-04T03:34:11Z</time>
      </trkpt>
      <trkpt lat="28.38746" lon="83.82454">
        <ele>1426.73</ele>
        <time>2013-11-04T03:34:27Z</time>
      </trkpt>
      <trkpt lat="28.3874" lon="83.82451">
        <ele>1424.33</ele>
        <time>2013-11-04T03:34:41Z</time>
      </trkpt>
      <trkpt lat="28.38736" lon="83.8245">
        <ele>1423.85</ele>
        <time>2013-11-04T03:34:53Z</time>
      </trkpt>
      <trkpt lat="28.38732" lon="83.82449">
        <ele>1422.41</ele>
        <time>2013-11-04T03:35:09Z</time>
      </trkpt>
      <trkpt lat="28.3873" lon="83.82448">
        <ele>1421.45</ele>
        <time>2013-11-04T03:35:22Z</time>
      </trkpt>
      <trkpt lat="28.38729" lon="83.82449">
        <ele>1420.97</ele>
        <time>2013-11-04T03:35:35Z</time>
      </trkpt>
      <trkpt lat="28.38727" lon="83.82449">
        <ele>1419.04</ele>
        <time>2013-11-04T03:35:50Z</time>
      </trkpt>
      <trkpt lat="28.38726" lon="83.82451">
        <ele>1417.12</ele>
        <time>2013-11-04T03:36:06Z</time>
      </trkpt>
      <trkpt lat="28.38724" lon="83.82455">
        <ele>1415.68</ele>
        <time>2013-11-04T03:36:23Z</time>
      </trkpt>
      <trkpt lat="28.38717" lon="83.82461">
        <ele>1413.76</ele>
        <time>2013-11-04T03:36:39Z</time>
      </trkpt>
      <trkpt lat="28.38704" lon="83.82466">
        <ele>1412.79</ele>
        <time>2013-11-04T03:36:52Z</time>
      </trkpt>
      <trkpt lat="28.38699" lon="83.82467">
        <ele>1410.87</ele>
        <time>2013-11-04T03:37:10Z</time>
      </trkpt>
      <trkpt lat="28.38696" lon="83.82465">
        <ele>1410.87</ele>
        <time>2013-11-04T03:37:13Z</time>
      </trkpt>
      <trkpt lat="28.38689" lon="83.82467">
        <ele>1408.95</ele>
        <time>2013-11-04T03:37:30Z</time>
      </trkpt>
      <trkpt lat="28.3868" lon="83.82463">
        <ele>1407.51</ele>
        <time>2013-11-04T03:37:46Z</time>
      </trkpt>
      <trkpt lat="28.38668" lon="83.8246">
        <ele>1407.51</ele>
        <time>2013-11-04T03:37:58Z</time>
      </trkpt>
      <trkpt lat="28.38655" lon="83.82458">
        <ele>1404.62</ele>
        <time>2013-11-04T03:38:16Z</time>
      </trkpt>
      <trkpt lat="28.38644" lon="83.82455">
        <ele>1401.74</ele>
        <time>2013-11-04T03:38:32Z</time>
      </trkpt>
      <trkpt lat="28.38641" lon="83.82454">
        <ele>1399.34</ele>
        <time>2013-11-04T03:38:48Z</time>
      </trkpt>
      <trkpt lat="28.38633" lon="83.82454">
        <ele>1396.93</ele>
        <time>2013-11-04T03:39:05Z</time>
      </trkpt>
      <trkpt lat="28.38622" lon="83.8246">
        <ele>1394.53</ele>
        <time>2013-11-04T03:39:22Z</time>
      </trkpt>
      <trkpt lat="28.38615" lon="83.82459">
        <ele>1391.65</ele>
        <time>2013-11-04T03:39:38Z</time>
      </trkpt>
      <trkpt lat="28.38609" lon="83.82454">
        <ele>1390.68</ele>
        <time>2013-11-04T03:39:44Z</time>
      </trkpt>
      <trkpt lat="28.38595" lon="83.82444">
        <ele>1391.17</ele>
        <time>2013-11-04T03:39:57Z</time>
      </trkpt>
      <trkpt lat="28.38585" lon="83.82441">
        <ele>1390.68</ele>
        <time>2013-11-04T03:40:08Z</time>
      </trkpt>
      <trkpt lat="28.38584" lon="83.8244">
        <ele>1390.68</ele>
        <time>2013-11-04T03:40:09Z</time>
      </trkpt>
      <trkpt lat="28.38577" lon="83.82434">
        <ele>1389.72</ele>
        <time>2013-11-04T03:40:17Z</time>
      </trkpt>
      <trkpt lat="28.38567" lon="83.8243">
        <ele>1390.2</ele>
        <time>2013-11-04T03:40:23Z</time>
      </trkpt>
      <trkpt lat="28.38563" lon="83.82421">
        <ele>1388.28</ele>
        <time>2013-11-04T03:40:36Z</time>
      </trkpt>
      <trkpt lat="28.38556" lon="83.82414">
        <ele>1387.32</ele>
        <time>2013-11-04T03:40:50Z</time>
      </trkpt>
      <trkpt lat="28.38551" lon="83.82413">
        <ele>1386.36</ele>
        <time>2013-11-04T03:40:59Z</time>
      </trkpt>
      <trkpt lat="28.38548" lon="83.82417">
        <ele>1385.4</ele>
        <time>2013-11-04T03:41:15Z</time>
      </trkpt>
      <trkpt lat="28.38545" lon="83.82421">
        <ele>1384.44</ele>
        <time>2013-11-04T03:41:24Z</time>
      </trkpt>
      <trkpt lat="28.38535" lon="83.82421">
        <ele>1383.96</ele>
        <time>2013-11-04T03:41:36Z</time>
      </trkpt>
      <trkpt lat="28.38521" lon="83.82413">
        <ele>1383.47</ele>
        <time>2013-11-04T03:41:50Z</time>
      </trkpt>
      <trkpt lat="28.38519" lon="83.82409">
        <ele>1386.36</ele>
        <time>2013-11-04T03:42:04Z</time>
      </trkpt>
      <trkpt lat="28.38511" lon="83.82401">
        <ele>1386.84</ele>
        <time>2013-11-04T03:42:17Z</time>
      </trkpt>
      <trkpt lat="28.3851" lon="83.82401">
        <ele>1386.84</ele>
        <time>2013-11-04T03:42:18Z</time>
      </trkpt>
      <trkpt lat="28.38507" lon="83.82399">
        <ele>1386.84</ele>
        <time>2013-11-04T03:42:22Z</time>
      </trkpt>
      <trkpt lat="28.38496" lon="83.82399">
        <ele>1386.36</ele>
        <time>2013-11-04T03:42:32Z</time>
      </trkpt>
      <trkpt lat="28.38486" lon="83.82402">
        <ele>1384.44</ele>
        <time>2013-11-04T03:42:49Z</time>
      </trkpt>
      <trkpt lat="28.38482" lon="83.82402">
        <ele>1383.47</ele>
        <time>2013-11-04T03:42:53Z</time>
      </trkpt>
      <trkpt lat="28.38474" lon="83.82405">
        <ele>1383.47</ele>
        <time>2013-11-04T03:43:04Z</time>
      </trkpt>
      <trkpt lat="28.38465" lon="83.82411">
        <ele>1383.47</ele>
        <time>2013-11-04T03:43:18Z</time>
      </trkpt>
      <trkpt lat="28.38453" lon="83.82412">
        <ele>1382.51</ele>
        <time>2013-11-04T03:43:31Z</time>
      </trkpt>
      <trkpt lat="28.38446" lon="83.82409">
        <ele>1383.96</ele>
        <time>2013-11-04T03:43:40Z</time>
      </trkpt>
      <trkpt lat="28.38438" lon="83.82422">
        <ele>1383.96</ele>
        <time>2013-11-04T03:43:50Z</time>
      </trkpt>
      <trkpt lat="28.38435" lon="83.82432">
        <ele>1384.44</ele>
        <time>2013-11-04T03:43:59Z</time>
      </trkpt>
      <trkpt lat="28.38428" lon="83.82439">
        <ele>1384.92</ele>
        <time>2013-11-04T03:44:11Z</time>
      </trkpt>
      <trkpt lat="28.38421" lon="83.82442">
        <ele>1385.88</ele>
        <time>2013-11-04T03:44:23Z</time>
      </trkpt>
      <trkpt lat="28.38412" lon="83.82441">
        <ele>1385.88</ele>
        <time>2013-11-04T03:44:36Z</time>
      </trkpt>
      <trkpt lat="28.384" lon="83.82438">
        <ele>1384.92</ele>
        <time>2013-11-04T03:44:52Z</time>
      </trkpt>
      <trkpt lat="28.38397" lon="83.82439">
        <ele>1384.92</ele>
        <time>2013-11-04T03:44:56Z</time>
      </trkpt>
      <trkpt lat="28.38387" lon="83.82442">
        <ele>1384.92</ele>
        <time>2013-11-04T03:45:05Z</time>
      </trkpt>
      <trkpt lat="28.38381" lon="83.82452">
        <ele>1383.96</ele>
        <time>2013-11-04T03:45:17Z</time>
      </trkpt>
      <trkpt lat="28.38374" lon="83.82453">
        <ele>1382.99</ele>
        <time>2013-11-04T03:45:29Z</time>
      </trkpt>
      <trkpt lat="28.38365" lon="83.82444">
        <ele>1383.96</ele>
        <time>2013-11-04T03:45:44Z</time>
      </trkpt>
      <trkpt lat="28.38362" lon="83.82443">
        <ele>1384.92</ele>
        <time>2013-11-04T03:45:48Z</time>
      </trkpt>
      <trkpt lat="28.38354" lon="83.82438">
        <ele>1384.44</ele>
        <time>2013-11-04T03:45:59Z</time>
      </trkpt>
      <trkpt lat="28.38347" lon="83.82435">
        <ele>1384.44</ele>
        <time>2013-11-04T03:46:09Z</time>
      </trkpt>
      <trkpt lat="28.38336" lon="83.82428">
        <ele>1383.96</ele>
        <time>2013-11-04T03:46:18Z</time>
      </trkpt>
      <trkpt lat="28.38323" lon="83.82419">
        <ele>1384.44</ele>
        <time>2013-11-04T03:46:34Z</time>
      </trkpt>
      <trkpt lat="28.38318" lon="83.82413">
        <ele>1386.84</ele>
        <time>2013-11-04T03:46:50Z</time>
      </trkpt>
      <trkpt lat="28.38312" lon="83.82407">
        <ele>1389.72</ele>
        <time>2013-11-04T03:47:05Z</time>
      </trkpt>
      <trkpt lat="28.38308" lon="83.82403">
        <ele>1391.17</ele>
        <time>2013-11-04T03:47:18Z</time>
      </trkpt>
      <trkpt lat="28.38302" lon="83.82399">
        <ele>1393.09</ele>
        <time>2013-11-04T03:47:33Z</time>
      </trkpt>
      <trkpt lat="28.38294" lon="83.82394">
        <ele>1392.61</ele>
        <time>2013-11-04T03:47:45Z</time>
      </trkpt>
      <trkpt lat="28.38286" lon="83.82388">
        <ele>1392.61</ele>
        <time>2013-11-04T03:47:56Z</time>
      </trkpt>
      <trkpt lat="28.38278" lon="83.82385">
        <ele>1391.65</ele>
        <time>2013-11-04T03:48:09Z</time>
      </trkpt>
      <trkpt lat="28.38276" lon="83.82385">
        <ele>1391.65</ele>
        <time>2013-11-04T03:48:10Z</time>
      </trkpt>
      <trkpt lat="28.38267" lon="83.82384">
        <ele>1390.68</ele>
        <time>2013-11-04T03:48:20Z</time>
      </trkpt>
      <trkpt lat="28.38255" lon="83.8238">
        <ele>1389.24</ele>
        <time>2013-11-04T03:48:35Z</time>
      </trkpt>
      <trkpt lat="28.38244" lon="83.82377">
        <ele>1387.8</ele>
        <time>2013-11-04T03:48:48Z</time>
      </trkpt>
      <trkpt lat="28.38237" lon="83.82381">
        <ele>1386.84</ele>
        <time>2013-11-04T03:48:56Z</time>
      </trkpt>
      <trkpt lat="28.38235" lon="83.82382">
        <ele>1386.84</ele>
        <time>2013-11-04T03:48:58Z</time>
      </trkpt>
      <trkpt lat="28.38231" lon="83.82382">
        <ele>1386.84</ele>
        <time>2013-11-04T03:49:00Z</time>
      </trkpt>
      <trkpt lat="28.3822" lon="83.82384">
        <ele>1386.36</ele>
        <time>2013-11-04T03:49:11Z</time>
      </trkpt>
      <trkpt lat="28.38218" lon="83.82384">
        <ele>1386.36</ele>
        <time>2013-11-04T03:49:14Z</time>
      </trkpt>
      <trkpt lat="28.38217" lon="83.82385">
        <ele>1386.36</ele>
        <time>2013-11-04T03:49:15Z</time>
      </trkpt>
      <trkpt lat="28.38199" lon="83.82375">
        <ele>1384.92</ele>
        <time>2013-11-04T03:49:30Z</time>
      </trkpt>
      <trkpt lat="28.38194" lon="83.82362">
        <ele>1383.96</ele>
        <time>2013-11-04T03:49:49Z</time>
      </trkpt>
      <trkpt lat="28.38184" lon="83.82357">
        <ele>1381.07</ele>
        <time>2013-11-04T03:50:04Z</time>
      </trkpt>
      <trkpt lat="28.38173" lon="83.82348">
        <ele>1379.15</ele>
        <time>2013-11-04T03:50:17Z</time>
      </trkpt>
      <trkpt lat="28.38164" lon="83.82348">
        <ele>1377.23</ele>
        <time>2013-11-04T03:50:33Z</time>
      </trkpt>
      <trkpt lat="28.38153" lon="83.82351">
        <ele>1374.82</ele>
        <time>2013-11-04T03:50:48Z</time>
      </trkpt>
      <trkpt lat="28.38144" lon="83.82348">
        <ele>1374.34</ele>
        <time>2013-11-04T03:50:57Z</time>
      </trkpt>
      <trkpt lat="28.38137" lon="83.8235">
        <ele>1373.86</ele>
        <time>2013-11-04T03:51:02Z</time>
      </trkpt>
      <trkpt lat="28.38135" lon="83.8235">
        <ele>1373.86</ele>
        <time>2013-11-04T03:51:04Z</time>
      </trkpt>
      <trkpt lat="28.38128" lon="83.82354">
        <ele>1372.9</ele>
        <time>2013-11-04T03:51:13Z</time>
      </trkpt>
      <trkpt lat="28.38118" lon="83.82349">
        <ele>1371.94</ele>
        <time>2013-11-04T03:51:26Z</time>
      </trkpt>
      <trkpt lat="28.38111" lon="83.82346">
        <ele>1371.46</ele>
        <time>2013-11-04T03:51:41Z</time>
      </trkpt>
      <trkpt lat="28.38106" lon="83.82351">
        <ele>1369.54</ele>
        <time>2013-11-04T03:51:55Z</time>
      </trkpt>
      <trkpt lat="28.38099" lon="83.8235">
        <ele>1367.61</ele>
        <time>2013-11-04T03:52:07Z</time>
      </trkpt>
      <trkpt lat="28.3809" lon="83.82351">
        <ele>1366.17</ele>
        <time>2013-11-04T03:52:21Z</time>
      </trkpt>
      <trkpt lat="28.38087" lon="83.82351">
        <ele>1364.73</ele>
        <time>2013-11-04T03:52:36Z</time>
      </trkpt>
      <trkpt lat="28.38084" lon="83.82354">
        <ele>1362.33</ele>
        <time>2013-11-04T03:52:47Z</time>
      </trkpt>
      <trkpt lat="28.38075" lon="83.82361">
        <ele>1360.88</ele>
        <time>2013-11-04T03:52:59Z</time>
      </trkpt>
      <trkpt lat="28.38068" lon="83.82361">
        <ele>1359.44</ele>
        <time>2013-11-04T03:53:13Z</time>
      </trkpt>
      <trkpt lat="28.38064" lon="83.82356">
        <ele>1360.4</ele>
        <time>2013-11-04T03:53:22Z</time>
      </trkpt>
      <trkpt lat="28.38051" lon="83.82351">
        <ele>1363.29</ele>
        <time>2013-11-04T03:53:35Z</time>
      </trkpt>
      <trkpt lat="28.38045" lon="83.82351">
        <ele>1365.69</ele>
        <time>2013-11-04T03:53:50Z</time>
      </trkpt>
      <trkpt lat="28.38041" lon="83.8234">
        <ele>1368.09</ele>
        <time>2013-11-04T03:54:03Z</time>
      </trkpt>
      <trkpt lat="28.38036" lon="83.82334">
        <ele>1369.54</ele>
        <time>2013-11-04T03:54:15Z</time>
      </trkpt>
      <trkpt lat="28.38031" lon="83.82335">
        <ele>1370.98</ele>
        <time>2013-11-04T03:54:23Z</time>
      </trkpt>
      <trkpt lat="28.38022" lon="83.82332">
        <ele>1372.42</ele>
        <time>2013-11-04T03:54:39Z</time>
      </trkpt>
      <trkpt lat="28.38015" lon="83.8233">
        <ele>1373.86</ele>
        <time>2013-11-04T03:54:49Z</time>
      </trkpt>
      <trkpt lat="28.38008" lon="83.82328">
        <ele>1375.78</ele>
        <time>2013-11-04T03:55:02Z</time>
      </trkpt>
      <trkpt lat="28.38003" lon="83.8232">
        <ele>1375.78</ele>
        <time>2013-11-04T03:55:17Z</time>
      </trkpt>
      <trkpt lat="28.37995" lon="83.82318">
        <ele>1375.78</ele>
        <time>2013-11-04T03:55:29Z</time>
      </trkpt>
      <trkpt lat="28.37988" lon="83.82316">
        <ele>1377.23</ele>
        <time>2013-11-04T03:55:40Z</time>
      </trkpt>
      <trkpt lat="28.37983" lon="83.82311">
        <ele>1378.19</ele>
        <time>2013-11-04T03:55:50Z</time>
      </trkpt>
      <trkpt lat="28.37978" lon="83.82307">
        <ele>1376.26</ele>
        <time>2013-11-04T03:56:05Z</time>
      </trkpt>
      <trkpt lat="28.37971" lon="83.82303">
        <ele>1373.86</ele>
        <time>2013-11-04T03:56:21Z</time>
      </trkpt>
      <trkpt lat="28.37965" lon="83.82302">
        <ele>1372.9</ele>
        <time>2013-11-04T03:56:38Z</time>
      </trkpt>
      <trkpt lat="28.37959" lon="83.82302">
        <ele>1372.42</ele>
        <time>2013-11-04T03:56:54Z</time>
      </trkpt>
      <trkpt lat="28.3795" lon="83.82303">
        <ele>1370.02</ele>
        <time>2013-11-04T03:57:16Z</time>
      </trkpt>
      <trkpt lat="28.37949" lon="83.82304">
        <ele>1370.02</ele>
        <time>2013-11-04T03:57:17Z</time>
      </trkpt>
      <trkpt lat="28.37938" lon="83.823">
        <ele>1370.5</ele>
        <time>2013-11-04T03:57:29Z</time>
      </trkpt>
      <trkpt lat="28.37932" lon="83.82298">
        <ele>1370.98</ele>
        <time>2013-11-04T03:57:40Z</time>
      </trkpt>
      <trkpt lat="28.37926" lon="83.82291">
        <ele>1370.02</ele>
        <time>2013-11-04T03:57:52Z</time>
      </trkpt>
      <trkpt lat="28.37923" lon="83.82293">
        <ele>1369.54</ele>
        <time>2013-11-04T03:58:08Z</time>
      </trkpt>
      <trkpt lat="28.37921" lon="83.82295">
        <ele>1368.57</ele>
        <time>2013-11-04T03:58:24Z</time>
      </trkpt>
      <trkpt lat="28.37917" lon="83.82296">
        <ele>1366.17</ele>
        <time>2013-11-04T03:58:38Z</time>
      </trkpt>
      <trkpt lat="28.37914" lon="83.82299">
        <ele>1364.73</ele>
        <time>2013-11-04T03:58:54Z</time>
      </trkpt>
      <trkpt lat="28.37908" lon="83.82301">
        <ele>1362.33</ele>
        <time>2013-11-04T03:59:07Z</time>
      </trkpt>
      <trkpt lat="28.37898" lon="83.82295">
        <ele>1360.88</ele>
        <time>2013-11-04T03:59:20Z</time>
      </trkpt>
      <trkpt lat="28.37892" lon="83.82288">
        <ele>1360.88</ele>
        <time>2013-11-04T03:59:34Z</time>
      </trkpt>
      <trkpt lat="28.37887" lon="83.82285">
        <ele>1358.48</ele>
        <time>2013-11-04T03:59:52Z</time>
      </trkpt>
      <trkpt lat="28.37885" lon="83.82284">
        <ele>1357.04</ele>
        <time>2013-11-04T03:59:54Z</time>
      </trkpt>
      <trkpt lat="28.37884" lon="83.82283">
        <ele>1358.48</ele>
        <time>2013-11-04T03:59:55Z</time>
      </trkpt>
      <trkpt lat="28.37881" lon="83.8228">
        <ele>1357.52</ele>
        <time>2013-11-04T04:00:01Z</time>
      </trkpt>
      <trkpt lat="28.37872" lon="83.8227">
        <ele>1358.48</ele>
        <time>2013-11-04T04:00:15Z</time>
      </trkpt>
      <trkpt lat="28.3787" lon="83.82261">
        <ele>1357.52</ele>
        <time>2013-11-04T04:00:24Z</time>
      </trkpt>
      <trkpt lat="28.37869" lon="83.82243">
        <ele>1359.44</ele>
        <time>2013-11-04T04:00:39Z</time>
      </trkpt>
      <trkpt lat="28.37866" lon="83.82233">
        <ele>1359.44</ele>
        <time>2013-11-04T04:00:54Z</time>
      </trkpt>
      <trkpt lat="28.37861" lon="83.82221">
        <ele>1359.92</ele>
        <time>2013-11-04T04:01:07Z</time>
      </trkpt>
      <trkpt lat="28.37861" lon="83.82209">
        <ele>1359.92</ele>
        <time>2013-11-04T04:01:21Z</time>
      </trkpt>
      <trkpt lat="28.37861" lon="83.82206">
        <ele>1359.92</ele>
        <time>2013-11-04T04:01:24Z</time>
      </trkpt>
      <trkpt lat="28.37861" lon="83.82204">
        <ele>1359.92</ele>
        <time>2013-11-04T04:01:26Z</time>
      </trkpt>
      <trkpt lat="28.37861" lon="83.82195">
        <ele>1360.88</ele>
        <time>2013-11-04T04:01:41Z</time>
      </trkpt>
      <trkpt lat="28.37856" lon="83.8219">
        <ele>1362.81</ele>
        <time>2013-11-04T04:01:55Z</time>
      </trkpt>
      <trkpt lat="28.37851" lon="83.82186">
        <ele>1361.36</ele>
        <time>2013-11-04T04:02:08Z</time>
      </trkpt>
      <trkpt lat="28.37845" lon="83.82178">
        <ele>1361.36</ele>
        <time>2013-11-04T04:02:22Z</time>
      </trkpt>
      <trkpt lat="28.37839" lon="83.82166">
        <ele>1361.84</ele>
        <time>2013-11-04T04:02:36Z</time>
      </trkpt>
      <trkpt lat="28.37839" lon="83.82165">
        <ele>1362.33</ele>
        <time>2013-11-04T04:02:37Z</time>
      </trkpt>
      <trkpt lat="28.37833" lon="83.82156">
        <ele>1359.92</ele>
        <time>2013-11-04T04:02:50Z</time>
      </trkpt>
      <trkpt lat="28.37831" lon="83.82155">
        <ele>1359.92</ele>
        <time>2013-11-04T04:02:52Z</time>
      </trkpt>
      <trkpt lat="28.37828" lon="83.82153">
        <ele>1358.96</ele>
        <time>2013-11-04T04:02:56Z</time>
      </trkpt>
      <trkpt lat="28.37819" lon="83.82143">
        <ele>1359.92</ele>
        <time>2013-11-04T04:03:12Z</time>
      </trkpt>
      <trkpt lat="28.37815" lon="83.82139">
        <ele>1360.88</ele>
        <time>2013-11-04T04:03:24Z</time>
      </trkpt>
      <trkpt lat="28.37809" lon="83.82131">
        <ele>1359.92</ele>
        <time>2013-11-04T04:03:37Z</time>
      </trkpt>
      <trkpt lat="28.37804" lon="83.8212">
        <ele>1360.4</ele>
        <time>2013-11-04T04:03:50Z</time>
      </trkpt>
      <trkpt lat="28.37799" lon="83.82113">
        <ele>1361.84</ele>
        <time>2013-11-04T04:04:01Z</time>
      </trkpt>
      <trkpt lat="28.37792" lon="83.82109">
        <ele>1363.77</ele>
        <time>2013-11-04T04:04:15Z</time>
      </trkpt>
      <trkpt lat="28.37786" lon="83.82102">
        <ele>1365.21</ele>
        <time>2013-11-04T04:04:29Z</time>
      </trkpt>
      <trkpt lat="28.37781" lon="83.82092">
        <ele>1366.17</ele>
        <time>2013-11-04T04:04:41Z</time>
      </trkpt>
      <trkpt lat="28.37774" lon="83.82088">
        <ele>1363.77</ele>
        <time>2013-11-04T04:04:55Z</time>
      </trkpt>
      <trkpt lat="28.37766" lon="83.82081">
        <ele>1363.29</ele>
        <time>2013-11-04T04:05:09Z</time>
      </trkpt>
      <trkpt lat="28.37754" lon="83.82079">
        <ele>1361.84</ele>
        <time>2013-11-04T04:05:23Z</time>
      </trkpt>
      <trkpt lat="28.37753" lon="83.8208">
        <ele>1362.33</ele>
        <time>2013-11-04T04:05:24Z</time>
      </trkpt>
      <trkpt lat="28.37745" lon="83.8208">
        <ele>1363.29</ele>
        <time>2013-11-04T04:05:32Z</time>
      </trkpt>
      <trkpt lat="28.3774" lon="83.82076">
        <ele>1364.25</ele>
        <time>2013-11-04T04:05:46Z</time>
      </trkpt>
      <trkpt lat="28.37733" lon="83.82063">
        <ele>1363.77</ele>
        <time>2013-11-04T04:05:59Z</time>
      </trkpt>
      <trkpt lat="28.37725" lon="83.82057">
        <ele>1363.29</ele>
        <time>2013-11-04T04:06:13Z</time>
      </trkpt>
      <trkpt lat="28.37722" lon="83.82055">
        <ele>1362.33</ele>
        <time>2013-11-04T04:06:17Z</time>
      </trkpt>
      <trkpt lat="28.37717" lon="83.82051">
        <ele>1361.84</ele>
        <time>2013-11-04T04:06:23Z</time>
      </trkpt>
      <trkpt lat="28.37709" lon="83.82039">
        <ele>1361.36</ele>
        <time>2013-11-04T04:06:40Z</time>
      </trkpt>
      <trkpt lat="28.37705" lon="83.82035">
        <ele>1361.36</ele>
        <time>2013-11-04T04:06:55Z</time>
      </trkpt>
      <trkpt lat="28.37704" lon="83.82026">
        <ele>1360.88</ele>
        <time>2013-11-04T04:07:05Z</time>
      </trkpt>
      <trkpt lat="28.37701" lon="83.82014">
        <ele>1359.44</ele>
        <time>2013-11-04T04:07:20Z</time>
      </trkpt>
      <trkpt lat="28.37701" lon="83.8201">
        <ele>1357.52</ele>
        <time>2013-11-04T04:07:36Z</time>
      </trkpt>
      <trkpt lat="28.37699" lon="83.82003">
        <ele>1356.08</ele>
        <time>2013-11-04T04:07:49Z</time>
      </trkpt>
      <trkpt lat="28.37693" lon="83.81999">
        <ele>1356.56</ele>
        <time>2013-11-04T04:08:04Z</time>
      </trkpt>
      <trkpt lat="28.37685" lon="83.81992">
        <ele>1353.67</ele>
        <time>2013-11-04T04:08:21Z</time>
      </trkpt>
      <trkpt lat="28.37682" lon="83.81988">
        <ele>1351.75</ele>
        <time>2013-11-04T04:08:38Z</time>
      </trkpt>
      <trkpt lat="28.37677" lon="83.81985">
        <ele>1349.35</ele>
        <time>2013-11-04T04:08:57Z</time>
      </trkpt>
      <trkpt lat="28.37672" lon="83.81983">
        <ele>1346.46</ele>
        <time>2013-11-04T04:09:16Z</time>
      </trkpt>
      <trkpt lat="28.37668" lon="83.81978">
        <ele>1345.02</ele>
        <time>2013-11-04T04:09:29Z</time>
      </trkpt>
      <trkpt lat="28.37666" lon="83.81977">
        <ele>1343.58</ele>
        <time>2013-11-04T04:09:42Z</time>
      </trkpt>
      <trkpt lat="28.37653" lon="83.81972">
        <ele>1342.62</ele>
        <time>2013-11-04T04:09:58Z</time>
      </trkpt>
      <trkpt lat="28.37646" lon="83.81972">
        <ele>1342.62</ele>
        <time>2013-11-04T04:10:10Z</time>
      </trkpt>
      <trkpt lat="28.3764" lon="83.81971">
        <ele>1344.54</ele>
        <time>2013-11-04T04:10:25Z</time>
      </trkpt>
      <trkpt lat="28.37633" lon="83.81973">
        <ele>1347.43</ele>
        <time>2013-11-04T04:10:42Z</time>
      </trkpt>
      <trkpt lat="28.37631" lon="83.81968">
        <ele>1346.94</ele>
        <time>2013-11-04T04:10:54Z</time>
      </trkpt>
      <trkpt lat="28.37631" lon="83.81958">
        <ele>1346.46</ele>
        <time>2013-11-04T04:11:20Z</time>
      </trkpt>
      <trkpt lat="28.37627" lon="83.81958">
        <ele>1345.5</ele>
        <time>2013-11-04T04:11:33Z</time>
      </trkpt>
      <trkpt lat="28.37617" lon="83.81955">
        <ele>1345.02</ele>
        <time>2013-11-04T04:11:45Z</time>
      </trkpt>
      <trkpt lat="28.37612" lon="83.81956">
        <ele>1345.02</ele>
        <time>2013-11-04T04:11:49Z</time>
      </trkpt>
      <trkpt lat="28.37599" lon="83.81957">
        <ele>1345.02</ele>
        <time>2013-11-04T04:12:03Z</time>
      </trkpt>
      <trkpt lat="28.37584" lon="83.81963">
        <ele>1345.02</ele>
        <time>2013-11-04T04:12:17Z</time>
      </trkpt>
      <trkpt lat="28.37571" lon="83.81966">
        <ele>1344.06</ele>
        <time>2013-11-04T04:12:29Z</time>
      </trkpt>
      <trkpt lat="28.37561" lon="83.81963">
        <ele>1343.58</ele>
        <time>2013-11-04T04:12:39Z</time>
      </trkpt>
      <trkpt lat="28.37551" lon="83.81958">
        <ele>1341.66</ele>
        <time>2013-11-04T04:12:53Z</time>
      </trkpt>
      <trkpt lat="28.37543" lon="83.81958">
        <ele>1338.77</ele>
        <time>2013-11-04T04:13:10Z</time>
      </trkpt>
      <trkpt lat="28.37539" lon="83.81957">
        <ele>1338.29</ele>
        <time>2013-11-04T04:13:14Z</time>
      </trkpt>
      <trkpt lat="28.37527" lon="83.81955">
        <ele>1336.85</ele>
        <time>2013-11-04T04:13:27Z</time>
      </trkpt>
      <trkpt lat="28.37515" lon="83.8195">
        <ele>1334.45</ele>
        <time>2013-11-04T04:13:43Z</time>
      </trkpt>
      <trkpt lat="28.37514" lon="83.81942">
        <ele>1332.52</ele>
        <time>2013-11-04T04:13:59Z</time>
      </trkpt>
      <trkpt lat="28.37507" lon="83.81943">
        <ele>1332.52</ele>
        <time>2013-11-04T04:14:10Z</time>
      </trkpt>
      <trkpt lat="28.37498" lon="83.81943">
        <ele>1333.97</ele>
        <time>2013-11-04T04:14:23Z</time>
      </trkpt>
      <trkpt lat="28.37496" lon="83.81944">
        <ele>1333.49</ele>
        <time>2013-11-04T04:14:25Z</time>
      </trkpt>
      <trkpt lat="28.37488" lon="83.81942">
        <ele>1333.01</ele>
        <time>2013-11-04T04:14:36Z</time>
      </trkpt>
      <trkpt lat="28.37485" lon="83.81947">
        <ele>1333.01</ele>
        <time>2013-11-04T04:14:47Z</time>
      </trkpt>
      <trkpt lat="28.37478" lon="83.81943">
        <ele>1332.52</ele>
        <time>2013-11-04T04:14:57Z</time>
      </trkpt>
      <trkpt lat="28.3747" lon="83.8194">
        <ele>1332.04</ele>
        <time>2013-11-04T04:15:12Z</time>
      </trkpt>
      <trkpt lat="28.37468" lon="83.81939">
        <ele>1333.49</ele>
        <time>2013-11-04T04:15:18Z</time>
      </trkpt>
      <trkpt lat="28.37461" lon="83.81935">
        <ele>1333.97</ele>
        <time>2013-11-04T04:15:28Z</time>
      </trkpt>
      <trkpt lat="28.37448" lon="83.81935">
        <ele>1333.49</ele>
        <time>2013-11-04T04:15:43Z</time>
      </trkpt>
      <trkpt lat="28.37443" lon="83.81937">
        <ele>1333.01</ele>
        <time>2013-11-04T04:15:49Z</time>
      </trkpt>
      <trkpt lat="28.37436" lon="83.8194">
        <ele>1332.52</ele>
        <time>2013-11-04T04:16:04Z</time>
      </trkpt>
      <trkpt lat="28.37436" lon="83.81942">
        <ele>1332.52</ele>
        <time>2013-11-04T04:16:27Z</time>
      </trkpt>
      <trkpt lat="28.37434" lon="83.81938">
        <ele>1332.52</ele>
        <time>2013-11-04T04:16:42Z</time>
      </trkpt>
      <trkpt lat="28.37434" lon="83.81936">
        <ele>1332.52</ele>
        <time>2013-11-04T04:16:57Z</time>
      </trkpt>
      <trkpt lat="28.37432" lon="83.81937">
        <ele>1332.04</ele>
        <time>2013-11-04T04:17:13Z</time>
      </trkpt>
      <trkpt lat="28.37431" lon="83.81937">
        <ele>1331.56</ele>
        <time>2013-11-04T04:17:27Z</time>
      </trkpt>
      <trkpt lat="28.37428" lon="83.81935">
        <ele>1331.56</ele>
        <time>2013-11-04T04:17:45Z</time>
      </trkpt>
      <trkpt lat="28.37427" lon="83.81934">
        <ele>1331.56</ele>
        <time>2013-11-04T04:17:59Z</time>
      </trkpt>
      <trkpt lat="28.37425" lon="83.81933">
        <ele>1331.56</ele>
        <time>2013-11-04T04:18:18Z</time>
      </trkpt>
      <trkpt lat="28.37424" lon="83.81933">
        <ele>1331.08</ele>
        <time>2013-11-04T04:18:36Z</time>
      </trkpt>
      <trkpt lat="28.37423" lon="83.81931">
        <ele>1331.08</ele>
        <time>2013-11-04T04:19:11Z</time>
      </trkpt>
      <trkpt lat="28.37421" lon="83.81931">
        <ele>1331.08</ele>
        <time>2013-11-04T04:19:40Z</time>
      </trkpt>
      <trkpt lat="28.37421" lon="83.81932">
        <ele>1331.08</ele>
        <time>2013-11-04T04:20:10Z</time>
      </trkpt>
      <trkpt lat="28.3742" lon="83.81931">
        <ele>1331.08</ele>
        <time>2013-11-04T04:20:26Z</time>
      </trkpt>
      <trkpt lat="28.3742" lon="83.81931">
        <ele>1331.08</ele>
        <time>2013-11-04T04:20:46Z</time>
      </trkpt>
      <trkpt lat="28.3742" lon="83.81931">
        <ele>1331.56</ele>
        <time>2013-11-04T04:21:09Z</time>
      </trkpt>
      <trkpt lat="28.3742" lon="83.81931">
        <ele>1331.08</ele>
        <time>2013-11-04T04:21:32Z</time>
      </trkpt>
      <trkpt lat="28.3742" lon="83.81931">
        <ele>1331.08</ele>
        <time>2013-11-04T04:21:54Z</time>
      </trkpt>
      <trkpt lat="28.3742" lon="83.81931">
        <ele>1331.08</ele>
        <time>2013-11-04T04:22:12Z</time>
      </trkpt>
      <trkpt lat="28.3742" lon="83.81931">
        <ele>1331.08</ele>
        <time>2013-11-04T04:22:41Z</time>
      </trkpt>
      <trkpt lat="28.3742" lon="83.81931">
        <ele>1331.08</ele>
        <time>2013-11-04T04:23:07Z</time>
      </trkpt>
      <trkpt lat="28.3742" lon="83.81931">
        <ele>1331.56</ele>
        <time>2013-11-04T04:23:33Z</time>
      </trkpt>
      <trkpt lat="28.37419" lon="83.81931">
        <ele>1331.08</ele>
        <time>2013-11-04T04:24:02Z</time>
      </trkpt>
      <trkpt lat="28.3742" lon="83.81931">
        <ele>1331.08</ele>
        <time>2013-11-04T04:24:27Z</time>
      </trkpt>
      <trkpt lat="28.37419" lon="83.81931">
        <ele>1331.56</ele>
        <time>2013-11-04T04:24:55Z</time>
      </trkpt>
      <trkpt lat="28.37419" lon="83.81931">
        <ele>1331.08</ele>
        <time>2013-11-04T04:25:23Z</time>
      </trkpt>
      <trkpt lat="28.3742" lon="83.81931">
        <ele>1331.08</ele>
        <time>2013-11-04T04:25:54Z</time>
      </trkpt>
      <trkpt lat="28.3742" lon="83.8193">
        <ele>1331.56</ele>
        <time>2013-11-04T04:26:17Z</time>
      </trkpt>
      <trkpt lat="28.37419" lon="83.8193">
        <ele>1331.08</ele>
        <time>2013-11-04T04:26:39Z</time>
      </trkpt>
      <trkpt lat="28.37419" lon="83.8193">
        <ele>1331.08</ele>
        <time>2013-11-04T04:27:10Z</time>
      </trkpt>
      <trkpt lat="28.37419" lon="83.8193">
        <ele>1331.56</ele>
        <time>2013-11-04T04:27:34Z</time>
      </trkpt>
      <trkpt lat="28.3742" lon="83.81929">
        <ele>1331.56</ele>
        <time>2013-11-04T04:27:51Z</time>
      </trkpt>
      <trkpt lat="28.37419" lon="83.81929">
        <ele>1331.56</ele>
        <time>2013-11-04T04:28:21Z</time>
      </trkpt>
      <trkpt lat="28.37419" lon="83.81929">
        <ele>1331.56</ele>
        <time>2013-11-04T04:28:52Z</time>
      </trkpt>
      <trkpt lat="28.37419" lon="83.81929">
        <ele>1331.56</ele>
        <time>2013-11-04T04:29:21Z</time>
      </trkpt>
      <trkpt lat="28.37419" lon="83.81929">
        <ele>1330.6</ele>
        <time>2013-11-04T04:29:47Z</time>
      </trkpt>
      <trkpt lat="28.37419" lon="83.81929">
        <ele>1331.08</ele>
        <time>2013-11-04T04:30:17Z</time>
      </trkpt>
      <trkpt lat="28.37419" lon="83.81929">
        <ele>1331.08</ele>
        <time>2013-11-04T04:30:45Z</time>
      </trkpt>
      <trkpt lat="28.37419" lon="83.81929">
        <ele>1331.08</ele>
        <time>2013-11-04T04:31:03Z</time>
      </trkpt>
      <trkpt lat="28.37419" lon="83.8193">
        <ele>1331.08</ele>
        <time>2013-11-04T04:31:33Z</time>
      </trkpt>
      <trkpt lat="28.37418" lon="83.8193">
        <ele>1330.6</ele>
        <time>2013-11-04T04:32:01Z</time>
      </trkpt>
      <trkpt lat="28.37419" lon="83.8193">
        <ele>1330.6</ele>
        <time>2013-11-04T04:32:30Z</time>
      </trkpt>
      <trkpt lat="28.37419" lon="83.8193">
        <ele>1330.6</ele>
        <time>2013-11-04T04:32:59Z</time>
      </trkpt>
      <trkpt lat="28.37418" lon="83.81931">
        <ele>1330.6</ele>
        <time>2013-11-04T04:33:26Z</time>
      </trkpt>
      <trkpt lat="28.37419" lon="83.81931">
        <ele>1330.6</ele>
        <time>2013-11-04T04:33:54Z</time>
      </trkpt>
      <trkpt lat="28.37418" lon="83.81931">
        <ele>1330.6</ele>
        <time>2013-11-04T04:34:25Z</time>
      </trkpt>
      <trkpt lat="28.37418" lon="83.81931">
        <ele>1330.6</ele>
        <time>2013-11-04T04:34:56Z</time>
      </trkpt>
      <trkpt lat="28.37418" lon="83.81932">
        <ele>1330.6</ele>
        <time>2013-11-04T04:35:26Z</time>
      </trkpt>
      <trkpt lat="28.37419" lon="83.81932">
        <ele>1330.6</ele>
        <time>2013-11-04T04:35:54Z</time>
      </trkpt>
      <trkpt lat="28.37418" lon="83.81932">
        <ele>1330.6</ele>
        <time>2013-11-04T04:36:28Z</time>
      </trkpt>
      <trkpt lat="28.37418" lon="83.81931">
        <ele>1330.12</ele>
        <time>2013-11-04T04:37:04Z</time>
      </trkpt>
      <trkpt lat="28.37417" lon="83.81932">
        <ele>1330.12</ele>
        <time>2013-11-04T04:37:39Z</time>
      </trkpt>
      <trkpt lat="28.37417" lon="83.81932">
        <ele>1330.12</ele>
        <time>2013-11-04T04:38:10Z</time>
      </trkpt>
      <trkpt lat="28.37417" lon="83.81932">
        <ele>1330.12</ele>
        <time>2013-11-04T04:38:31Z</time>
      </trkpt>
      <trkpt lat="28.37417" lon="83.81932">
        <ele>1330.12</ele>
        <time>2013-11-04T04:38:59Z</time>
      </trkpt>
      <trkpt lat="28.37417" lon="83.81932">
        <ele>1330.12</ele>
        <time>2013-11-04T04:39:23Z</time>
      </trkpt>
      <trkpt lat="28.37417" lon="83.81932">
        <ele>1330.12</ele>
        <time>2013-11-04T04:39:48Z</time>
      </trkpt>
      <trkpt lat="28.37417" lon="83.81932">
        <ele>1330.12</ele>
        <time>2013-11-04T04:40:22Z</time>
      </trkpt>
      <trkpt lat="28.37417" lon="83.81932">
        <ele>1329.64</ele>
        <time>2013-11-04T04:40:53Z</time>
      </trkpt>
      <trkpt lat="28.37418" lon="83.81933">
        <ele>1330.12</ele>
        <time>2013-11-04T04:41:23Z</time>
      </trkpt>
      <trkpt lat="28.37417" lon="83.81931">
        <ele>1330.12</ele>
        <time>2013-11-04T04:41:50Z</time>
      </trkpt>
      <trkpt lat="28.37416" lon="83.81929">
        <ele>1330.6</ele>
        <time>2013-11-04T04:42:02Z</time>
      </trkpt>
      <trkpt lat="28.37415" lon="83.81928">
        <ele>1330.12</ele>
        <time>2013-11-04T04:42:25Z</time>
      </trkpt>
      <trkpt lat="28.37414" lon="83.81927">
        <ele>1331.08</ele>
        <time>2013-11-04T04:42:54Z</time>
      </trkpt>
      <trkpt lat="28.37416" lon="83.81928">
        <ele>1330.12</ele>
        <time>2013-11-04T04:43:06Z</time>
      </trkpt>
      <trkpt lat="28.37414" lon="83.81926">
        <ele>1330.12</ele>
        <time>2013-11-04T04:43:19Z</time>
      </trkpt>
      <trkpt lat="28.37413" lon="83.81932">
        <ele>1330.12</ele>
        <time>2013-11-04T04:43:37Z</time>
      </trkpt>
      <trkpt lat="28.3741" lon="83.81932">
        <ele>1330.6</ele>
        <time>2013-11-04T04:44:00Z</time>
      </trkpt>
      <trkpt lat="28.37416" lon="83.81925">
        <ele>1330.6</ele>
        <time>2013-11-04T04:44:22Z</time>
      </trkpt>
      <trkpt lat="28.37416" lon="83.81924">
        <ele>1330.6</ele>
        <time>2013-11-04T04:44:40Z</time>
      </trkpt>
      <trkpt lat="28.37417" lon="83.81924">
        <ele>1330.12</ele>
        <time>2013-11-04T04:44:42Z</time>
      </trkpt>
      <trkpt lat="28.37418" lon="83.81927">
        <ele>1330.6</ele>
        <time>2013-11-04T04:44:54Z</time>
      </trkpt>
      <trkpt lat="28.37417" lon="83.81928">
        <ele>1330.6</ele>
        <time>2013-11-04T04:45:06Z</time>
      </trkpt>
      <trkpt lat="28.37417" lon="83.81929">
        <ele>1330.6</ele>
        <time>2013-11-04T04:45:23Z</time>
      </trkpt>
      <trkpt lat="28.37417" lon="83.81928">
        <ele>1330.6</ele>
        <time>2013-11-04T04:45:46Z</time>
      </trkpt>
      <trkpt lat="28.37416" lon="83.81925">
        <ele>1330.6</ele>
        <time>2013-11-04T04:46:02Z</time>
      </trkpt>
      <trkpt lat="28.37416" lon="83.81925">
        <ele>1330.6</ele>
        <time>2013-11-04T04:46:33Z</time>
      </trkpt>
      <trkpt lat="28.37414" lon="83.81923">
        <ele>1330.6</ele>
        <time>2013-11-04T04:47:01Z</time>
      </trkpt>
      <trkpt lat="28.37415" lon="83.81925">
        <ele>1330.6</ele>
        <time>2013-11-04T04:47:26Z</time>
      </trkpt>
      <trkpt lat="28.37416" lon="83.81926">
        <ele>1330.6</ele>
        <time>2013-11-04T04:47:40Z</time>
      </trkpt>
      <trkpt lat="28.37416" lon="83.81926">
        <ele>1331.08</ele>
        <time>2013-11-04T04:48:00Z</time>
      </trkpt>
      <trkpt lat="28.37414" lon="83.8192">
        <ele>1331.08</ele>
        <time>2013-11-04T04:48:18Z</time>
      </trkpt>
      <trkpt lat="28.3741" lon="83.81916">
        <ele>1330.12</ele>
        <time>2013-11-04T04:48:22Z</time>
      </trkpt>
      <trkpt lat="28.37406" lon="83.81913">
        <ele>1330.12</ele>
        <time>2013-11-04T04:48:27Z</time>
      </trkpt>
      <trkpt lat="28.37405" lon="83.81911">
        <ele>1329.64</ele>
        <time>2013-11-04T04:48:29Z</time>
      </trkpt>
      <trkpt lat="28.37401" lon="83.81905">
        <ele>1329.64</ele>
        <time>2013-11-04T04:48:34Z</time>
      </trkpt>
      <trkpt lat="28.37398" lon="83.81906">
        <ele>1329.64</ele>
        <time>2013-11-04T04:48:47Z</time>
      </trkpt>
      <trkpt lat="28.37396" lon="83.81901">
        <ele>1328.68</ele>
        <time>2013-11-04T04:48:58Z</time>
      </trkpt>
      <trkpt lat="28.37395" lon="83.81901">
        <ele>1328.68</ele>
        <time>2013-11-04T04:49:00Z</time>
      </trkpt>
      <trkpt lat="28.37388" lon="83.81893">
        <ele>1329.16</ele>
        <time>2013-11-04T04:49:11Z</time>
      </trkpt>
      <trkpt lat="28.37388" lon="83.81893">
        <ele>1329.16</ele>
        <time>2013-11-04T04:49:12Z</time>
      </trkpt>
      <trkpt lat="28.37382" lon="83.81883">
        <ele>1329.16</ele>
        <time>2013-11-04T04:49:24Z</time>
      </trkpt>
      <trkpt lat="28.37381" lon="83.81882">
        <ele>1329.64</ele>
        <time>2013-11-04T04:49:25Z</time>
      </trkpt>
      <trkpt lat="28.37377" lon="83.81878">
        <ele>1330.12</ele>
        <time>2013-11-04T04:49:31Z</time>
      </trkpt>
      <trkpt lat="28.37375" lon="83.81877">
        <ele>1330.12</ele>
        <time>2013-11-04T04:49:33Z</time>
      </trkpt>
      <trkpt lat="28.37369" lon="83.81873">
        <ele>1330.12</ele>
        <time>2013-11-04T04:49:42Z</time>
      </trkpt>
      <trkpt lat="28.37365" lon="83.8187">
        <ele>1329.16</ele>
        <time>2013-11-04T04:49:47Z</time>
      </trkpt>
      <trkpt lat="28.37359" lon="83.81871">
        <ele>1329.16</ele>
        <time>2013-11-04T04:49:53Z</time>
      </trkpt>
      <trkpt lat="28.37354" lon="83.8187">
        <ele>1329.64</ele>
        <time>2013-11-04T04:49:58Z</time>
      </trkpt>
      <trkpt lat="28.37342" lon="83.81876">
        <ele>1330.12</ele>
        <time>2013-11-04T04:50:10Z</time>
      </trkpt>
      <trkpt lat="28.37336" lon="83.81874">
        <ele>1331.08</ele>
        <time>2013-11-04T04:50:24Z</time>
      </trkpt>
      <trkpt lat="28.37335" lon="83.81874">
        <ele>1331.08</ele>
        <time>2013-11-04T04:50:26Z</time>
      </trkpt>
      <trkpt lat="28.37331" lon="83.8187">
        <ele>1333.49</ele>
        <time>2013-11-04T04:50:38Z</time>
      </trkpt>
      <trkpt lat="28.37331" lon="83.8187">
        <ele>1333.49</ele>
        <time>2013-11-04T04:50:39Z</time>
      </trkpt>
      <trkpt lat="28.37327" lon="83.81869">
        <ele>1333.49</ele>
        <time>2013-11-04T04:50:43Z</time>
      </trkpt>
      <trkpt lat="28.37325" lon="83.81867">
        <ele>1333.49</ele>
        <time>2013-11-04T04:50:46Z</time>
      </trkpt>
      <trkpt lat="28.37318" lon="83.81863">
        <ele>1333.97</ele>
        <time>2013-11-04T04:50:55Z</time>
      </trkpt>
      <trkpt lat="28.37311" lon="83.8186">
        <ele>1333.49</ele>
        <time>2013-11-04T04:51:07Z</time>
      </trkpt>
      <trkpt lat="28.3731" lon="83.8186">
        <ele>1333.49</ele>
        <time>2013-11-04T04:51:12Z</time>
      </trkpt>
      <trkpt lat="28.37303" lon="83.81853">
        <ele>1331.56</ele>
        <time>2013-11-04T04:51:25Z</time>
      </trkpt>
      <trkpt lat="28.37291" lon="83.81846">
        <ele>1331.08</ele>
        <time>2013-11-04T04:51:41Z</time>
      </trkpt>
      <trkpt lat="28.37288" lon="83.8185">
        <ele>1333.01</ele>
        <time>2013-11-04T04:51:55Z</time>
      </trkpt>
      <trkpt lat="28.37283" lon="83.8185">
        <ele>1334.93</ele>
        <time>2013-11-04T04:52:10Z</time>
      </trkpt>
      <trkpt lat="28.37281" lon="83.81852">
        <ele>1336.37</ele>
        <time>2013-11-04T04:52:25Z</time>
      </trkpt>
      <trkpt lat="28.37278" lon="83.81852">
        <ele>1338.77</ele>
        <time>2013-11-04T04:52:41Z</time>
      </trkpt>
      <trkpt lat="28.37275" lon="83.81852">
        <ele>1342.14</ele>
        <time>2013-11-04T04:52:56Z</time>
      </trkpt>
      <trkpt lat="28.37275" lon="83.8185">
        <ele>1344.06</ele>
        <time>2013-11-04T04:53:12Z</time>
      </trkpt>
      <trkpt lat="28.37274" lon="83.81849">
        <ele>1346.94</ele>
        <time>2013-11-04T04:53:29Z</time>
      </trkpt>
      <trkpt lat="28.37274" lon="83.81847">
        <ele>1348.39</ele>
        <time>2013-11-04T04:53:47Z</time>
      </trkpt>
      <trkpt lat="28.37274" lon="83.81843">
        <ele>1350.79</ele>
        <time>2013-11-04T04:54:03Z</time>
      </trkpt>
      <trkpt lat="28.37273" lon="83.8184">
        <ele>1354.15</ele>
        <time>2013-11-04T04:54:23Z</time>
      </trkpt>
      <trkpt lat="28.37273" lon="83.81837">
        <ele>1355.12</ele>
        <time>2013-11-04T04:54:37Z</time>
      </trkpt>
      <trkpt lat="28.37272" lon="83.81835">
        <ele>1357.04</ele>
        <time>2013-11-04T04:54:51Z</time>
      </trkpt>
      <trkpt lat="28.37269" lon="83.81834">
        <ele>1358.48</ele>
        <time>2013-11-04T04:55:04Z</time>
      </trkpt>
      <trkpt lat="28.37262" lon="83.81834">
        <ele>1359.92</ele>
        <time>2013-11-04T04:55:16Z</time>
      </trkpt>
      <trkpt lat="28.37259" lon="83.81833">
        <ele>1360.88</ele>
        <time>2013-11-04T04:55:20Z</time>
      </trkpt>
      <trkpt lat="28.37248" lon="83.81832">
        <ele>1360.4</ele>
        <time>2013-11-04T04:55:32Z</time>
      </trkpt>
      <trkpt lat="28.37238" lon="83.81829">
        <ele>1360.88</ele>
        <time>2013-11-04T04:55:43Z</time>
      </trkpt>
      <trkpt lat="28.37224" lon="83.81827">
        <ele>1362.33</ele>
        <time>2013-11-04T04:55:56Z</time>
      </trkpt>
      <trkpt lat="28.37214" lon="83.81826">
        <ele>1362.81</ele>
        <time>2013-11-04T04:56:09Z</time>
      </trkpt>
      <trkpt lat="28.37215" lon="83.81824">
        <ele>1362.81</ele>
        <time>2013-11-04T04:56:22Z</time>
      </trkpt>
      <trkpt lat="28.37214" lon="83.81823">
        <ele>1362.33</ele>
        <time>2013-11-04T04:56:35Z</time>
      </trkpt>
      <trkpt lat="28.37212" lon="83.81823">
        <ele>1361.84</ele>
        <time>2013-11-04T04:56:37Z</time>
      </trkpt>
      <trkpt lat="28.37205" lon="83.81822">
        <ele>1361.84</ele>
        <time>2013-11-04T04:56:44Z</time>
      </trkpt>
      <trkpt lat="28.37201" lon="83.81822">
        <ele>1361.36</ele>
        <time>2013-11-04T04:56:47Z</time>
      </trkpt>
      <trkpt lat="28.37192" lon="83.81823">
        <ele>1360.88</ele>
        <time>2013-11-04T04:56:58Z</time>
      </trkpt>
      <trkpt lat="28.37182" lon="83.81817">
        <ele>1360.88</ele>
        <time>2013-11-04T04:57:07Z</time>
      </trkpt>
      <trkpt lat="28.37171" lon="83.81818">
        <ele>1362.33</ele>
        <time>2013-11-04T04:57:22Z</time>
      </trkpt>
      <trkpt lat="28.37162" lon="83.81813">
        <ele>1363.77</ele>
        <time>2013-11-04T04:57:37Z</time>
      </trkpt>
      <trkpt lat="28.37158" lon="83.81814">
        <ele>1365.21</ele>
        <time>2013-11-04T04:57:51Z</time>
      </trkpt>
      <trkpt lat="28.37155" lon="83.81812">
        <ele>1367.61</ele>
        <time>2013-11-04T04:58:06Z</time>
      </trkpt>
      <trkpt lat="28.37148" lon="83.8181">
        <ele>1370.02</ele>
        <time>2013-11-04T04:58:23Z</time>
      </trkpt>
      <trkpt lat="28.37146" lon="83.8181">
        <ele>1372.9</ele>
        <time>2013-11-04T04:58:38Z</time>
      </trkpt>
      <trkpt lat="28.37139" lon="83.81806">
        <ele>1374.34</ele>
        <time>2013-11-04T04:58:53Z</time>
      </trkpt>
      <trkpt lat="28.37131" lon="83.81801">
        <ele>1375.3</ele>
        <time>2013-11-04T04:58:59Z</time>
      </trkpt>
      <trkpt lat="28.37123" lon="83.81801">
        <ele>1375.78</ele>
        <time>2013-11-04T04:59:06Z</time>
      </trkpt>
      <trkpt lat="28.37117" lon="83.81801">
        <ele>1375.3</ele>
        <time>2013-11-04T04:59:10Z</time>
      </trkpt>
      <trkpt lat="28.37108" lon="83.81801">
        <ele>1377.23</ele>
        <time>2013-11-04T04:59:22Z</time>
      </trkpt>
      <trkpt lat="28.37099" lon="83.81797">
        <ele>1378.67</ele>
        <time>2013-11-04T04:59:34Z</time>
      </trkpt>
      <trkpt lat="28.37097" lon="83.81794">
        <ele>1378.67</ele>
        <time>2013-11-04T04:59:37Z</time>
      </trkpt>
      <trkpt lat="28.37092" lon="83.81789">
        <ele>1378.19</ele>
        <time>2013-11-04T04:59:42Z</time>
      </trkpt>
      <trkpt lat="28.37088" lon="83.81788">
        <ele>1378.19</ele>
        <time>2013-11-04T04:59:46Z</time>
      </trkpt>
      <trkpt lat="28.37079" lon="83.81787">
        <ele>1378.19</ele>
        <time>2013-11-04T04:59:54Z</time>
      </trkpt>
      <trkpt lat="28.37075" lon="83.81787">
        <ele>1377.71</ele>
        <time>2013-11-04T04:59:59Z</time>
      </trkpt>
      <trkpt lat="28.37071" lon="83.81788">
        <ele>1378.19</ele>
        <time>2013-11-04T05:00:02Z</time>
      </trkpt>
      <trkpt lat="28.37068" lon="83.81789">
        <ele>1377.71</ele>
        <time>2013-11-04T05:00:14Z</time>
      </trkpt>
      <trkpt lat="28.37056" lon="83.81787">
        <ele>1378.19</ele>
        <time>2013-11-04T05:00:27Z</time>
      </trkpt>
      <trkpt lat="28.37055" lon="83.81787">
        <ele>1377.71</ele>
        <time>2013-11-04T05:00:28Z</time>
      </trkpt>
      <trkpt lat="28.37046" lon="83.81784">
        <ele>1379.15</ele>
        <time>2013-11-04T05:00:44Z</time>
      </trkpt>
      <trkpt lat="28.37042" lon="83.81779">
        <ele>1381.07</ele>
        <time>2013-11-04T05:00:54Z</time>
      </trkpt>
      <trkpt lat="28.37033" lon="83.81778">
        <ele>1382.03</ele>
        <time>2013-11-04T05:01:10Z</time>
      </trkpt>
      <trkpt lat="28.37031" lon="83.8178">
        <ele>1382.03</ele>
        <time>2013-11-04T05:01:13Z</time>
      </trkpt>
      <trkpt lat="28.37026" lon="83.81782">
        <ele>1382.51</ele>
        <time>2013-11-04T05:01:19Z</time>
      </trkpt>
      <trkpt lat="28.37023" lon="83.81783">
        <ele>1383.47</ele>
        <time>2013-11-04T05:01:30Z</time>
      </trkpt>
      <trkpt lat="28.37021" lon="83.81784">
        <ele>1383.96</ele>
        <time>2013-11-04T05:01:35Z</time>
      </trkpt>
      <trkpt lat="28.37011" lon="83.81789">
        <ele>1382.99</ele>
        <time>2013-11-04T05:01:46Z</time>
      </trkpt>
      <trkpt lat="28.37009" lon="83.81789">
        <ele>1383.96</ele>
        <time>2013-11-04T05:01:59Z</time>
      </trkpt>
      <trkpt lat="28.37006" lon="83.8179">
        <ele>1384.44</ele>
        <time>2013-11-04T05:02:13Z</time>
      </trkpt>
      <trkpt lat="28.36993" lon="83.81793">
        <ele>1384.44</ele>
        <time>2013-11-04T05:02:25Z</time>
      </trkpt>
      <trkpt lat="28.36991" lon="83.81793">
        <ele>1383.96</ele>
        <time>2013-11-04T05:02:26Z</time>
      </trkpt>
      <trkpt lat="28.36984" lon="83.8179">
        <ele>1383.96</ele>
        <time>2013-11-04T05:02:31Z</time>
      </trkpt>
      <trkpt lat="28.36978" lon="83.81789">
        <ele>1383.47</ele>
        <time>2013-11-04T05:02:36Z</time>
      </trkpt>
      <trkpt lat="28.36961" lon="83.81783">
        <ele>1382.51</ele>
        <time>2013-11-04T05:02:49Z</time>
      </trkpt>
      <trkpt lat="28.36954" lon="83.81778">
        <ele>1382.99</ele>
        <time>2013-11-04T05:02:58Z</time>
      </trkpt>
      <trkpt lat="28.36944" lon="83.81772">
        <ele>1382.99</ele>
        <time>2013-11-04T05:03:09Z</time>
      </trkpt>
      <trkpt lat="28.36942" lon="83.81773">
        <ele>1383.47</ele>
        <time>2013-11-04T05:03:12Z</time>
      </trkpt>
      <trkpt lat="28.36937" lon="83.81772">
        <ele>1383.47</ele>
        <time>2013-11-04T05:03:17Z</time>
      </trkpt>
      <trkpt lat="28.36931" lon="83.81768">
        <ele>1383.47</ele>
        <time>2013-11-04T05:03:24Z</time>
      </trkpt>
      <trkpt lat="28.36927" lon="83.81765">
        <ele>1383.96</ele>
        <time>2013-11-04T05:03:30Z</time>
      </trkpt>
      <trkpt lat="28.36925" lon="83.81764">
        <ele>1384.44</ele>
        <time>2013-11-04T05:03:32Z</time>
      </trkpt>
      <trkpt lat="28.36923" lon="83.81762">
        <ele>1384.44</ele>
        <time>2013-11-04T05:03:35Z</time>
      </trkpt>
      <trkpt lat="28.36919" lon="83.81762">
        <ele>1384.44</ele>
        <time>2013-11-04T05:03:39Z</time>
      </trkpt>
      <trkpt lat="28.36909" lon="83.81762">
        <ele>1385.4</ele>
        <time>2013-11-04T05:03:52Z</time>
      </trkpt>
      <trkpt lat="28.36902" lon="83.81759">
        <ele>1386.36</ele>
        <time>2013-11-04T05:04:01Z</time>
      </trkpt>
      <trkpt lat="28.36899" lon="83.8176">
        <ele>1386.84</ele>
        <time>2013-11-04T05:04:04Z</time>
      </trkpt>
      <trkpt lat="28.36897" lon="83.81758">
        <ele>1386.84</ele>
        <time>2013-11-04T05:04:07Z</time>
      </trkpt>
      <trkpt lat="28.36894" lon="83.81755">
        <ele>1387.32</ele>
        <time>2013-11-04T05:04:11Z</time>
      </trkpt>
      <trkpt lat="28.36881" lon="83.8175">
        <ele>1386.36</ele>
        <time>2013-11-04T05:04:24Z</time>
      </trkpt>
      <trkpt lat="28.36876" lon="83.81747">
        <ele>1386.84</ele>
        <time>2013-11-04T05:04:32Z</time>
      </trkpt>
      <trkpt lat="28.36873" lon="83.81746">
        <ele>1385.4</ele>
        <time>2013-11-04T05:04:42Z</time>
      </trkpt>
      <trkpt lat="28.36869" lon="83.81745">
        <ele>1384.92</ele>
        <time>2013-11-04T05:04:45Z</time>
      </trkpt>
      <trkpt lat="28.36862" lon="83.81746">
        <ele>1383.96</ele>
        <time>2013-11-04T05:04:54Z</time>
      </trkpt>
      <trkpt lat="28.3686" lon="83.81746">
        <ele>1383.96</ele>
        <time>2013-11-04T05:04:56Z</time>
      </trkpt>
      <trkpt lat="28.36856" lon="83.81747">
        <ele>1382.99</ele>
        <time>2013-11-04T05:05:09Z</time>
      </trkpt>
      <trkpt lat="28.36847" lon="83.81752">
        <ele>1381.55</ele>
        <time>2013-11-04T05:05:22Z</time>
      </trkpt>
      <trkpt lat="28.36838" lon="83.81752">
        <ele>1382.03</ele>
        <time>2013-11-04T05:05:31Z</time>
      </trkpt>
      <trkpt lat="28.36832" lon="83.81754">
        <ele>1382.03</ele>
        <time>2013-11-04T05:05:38Z</time>
      </trkpt>
      <trkpt lat="28.36826" lon="83.81754">
        <ele>1381.55</ele>
        <time>2013-11-04T05:05:43Z</time>
      </trkpt>
      <trkpt lat="28.36816" lon="83.81751">
        <ele>1382.51</ele>
        <time>2013-11-04T05:05:54Z</time>
      </trkpt>
      <trkpt lat="28.36811" lon="83.81745">
        <ele>1382.03</ele>
        <time>2013-11-04T05:06:03Z</time>
      </trkpt>
      <trkpt lat="28.36801" lon="83.81733">
        <ele>1381.55</ele>
        <time>2013-11-04T05:06:17Z</time>
      </trkpt>
      <trkpt lat="28.36799" lon="83.81732">
        <ele>1382.51</ele>
        <time>2013-11-04T05:06:22Z</time>
      </trkpt>
      <trkpt lat="28.36793" lon="83.81731">
        <ele>1382.51</ele>
        <time>2013-11-04T05:06:28Z</time>
      </trkpt>
      <trkpt lat="28.36789" lon="83.81728">
        <ele>1382.51</ele>
        <time>2013-11-04T05:06:33Z</time>
      </trkpt>
      <trkpt lat="28.36785" lon="83.81722">
        <ele>1383.96</ele>
        <time>2013-11-04T05:06:45Z</time>
      </trkpt>
      <trkpt lat="28.36783" lon="83.81717">
        <ele>1384.44</ele>
        <time>2013-11-04T05:06:49Z</time>
      </trkpt>
      <trkpt lat="28.36777" lon="83.81713">
        <ele>1384.44</ele>
        <time>2013-11-04T05:06:56Z</time>
      </trkpt>
      <trkpt lat="28.36764" lon="83.81713">
        <ele>1384.92</ele>
        <time>2013-11-04T05:07:08Z</time>
      </trkpt>
      <trkpt lat="28.36759" lon="83.81709">
        <ele>1385.4</ele>
        <time>2013-11-04T05:07:18Z</time>
      </trkpt>
      <trkpt lat="28.3675" lon="83.81711">
        <ele>1385.88</ele>
        <time>2013-11-04T05:07:30Z</time>
      </trkpt>
      <trkpt lat="28.36742" lon="83.81717">
        <ele>1384.92</ele>
        <time>2013-11-04T05:07:41Z</time>
      </trkpt>
      <trkpt lat="28.36734" lon="83.8172">
        <ele>1385.4</ele>
        <time>2013-11-04T05:07:52Z</time>
      </trkpt>
      <trkpt lat="28.36725" lon="83.8172">
        <ele>1386.84</ele>
        <time>2013-11-04T05:08:04Z</time>
      </trkpt>
      <trkpt lat="28.36723" lon="83.81722">
        <ele>1386.36</ele>
        <time>2013-11-04T05:08:07Z</time>
      </trkpt>
      <trkpt lat="28.36717" lon="83.81723">
        <ele>1387.8</ele>
        <time>2013-11-04T05:08:20Z</time>
      </trkpt>
      <trkpt lat="28.36711" lon="83.81715">
        <ele>1388.28</ele>
        <time>2013-11-04T05:08:32Z</time>
      </trkpt>
      <trkpt lat="28.36703" lon="83.81707">
        <ele>1386.84</ele>
        <time>2013-11-04T05:08:46Z</time>
      </trkpt>
      <trkpt lat="28.36702" lon="83.81705">
        <ele>1384.44</ele>
        <time>2013-11-04T05:08:57Z</time>
      </trkpt>
      <trkpt lat="28.36699" lon="83.81704">
        <ele>1381.07</ele>
        <time>2013-11-04T05:09:12Z</time>
      </trkpt>
      <trkpt lat="28.36698" lon="83.81703">
        <ele>1380.59</ele>
        <time>2013-11-04T05:09:15Z</time>
      </trkpt>
      <trkpt lat="28.36694" lon="83.81701">
        <ele>1380.11</ele>
        <time>2013-11-04T05:09:18Z</time>
      </trkpt>
      <trkpt lat="28.36686" lon="83.81688">
        <ele>1380.11</ele>
        <time>2013-11-04T05:09:32Z</time>
      </trkpt>
      <trkpt lat="28.36685" lon="83.81687">
        <ele>1379.63</ele>
        <time>2013-11-04T05:09:33Z</time>
      </trkpt>
      <trkpt lat="28.36677" lon="83.8168">
        <ele>1380.11</ele>
        <time>2013-11-04T05:09:47Z</time>
      </trkpt>
      <trkpt lat="28.36667" lon="83.81675">
        <ele>1381.07</ele>
        <time>2013-11-04T05:10:00Z</time>
      </trkpt>
      <trkpt lat="28.36665" lon="83.8167">
        <ele>1381.55</ele>
        <time>2013-11-04T05:10:15Z</time>
      </trkpt>
      <trkpt lat="28.36662" lon="83.8167">
        <ele>1382.51</ele>
        <time>2013-11-04T05:10:30Z</time>
      </trkpt>
      <trkpt lat="28.36657" lon="83.81671">
        <ele>1383.47</ele>
        <time>2013-11-04T05:10:36Z</time>
      </trkpt>
      <trkpt lat="28.36644" lon="83.81673">
        <ele>1384.44</ele>
        <time>2013-11-04T05:10:49Z</time>
      </trkpt>
      <trkpt lat="28.36638" lon="83.81673">
        <ele>1384.44</ele>
        <time>2013-11-04T05:11:03Z</time>
      </trkpt>
      <trkpt lat="28.36629" lon="83.81668">
        <ele>1384.92</ele>
        <time>2013-11-04T05:11:17Z</time>
      </trkpt>
      <trkpt lat="28.36619" lon="83.81663">
        <ele>1385.88</ele>
        <time>2013-11-04T05:11:31Z</time>
      </trkpt>
      <trkpt lat="28.36615" lon="83.81661">
        <ele>1387.8</ele>
        <time>2013-11-04T05:11:45Z</time>
      </trkpt>
      <trkpt lat="28.36613" lon="83.81661">
        <ele>1388.28</ele>
        <time>2013-11-04T05:11:50Z</time>
      </trkpt>
      <trkpt lat="28.36608" lon="83.81655">
        <ele>1390.2</ele>
        <time>2013-11-04T05:12:02Z</time>
      </trkpt>
      <trkpt lat="28.36605" lon="83.81654">
        <ele>1392.13</ele>
        <time>2013-11-04T05:12:16Z</time>
      </trkpt>
      <trkpt lat="28.36596" lon="83.81655">
        <ele>1393.09</ele>
        <time>2013-11-04T05:12:30Z</time>
      </trkpt>
      <trkpt lat="28.36588" lon="83.81653">
        <ele>1394.53</ele>
        <time>2013-11-04T05:12:41Z</time>
      </trkpt>
      <trkpt lat="28.3658" lon="83.81652">
        <ele>1395.01</ele>
        <time>2013-11-04T05:12:48Z</time>
      </trkpt>
      <trkpt lat="28.36568" lon="83.81656">
        <ele>1395.01</ele>
        <time>2013-11-04T05:13:01Z</time>
      </trkpt>
      <trkpt lat="28.36567" lon="83.81657">
        <ele>1395.49</ele>
        <time>2013-11-04T05:13:07Z</time>
      </trkpt>
      <trkpt lat="28.36559" lon="83.81661">
        <ele>1395.49</ele>
        <time>2013-11-04T05:13:20Z</time>
      </trkpt>
      <trkpt lat="28.36556" lon="83.8166">
        <ele>1395.49</ele>
        <time>2013-11-04T05:13:39Z</time>
      </trkpt>
      <trkpt lat="28.36553" lon="83.81664">
        <ele>1395.97</ele>
        <time>2013-11-04T05:13:51Z</time>
      </trkpt>
      <trkpt lat="28.36547" lon="83.81666">
        <ele>1397.89</ele>
        <time>2013-11-04T05:14:06Z</time>
      </trkpt>
      <trkpt lat="28.36544" lon="83.81668">
        <ele>1399.82</ele>
        <time>2013-11-04T05:14:21Z</time>
      </trkpt>
      <trkpt lat="28.36542" lon="83.81669">
        <ele>1401.74</ele>
        <time>2013-11-04T05:14:35Z</time>
      </trkpt>
      <trkpt lat="28.3654" lon="83.8167">
        <ele>1403.18</ele>
        <time>2013-11-04T05:14:49Z</time>
      </trkpt>
      <trkpt lat="28.36532" lon="83.81672">
        <ele>1405.1</ele>
        <time>2013-11-04T05:15:04Z</time>
      </trkpt>
      <trkpt lat="28.36526" lon="83.8168">
        <ele>1406.55</ele>
        <time>2013-11-04T05:15:18Z</time>
      </trkpt>
      <trkpt lat="28.36517" lon="83.81685">
        <ele>1406.55</ele>
        <time>2013-11-04T05:15:32Z</time>
      </trkpt>
      <trkpt lat="28.36513" lon="83.81687">
        <ele>1407.51</ele>
        <time>2013-11-04T05:15:41Z</time>
      </trkpt>
      <trkpt lat="28.36507" lon="83.81692">
        <ele>1407.03</ele>
        <time>2013-11-04T05:15:46Z</time>
      </trkpt>
      <trkpt lat="28.36495" lon="83.81692">
        <ele>1407.99</ele>
        <time>2013-11-04T05:15:57Z</time>
      </trkpt>
      <trkpt lat="28.36486" lon="83.81691">
        <ele>1407.99</ele>
        <time>2013-11-04T05:16:07Z</time>
      </trkpt>
      <trkpt lat="28.36484" lon="83.81689">
        <ele>1407.51</ele>
        <time>2013-11-04T05:16:10Z</time>
      </trkpt>
      <trkpt lat="28.36476" lon="83.81687">
        <ele>1407.51</ele>
        <time>2013-11-04T05:16:19Z</time>
      </trkpt>
      <trkpt lat="28.3647" lon="83.81686">
        <ele>1407.51</ele>
        <time>2013-11-04T05:16:25Z</time>
      </trkpt>
      <trkpt lat="28.36467" lon="83.81683">
        <ele>1407.51</ele>
        <time>2013-11-04T05:16:30Z</time>
      </trkpt>
      <trkpt lat="28.36461" lon="83.81679">
        <ele>1407.03</ele>
        <time>2013-11-04T05:16:37Z</time>
      </trkpt>
      <trkpt lat="28.36456" lon="83.81668">
        <ele>1406.07</ele>
        <time>2013-11-04T05:16:52Z</time>
      </trkpt>
      <trkpt lat="28.36455" lon="83.81658">
        <ele>1404.14</ele>
        <time>2013-11-04T05:17:08Z</time>
      </trkpt>
      <trkpt lat="28.36452" lon="83.81656">
        <ele>1401.74</ele>
        <time>2013-11-04T05:17:22Z</time>
      </trkpt>
      <trkpt lat="28.36451" lon="83.81652">
        <ele>1399.34</ele>
        <time>2013-11-04T05:17:37Z</time>
      </trkpt>
      <trkpt lat="28.36445" lon="83.81641">
        <ele>1398.86</ele>
        <time>2013-11-04T05:17:48Z</time>
      </trkpt>
      <trkpt lat="28.36444" lon="83.81638">
        <ele>1398.86</ele>
        <time>2013-11-04T05:17:57Z</time>
      </trkpt>
      <trkpt lat="28.36439" lon="83.81639">
        <ele>1398.86</ele>
        <time>2013-11-04T05:18:11Z</time>
      </trkpt>
      <trkpt lat="28.36438" lon="83.81639">
        <ele>1398.37</ele>
        <time>2013-11-04T05:18:23Z</time>
      </trkpt>
      <trkpt lat="28.3643" lon="83.81639">
        <ele>1397.89</ele>
        <time>2013-11-04T05:18:31Z</time>
      </trkpt>
      <trkpt lat="28.36415" lon="83.81636">
        <ele>1397.89</ele>
        <time>2013-11-04T05:18:44Z</time>
      </trkpt>
      <trkpt lat="28.36402" lon="83.81631">
        <ele>1398.86</ele>
        <time>2013-11-04T05:18:58Z</time>
      </trkpt>
      <trkpt lat="28.36401" lon="83.8163">
        <ele>1398.86</ele>
        <time>2013-11-04T05:18:59Z</time>
      </trkpt>
      <trkpt lat="28.36388" lon="83.81625">
        <ele>1398.37</ele>
        <time>2013-11-04T05:19:11Z</time>
      </trkpt>
      <trkpt lat="28.36377" lon="83.81622">
        <ele>1397.89</ele>
        <time>2013-11-04T05:19:22Z</time>
      </trkpt>
      <trkpt lat="28.36374" lon="83.81622">
        <ele>1397.41</ele>
        <time>2013-11-04T05:19:25Z</time>
      </trkpt>
      <trkpt lat="28.36363" lon="83.81617">
        <ele>1397.41</ele>
        <time>2013-11-04T05:19:36Z</time>
      </trkpt>
      <trkpt lat="28.36355" lon="83.81608">
        <ele>1398.37</ele>
        <time>2013-11-04T05:19:49Z</time>
      </trkpt>
      <trkpt lat="28.36346" lon="83.81601">
        <ele>1397.89</ele>
        <time>2013-11-04T05:20:03Z</time>
      </trkpt>
      <trkpt lat="28.36345" lon="83.81601">
        <ele>1396.93</ele>
        <time>2013-11-04T05:20:08Z</time>
      </trkpt>
      <trkpt lat="28.36338" lon="83.81598">
        <ele>1395.49</ele>
        <time>2013-11-04T05:20:23Z</time>
      </trkpt>
      <trkpt lat="28.36333" lon="83.81592">
        <ele>1392.61</ele>
        <time>2013-11-04T05:20:38Z</time>
      </trkpt>
      <trkpt lat="28.3632" lon="83.81581">
        <ele>1390.68</ele>
        <time>2013-11-04T05:20:52Z</time>
      </trkpt>
      <trkpt lat="28.36314" lon="83.81576">
        <ele>1391.17</ele>
        <time>2013-11-04T05:21:00Z</time>
      </trkpt>
      <trkpt lat="28.36304" lon="83.81569">
        <ele>1392.61</ele>
        <time>2013-11-04T05:21:13Z</time>
      </trkpt>
      <trkpt lat="28.36292" lon="83.81569">
        <ele>1394.05</ele>
        <time>2013-11-04T05:21:27Z</time>
      </trkpt>
      <trkpt lat="28.36284" lon="83.81571">
        <ele>1395.49</ele>
        <time>2013-11-04T05:21:38Z</time>
      </trkpt>
      <trkpt lat="28.36281" lon="83.81574">
        <ele>1395.97</ele>
        <time>2013-11-04T05:21:42Z</time>
      </trkpt>
      <trkpt lat="28.36272" lon="83.81579">
        <ele>1396.93</ele>
        <time>2013-11-04T05:21:55Z</time>
      </trkpt>
      <trkpt lat="28.36264" lon="83.81575">
        <ele>1397.89</ele>
        <time>2013-11-04T05:22:07Z</time>
      </trkpt>
      <trkpt lat="28.36258" lon="83.81571">
        <ele>1398.86</ele>
        <time>2013-11-04T05:22:22Z</time>
      </trkpt>
      <trkpt lat="28.36258" lon="83.81571">
        <ele>1398.37</ele>
        <time>2013-11-04T05:22:44Z</time>
      </trkpt>
      <trkpt lat="28.36257" lon="83.81574">
        <ele>1398.86</ele>
        <time>2013-11-04T05:22:59Z</time>
      </trkpt>
      <trkpt lat="28.36256" lon="83.81569">
        <ele>1397.89</ele>
        <time>2013-11-04T05:23:11Z</time>
      </trkpt>
      <trkpt lat="28.36253" lon="83.81561">
        <ele>1395.49</ele>
        <time>2013-11-04T05:23:22Z</time>
      </trkpt>
      <trkpt lat="28.36248" lon="83.81551">
        <ele>1393.09</ele>
        <time>2013-11-04T05:23:33Z</time>
      </trkpt>
      <trkpt lat="28.36246" lon="83.81544">
        <ele>1391.65</ele>
        <time>2013-11-04T05:23:43Z</time>
      </trkpt>
      <trkpt lat="28.36246" lon="83.81541">
        <ele>1390.68</ele>
        <time>2013-11-04T05:23:46Z</time>
      </trkpt>
      <trkpt lat="28.36242" lon="83.81526">
        <ele>1390.68</ele>
        <time>2013-11-04T05:23:58Z</time>
      </trkpt>
      <trkpt lat="28.3624" lon="83.81521">
        <ele>1391.17</ele>
        <time>2013-11-04T05:24:04Z</time>
      </trkpt>
      <trkpt lat="28.36235" lon="83.81505">
        <ele>1391.65</ele>
        <time>2013-11-04T05:24:19Z</time>
      </trkpt>
      <trkpt lat="28.36235" lon="83.81502">
        <ele>1391.65</ele>
        <time>2013-11-04T05:24:21Z</time>
      </trkpt>
      <trkpt lat="28.36234" lon="83.81493">
        <ele>1391.17</ele>
        <time>2013-11-04T05:24:32Z</time>
      </trkpt>
      <trkpt lat="28.36229" lon="83.81484">
        <ele>1392.13</ele>
        <time>2013-11-04T05:24:48Z</time>
      </trkpt>
      <trkpt lat="28.36222" lon="83.81471">
        <ele>1392.13</ele>
        <time>2013-11-04T05:25:05Z</time>
      </trkpt>
      <trkpt lat="28.36216" lon="83.81464">
        <ele>1392.13</ele>
        <time>2013-11-04T05:25:20Z</time>
      </trkpt>
      <trkpt lat="28.36212" lon="83.8146">
        <ele>1390.2</ele>
        <time>2013-11-04T05:25:36Z</time>
      </trkpt>
      <trkpt lat="28.36209" lon="83.81455">
        <ele>1389.72</ele>
        <time>2013-11-04T05:25:51Z</time>
      </trkpt>
      <trkpt lat="28.36204" lon="83.81451">
        <ele>1389.72</ele>
        <time>2013-11-04T05:26:06Z</time>
      </trkpt>
      <trkpt lat="28.36199" lon="83.81449">
        <ele>1389.72</ele>
        <time>2013-11-04T05:26:22Z</time>
      </trkpt>
      <trkpt lat="28.36192" lon="83.81441">
        <ele>1390.68</ele>
        <time>2013-11-04T05:26:36Z</time>
      </trkpt>
      <trkpt lat="28.36186" lon="83.8143">
        <ele>1391.65</ele>
        <time>2013-11-04T05:26:50Z</time>
      </trkpt>
      <trkpt lat="28.36179" lon="83.81416">
        <ele>1390.68</ele>
        <time>2013-11-04T05:27:07Z</time>
      </trkpt>
      <trkpt lat="28.36177" lon="83.81408">
        <ele>1390.2</ele>
        <time>2013-11-04T05:27:17Z</time>
      </trkpt>
      <trkpt lat="28.36175" lon="83.814">
        <ele>1388.76</ele>
        <time>2013-11-04T05:27:25Z</time>
      </trkpt>
      <trkpt lat="28.36173" lon="83.81395">
        <ele>1388.28</ele>
        <time>2013-11-04T05:27:30Z</time>
      </trkpt>
      <trkpt lat="28.36171" lon="83.81383">
        <ele>1387.32</ele>
        <time>2013-11-04T05:27:43Z</time>
      </trkpt>
      <trkpt lat="28.3617" lon="83.81371">
        <ele>1387.8</ele>
        <time>2013-11-04T05:27:57Z</time>
      </trkpt>
      <trkpt lat="28.36169" lon="83.81359">
        <ele>1387.32</ele>
        <time>2013-11-04T05:28:10Z</time>
      </trkpt>
      <trkpt lat="28.36169" lon="83.8134">
        <ele>1387.8</ele>
        <time>2013-11-04T05:28:26Z</time>
      </trkpt>
      <trkpt lat="28.36167" lon="83.81328">
        <ele>1387.8</ele>
        <time>2013-11-04T05:28:38Z</time>
      </trkpt>
      <trkpt lat="28.36164" lon="83.81311">
        <ele>1388.28</ele>
        <time>2013-11-04T05:28:52Z</time>
      </trkpt>
      <trkpt lat="28.36164" lon="83.81305">
        <ele>1390.2</ele>
        <time>2013-11-04T05:29:05Z</time>
      </trkpt>
      <trkpt lat="28.36164" lon="83.81294">
        <ele>1390.2</ele>
        <time>2013-11-04T05:29:18Z</time>
      </trkpt>
      <trkpt lat="28.36165" lon="83.81282">
        <ele>1389.24</ele>
        <time>2013-11-04T05:29:27Z</time>
      </trkpt>
      <trkpt lat="28.36167" lon="83.81278">
        <ele>1389.24</ele>
        <time>2013-11-04T05:29:31Z</time>
      </trkpt>
      <trkpt lat="28.36169" lon="83.81249">
        <ele>1389.24</ele>
        <time>2013-11-04T05:29:47Z</time>
      </trkpt>
      <trkpt lat="28.3615" lon="83.81197">
        <ele>1389.24</ele>
        <time>2013-11-04T05:30:05Z</time>
      </trkpt>
      <trkpt lat="28.36152" lon="83.812">
        <ele>1388.28</ele>
        <time>2013-11-04T05:30:09Z</time>
      </trkpt>
      <trkpt lat="28.36169" lon="83.81223">
        <ele>1386.36</ele>
        <time>2013-11-04T05:30:21Z</time>
      </trkpt>
      <trkpt lat="28.36171" lon="83.81213">
        <ele>1384.92</ele>
        <time>2013-11-04T05:30:36Z</time>
      </trkpt>
      <trkpt lat="28.3617" lon="83.8121">
        <ele>1382.99</ele>
        <time>2013-11-04T05:30:54Z</time>
      </trkpt>
      <trkpt lat="28.36167" lon="83.81207">
        <ele>1381.07</ele>
        <time>2013-11-04T05:31:12Z</time>
      </trkpt>
      <trkpt lat="28.36161" lon="83.81199">
        <ele>1379.63</ele>
        <time>2013-11-04T05:31:26Z</time>
      </trkpt>
      <trkpt lat="28.36158" lon="83.81198">
        <ele>1378.67</ele>
        <time>2013-11-04T05:31:37Z</time>
      </trkpt>
      <trkpt lat="28.36152" lon="83.81195">
        <ele>1376.75</ele>
        <time>2013-11-04T05:31:56Z</time>
      </trkpt>
      <trkpt lat="28.36141" lon="83.81189">
        <ele>1377.71</ele>
        <time>2013-11-04T05:32:12Z</time>
      </trkpt>
      <trkpt lat="28.3613" lon="83.81193">
        <ele>1380.11</ele>
        <time>2013-11-04T05:32:24Z</time>
      </trkpt>
      <trkpt lat="28.36121" lon="83.81195">
        <ele>1381.55</ele>
        <time>2013-11-04T05:32:39Z</time>
      </trkpt>
      <trkpt lat="28.36122" lon="83.81193">
        <ele>1383.47</ele>
        <time>2013-11-04T05:32:45Z</time>
      </trkpt>
      <trkpt lat="28.36118" lon="83.81193">
        <ele>1383.47</ele>
        <time>2013-11-04T05:32:49Z</time>
      </trkpt>
      <trkpt lat="28.36113" lon="83.81189">
        <ele>1384.92</ele>
        <time>2013-11-04T05:32:59Z</time>
      </trkpt>
      <trkpt lat="28.36109" lon="83.81177">
        <ele>1386.84</ele>
        <time>2013-11-04T05:33:14Z</time>
      </trkpt>
      <trkpt lat="28.36108" lon="83.81168">
        <ele>1388.76</ele>
        <time>2013-11-04T05:33:26Z</time>
      </trkpt>
      <trkpt lat="28.36107" lon="83.81158">
        <ele>1390.2</ele>
        <time>2013-11-04T05:33:43Z</time>
      </trkpt>
      <trkpt lat="28.36105" lon="83.8115">
        <ele>1392.13</ele>
        <time>2013-11-04T05:33:59Z</time>
      </trkpt>
      <trkpt lat="28.36097" lon="83.81144">
        <ele>1393.09</ele>
        <time>2013-11-04T05:34:13Z</time>
      </trkpt>
      <trkpt lat="28.36095" lon="83.8114">
        <ele>1393.57</ele>
        <time>2013-11-04T05:34:18Z</time>
      </trkpt>
      <trkpt lat="28.36092" lon="83.81124">
        <ele>1394.05</ele>
        <time>2013-11-04T05:34:32Z</time>
      </trkpt>
      <trkpt lat="28.36092" lon="83.81112">
        <ele>1395.97</ele>
        <time>2013-11-04T05:34:48Z</time>
      </trkpt>
      <trkpt lat="28.36088" lon="83.81101">
        <ele>1395.01</ele>
        <time>2013-11-04T05:35:05Z</time>
      </trkpt>
      <trkpt lat="28.36079" lon="83.81094">
        <ele>1396.45</ele>
        <time>2013-11-04T05:35:17Z</time>
      </trkpt>
      <trkpt lat="28.36073" lon="83.8109">
        <ele>1395.97</ele>
        <time>2013-11-04T05:35:28Z</time>
      </trkpt>
      <trkpt lat="28.36072" lon="83.81087">
        <ele>1395.97</ele>
        <time>2013-11-04T05:35:41Z</time>
      </trkpt>
      <trkpt lat="28.3607" lon="83.81084">
        <ele>1393.09</ele>
        <time>2013-11-04T05:36:01Z</time>
      </trkpt>
      <trkpt lat="28.36069" lon="83.81082">
        <ele>1390.68</ele>
        <time>2013-11-04T05:36:17Z</time>
      </trkpt>
      <trkpt lat="28.36067" lon="83.81082">
        <ele>1388.76</ele>
        <time>2013-11-04T05:36:38Z</time>
      </trkpt>
      <trkpt lat="28.36061" lon="83.81084">
        <ele>1387.32</ele>
        <time>2013-11-04T05:36:50Z</time>
      </trkpt>
      <trkpt lat="28.36057" lon="83.81084">
        <ele>1386.84</ele>
        <time>2013-11-04T05:37:04Z</time>
      </trkpt>
      <trkpt lat="28.36049" lon="83.81087">
        <ele>1387.32</ele>
        <time>2013-11-04T05:37:16Z</time>
      </trkpt>
      <trkpt lat="28.36046" lon="83.81088">
        <ele>1388.28</ele>
        <time>2013-11-04T05:37:30Z</time>
      </trkpt>
      <trkpt lat="28.36045" lon="83.81092">
        <ele>1390.2</ele>
        <time>2013-11-04T05:37:45Z</time>
      </trkpt>
      <trkpt lat="28.36042" lon="83.81094">
        <ele>1393.09</ele>
        <time>2013-11-04T05:37:59Z</time>
      </trkpt>
      <trkpt lat="28.36038" lon="83.81094">
        <ele>1393.57</ele>
        <time>2013-11-04T05:38:13Z</time>
      </trkpt>
      <trkpt lat="28.36038" lon="83.81095">
        <ele>1393.09</ele>
        <time>2013-11-04T05:38:33Z</time>
      </trkpt>
      <trkpt lat="28.3604" lon="83.81092">
        <ele>1392.61</ele>
        <time>2013-11-04T05:38:51Z</time>
      </trkpt>
      <trkpt lat="28.36039" lon="83.81091">
        <ele>1392.61</ele>
        <time>2013-11-04T05:39:16Z</time>
      </trkpt>
      <trkpt lat="28.36038" lon="83.81094">
        <ele>1393.09</ele>
        <time>2013-11-04T05:39:31Z</time>
      </trkpt>
      <trkpt lat="28.36039" lon="83.81092">
        <ele>1393.57</ele>
        <time>2013-11-04T05:39:44Z</time>
      </trkpt>
      <trkpt lat="28.36038" lon="83.81093">
        <ele>1393.09</ele>
        <time>2013-11-04T05:39:47Z</time>
      </trkpt>
      <trkpt lat="28.36039" lon="83.811">
        <ele>1395.01</ele>
        <time>2013-11-04T05:39:51Z</time>
      </trkpt>
      <trkpt lat="28.36038" lon="83.81103">
        <ele>1395.97</ele>
        <time>2013-11-04T05:40:02Z</time>
      </trkpt>
      <trkpt lat="28.36037" lon="83.81112">
        <ele>1396.45</ele>
        <time>2013-11-04T05:40:18Z</time>
      </trkpt>
      <trkpt lat="28.36033" lon="83.81115">
        <ele>1395.49</ele>
        <time>2013-11-04T05:40:24Z</time>
      </trkpt>
      <trkpt lat="28.36018" lon="83.81129">
        <ele>1394.53</ele>
        <time>2013-11-04T05:40:38Z</time>
      </trkpt>
      <trkpt lat="28.36015" lon="83.81134">
        <ele>1392.61</ele>
        <time>2013-11-04T05:41:00Z</time>
      </trkpt>
      <trkpt lat="28.36007" lon="83.81136">
        <ele>1390.68</ele>
        <time>2013-11-04T05:41:15Z</time>
      </trkpt>
      <trkpt lat="28.36002" lon="83.81138">
        <ele>1390.68</ele>
        <time>2013-11-04T05:41:31Z</time>
      </trkpt>
      <trkpt lat="28.3599" lon="83.8113">
        <ele>1390.68</ele>
        <time>2013-11-04T05:41:45Z</time>
      </trkpt>
      <trkpt lat="28.35983" lon="83.81122">
        <ele>1389.24</ele>
        <time>2013-11-04T05:41:57Z</time>
      </trkpt>
      <trkpt lat="28.35969" lon="83.81116">
        <ele>1389.24</ele>
        <time>2013-11-04T05:42:14Z</time>
      </trkpt>
      <trkpt lat="28.35967" lon="83.81115">
        <ele>1389.72</ele>
        <time>2013-11-04T05:42:17Z</time>
      </trkpt>
      <trkpt lat="28.35952" lon="83.81107">
        <ele>1390.68</ele>
        <time>2013-11-04T05:42:31Z</time>
      </trkpt>
      <trkpt lat="28.35943" lon="83.81099">
        <ele>1387.8</ele>
        <time>2013-11-04T05:42:48Z</time>
      </trkpt>
      <trkpt lat="28.35941" lon="83.81098">
        <ele>1387.8</ele>
        <time>2013-11-04T05:42:50Z</time>
      </trkpt>
      <trkpt lat="28.35932" lon="83.81086">
        <ele>1387.8</ele>
        <time>2013-11-04T05:43:03Z</time>
      </trkpt>
      <trkpt lat="28.3593" lon="83.81081">
        <ele>1386.84</ele>
        <time>2013-11-04T05:43:09Z</time>
      </trkpt>
      <trkpt lat="28.35931" lon="83.81078">
        <ele>1385.88</ele>
        <time>2013-11-04T05:43:12Z</time>
      </trkpt>
      <trkpt lat="28.35924" lon="83.81075">
        <ele>1385.4</ele>
        <time>2013-11-04T05:43:20Z</time>
      </trkpt>
      <trkpt lat="28.35911" lon="83.81076">
        <ele>1383.96</ele>
        <time>2013-11-04T05:43:34Z</time>
      </trkpt>
      <trkpt lat="28.35905" lon="83.81072">
        <ele>1383.96</ele>
        <time>2013-11-04T05:43:43Z</time>
      </trkpt>
      <trkpt lat="28.35899" lon="83.81072">
        <ele>1382.03</ele>
        <time>2013-11-04T05:43:57Z</time>
      </trkpt>
      <trkpt lat="28.35899" lon="83.81075">
        <ele>1381.07</ele>
        <time>2013-11-04T05:44:01Z</time>
      </trkpt>
      <trkpt lat="28.35894" lon="83.81072">
        <ele>1379.63</ele>
        <time>2013-11-04T05:44:14Z</time>
      </trkpt>
      <trkpt lat="28.35891" lon="83.81078">
        <ele>1377.71</ele>
        <time>2013-11-04T05:44:26Z</time>
      </trkpt>
      <trkpt lat="28.35889" lon="83.81083">
        <ele>1377.23</ele>
        <time>2013-11-04T05:44:45Z</time>
      </trkpt>
      <trkpt lat="28.35888" lon="83.81083">
        <ele>1377.23</ele>
        <time>2013-11-04T05:45:06Z</time>
      </trkpt>
      <trkpt lat="28.35888" lon="83.81083">
        <ele>1377.23</ele>
        <time>2013-11-04T05:45:33Z</time>
      </trkpt>
      <trkpt lat="28.35882" lon="83.81086">
        <ele>1377.71</ele>
        <time>2013-11-04T05:45:44Z</time>
      </trkpt>
      <trkpt lat="28.3588" lon="83.81088">
        <ele>1377.23</ele>
        <time>2013-11-04T05:45:47Z</time>
      </trkpt>
      <trkpt lat="28.35869" lon="83.811">
        <ele>1376.26</ele>
        <time>2013-11-04T05:46:00Z</time>
      </trkpt>
      <trkpt lat="28.35863" lon="83.81104">
        <ele>1375.78</ele>
        <time>2013-11-04T05:46:15Z</time>
      </trkpt>
      <trkpt lat="28.35861" lon="83.81104">
        <ele>1376.26</ele>
        <time>2013-11-04T05:46:17Z</time>
      </trkpt>
      <trkpt lat="28.35846" lon="83.81106">
        <ele>1375.3</ele>
        <time>2013-11-04T05:46:30Z</time>
      </trkpt>
      <trkpt lat="28.3583" lon="83.8111">
        <ele>1374.82</ele>
        <time>2013-11-04T05:46:42Z</time>
      </trkpt>
      <trkpt lat="28.35814" lon="83.81113">
        <ele>1373.38</ele>
        <time>2013-11-04T05:46:56Z</time>
      </trkpt>
      <trkpt lat="28.35799" lon="83.81114">
        <ele>1372.9</ele>
        <time>2013-11-04T05:47:07Z</time>
      </trkpt>
      <trkpt lat="28.35789" lon="83.81116">
        <ele>1372.42</ele>
        <time>2013-11-04T05:47:17Z</time>
      </trkpt>
      <trkpt lat="28.35774" lon="83.81119">
        <ele>1372.9</ele>
        <time>2013-11-04T05:47:30Z</time>
      </trkpt>
      <trkpt lat="28.35757" lon="83.81119">
        <ele>1371.94</ele>
        <time>2013-11-04T05:47:46Z</time>
      </trkpt>
      <trkpt lat="28.35743" lon="83.81114">
        <ele>1372.42</ele>
        <time>2013-11-04T05:48:01Z</time>
      </trkpt>
      <trkpt lat="28.35732" lon="83.8111">
        <ele>1373.38</ele>
        <time>2013-11-04T05:48:12Z</time>
      </trkpt>
      <trkpt lat="28.35715" lon="83.81113">
        <ele>1374.82</ele>
        <time>2013-11-04T05:48:27Z</time>
      </trkpt>
      <trkpt lat="28.35709" lon="83.81118">
        <ele>1375.3</ele>
        <time>2013-11-04T05:48:33Z</time>
      </trkpt>
      <trkpt lat="28.35704" lon="83.81122">
        <ele>1376.26</ele>
        <time>2013-11-04T05:48:37Z</time>
      </trkpt>
      <trkpt lat="28.35698" lon="83.81127">
        <ele>1376.75</ele>
        <time>2013-11-04T05:48:43Z</time>
      </trkpt>
      <trkpt lat="28.35695" lon="83.81129">
        <ele>1376.75</ele>
        <time>2013-11-04T05:48:47Z</time>
      </trkpt>
      <trkpt lat="28.35693" lon="83.81129">
        <ele>1377.23</ele>
        <time>2013-11-04T05:48:49Z</time>
      </trkpt>
      <trkpt lat="28.35687" lon="83.81131">
        <ele>1377.71</ele>
        <time>2013-11-04T05:48:55Z</time>
      </trkpt>
      <trkpt lat="28.35682" lon="83.81132">
        <ele>1377.23</ele>
        <time>2013-11-04T05:49:01Z</time>
      </trkpt>
      <trkpt lat="28.35669" lon="83.81124">
        <ele>1377.71</ele>
        <time>2013-11-04T05:49:16Z</time>
      </trkpt>
      <trkpt lat="28.35661" lon="83.81115">
        <ele>1377.71</ele>
        <time>2013-11-04T05:49:29Z</time>
      </trkpt>
      <trkpt lat="28.35657" lon="83.8111">
        <ele>1377.71</ele>
        <time>2013-11-04T05:49:41Z</time>
      </trkpt>
      <trkpt lat="28.35656" lon="83.81112">
        <ele>1377.23</ele>
        <time>2013-11-04T05:49:57Z</time>
      </trkpt>
      <trkpt lat="28.35654" lon="83.8111">
        <ele>1377.71</ele>
        <time>2013-11-04T05:50:01Z</time>
      </trkpt>
      <trkpt lat="28.35651" lon="83.81109">
        <ele>1377.71</ele>
        <time>2013-11-04T05:50:06Z</time>
      </trkpt>
      <trkpt lat="28.35643" lon="83.81104">
        <ele>1377.23</ele>
        <time>2013-11-04T05:50:20Z</time>
      </trkpt>
      <trkpt lat="28.35641" lon="83.81105">
        <ele>1378.19</ele>
        <time>2013-11-04T05:50:35Z</time>
      </trkpt>
      <trkpt lat="28.35635" lon="83.81105">
        <ele>1378.19</ele>
        <time>2013-11-04T05:50:47Z</time>
      </trkpt>
      <trkpt lat="28.35624" lon="83.81102">
        <ele>1379.15</ele>
        <time>2013-11-04T05:50:59Z</time>
      </trkpt>
      <trkpt lat="28.35615" lon="83.81103">
        <ele>1380.59</ele>
        <time>2013-11-04T05:51:10Z</time>
      </trkpt>
      <trkpt lat="28.35613" lon="83.81105">
        <ele>1380.11</ele>
        <time>2013-11-04T05:51:28Z</time>
      </trkpt>
      <trkpt lat="28.35613" lon="83.81107">
        <ele>1380.11</ele>
        <time>2013-11-04T05:51:45Z</time>
      </trkpt>
      <trkpt lat="28.35613" lon="83.81107">
        <ele>1380.11</ele>
        <time>2013-11-04T05:52:08Z</time>
      </trkpt>
      <trkpt lat="28.35612" lon="83.81108">
        <ele>1379.63</ele>
        <time>2013-11-04T05:52:33Z</time>
      </trkpt>
      <trkpt lat="28.35604" lon="83.81108">
        <ele>1381.07</ele>
        <time>2013-11-04T05:52:44Z</time>
      </trkpt>
      <trkpt lat="28.35589" lon="83.81114">
        <ele>1382.03</ele>
        <time>2013-11-04T05:52:56Z</time>
      </trkpt>
      <trkpt lat="28.35582" lon="83.81117">
        <ele>1382.51</ele>
        <time>2013-11-04T05:53:01Z</time>
      </trkpt>
      <trkpt lat="28.3557" lon="83.81122">
        <ele>1383.96</ele>
        <time>2013-11-04T05:53:13Z</time>
      </trkpt>
      <trkpt lat="28.35554" lon="83.81125">
        <ele>1385.88</ele>
        <time>2013-11-04T05:53:26Z</time>
      </trkpt>
      <trkpt lat="28.35543" lon="83.8112">
        <ele>1386.36</ele>
        <time>2013-11-04T05:53:35Z</time>
      </trkpt>
      <trkpt lat="28.35533" lon="83.81108">
        <ele>1386.84</ele>
        <time>2013-11-04T05:53:47Z</time>
      </trkpt>
      <trkpt lat="28.35524" lon="83.81095">
        <ele>1386.84</ele>
        <time>2013-11-04T05:54:00Z</time>
      </trkpt>
      <trkpt lat="28.35515" lon="83.81081">
        <ele>1387.8</ele>
        <time>2013-11-04T05:54:13Z</time>
      </trkpt>
      <trkpt lat="28.35513" lon="83.81075">
        <ele>1388.28</ele>
        <time>2013-11-04T05:54:36Z</time>
      </trkpt>
      <trkpt lat="28.35502" lon="83.81061">
        <ele>1389.24</ele>
        <time>2013-11-04T05:54:51Z</time>
      </trkpt>
      <trkpt lat="28.35501" lon="83.8106">
        <ele>1389.24</ele>
        <time>2013-11-04T05:54:52Z</time>
      </trkpt>
      <trkpt lat="28.35489" lon="83.81048">
        <ele>1389.72</ele>
        <time>2013-11-04T05:55:04Z</time>
      </trkpt>
      <trkpt lat="28.35476" lon="83.81037">
        <ele>1390.2</ele>
        <time>2013-11-04T05:55:17Z</time>
      </trkpt>
      <trkpt lat="28.35461" lon="83.81023">
        <ele>1389.72</ele>
        <time>2013-11-04T05:55:32Z</time>
      </trkpt>
      <trkpt lat="28.35452" lon="83.81015">
        <ele>1390.68</ele>
        <time>2013-11-04T05:55:40Z</time>
      </trkpt>
      <trkpt lat="28.35441" lon="83.81">
        <ele>1391.65</ele>
        <time>2013-11-04T05:55:55Z</time>
      </trkpt>
      <trkpt lat="28.35437" lon="83.80993">
        <ele>1392.13</ele>
        <time>2013-11-04T05:56:01Z</time>
      </trkpt>
      <trkpt lat="28.35421" lon="83.80987">
        <ele>1393.57</ele>
        <time>2013-11-04T05:56:15Z</time>
      </trkpt>
      <trkpt lat="28.35415" lon="83.80988">
        <ele>1394.53</ele>
        <time>2013-11-04T05:56:21Z</time>
      </trkpt>
      <trkpt lat="28.35402" lon="83.80992">
        <ele>1396.45</ele>
        <time>2013-11-04T05:56:33Z</time>
      </trkpt>
      <trkpt lat="28.35383" lon="83.80989">
        <ele>1397.89</ele>
        <time>2013-11-04T05:56:49Z</time>
      </trkpt>
      <trkpt lat="28.35373" lon="83.80985">
        <ele>1398.37</ele>
        <time>2013-11-04T05:56:58Z</time>
      </trkpt>
      <trkpt lat="28.35366" lon="83.80971">
        <ele>1398.37</ele>
        <time>2013-11-04T05:57:11Z</time>
      </trkpt>
      <trkpt lat="28.3536" lon="83.80956">
        <ele>1397.41</ele>
        <time>2013-11-04T05:57:24Z</time>
      </trkpt>
      <trkpt lat="28.35352" lon="83.80944">
        <ele>1396.45</ele>
        <time>2013-11-04T05:57:36Z</time>
      </trkpt>
      <trkpt lat="28.3535" lon="83.80941">
        <ele>1396.45</ele>
        <time>2013-11-04T05:57:39Z</time>
      </trkpt>
      <trkpt lat="28.35348" lon="83.80939">
        <ele>1395.97</ele>
        <time>2013-11-04T05:57:41Z</time>
      </trkpt>
      <trkpt lat="28.3534" lon="83.80934">
        <ele>1397.41</ele>
        <time>2013-11-04T05:57:51Z</time>
      </trkpt>
      <trkpt lat="28.35335" lon="83.8094">
        <ele>1398.86</ele>
        <time>2013-11-04T05:58:04Z</time>
      </trkpt>
      <trkpt lat="28.35331" lon="83.80948">
        <ele>1397.89</ele>
        <time>2013-11-04T05:58:11Z</time>
      </trkpt>
      <trkpt lat="28.35321" lon="83.80952">
        <ele>1396.93</ele>
        <time>2013-11-04T05:58:24Z</time>
      </trkpt>
      <trkpt lat="28.35319" lon="83.80956">
        <ele>1396.93</ele>
        <time>2013-11-04T05:58:49Z</time>
      </trkpt>
      <trkpt lat="28.35317" lon="83.80958">
        <ele>1396.45</ele>
        <time>2013-11-04T05:59:15Z</time>
      </trkpt>
      <trkpt lat="28.35314" lon="83.80948">
        <ele>1395.01</ele>
        <time>2013-11-04T05:59:30Z</time>
      </trkpt>
      <trkpt lat="28.35307" lon="83.80942">
        <ele>1394.05</ele>
        <time>2013-11-04T05:59:44Z</time>
      </trkpt>
      <trkpt lat="28.35306" lon="83.80943">
        <ele>1393.57</ele>
        <time>2013-11-04T06:00:07Z</time>
      </trkpt>
      <trkpt lat="28.35305" lon="83.80943">
        <ele>1393.57</ele>
        <time>2013-11-04T06:00:32Z</time>
      </trkpt>
      <trkpt lat="28.35304" lon="83.80942">
        <ele>1393.09</ele>
        <time>2013-11-04T06:00:40Z</time>
      </trkpt>
      <trkpt lat="28.35302" lon="83.80941">
        <ele>1393.09</ele>
        <time>2013-11-04T06:00:42Z</time>
      </trkpt>
      <trkpt lat="28.353" lon="83.80934">
        <ele>1392.61</ele>
        <time>2013-11-04T06:00:47Z</time>
      </trkpt>
      <trkpt lat="28.35292" lon="83.80925">
        <ele>1390.68</ele>
        <time>2013-11-04T06:01:00Z</time>
      </trkpt>
      <trkpt lat="28.35287" lon="83.80921">
        <ele>1390.2</ele>
        <time>2013-11-04T06:01:05Z</time>
      </trkpt>
      <trkpt lat="28.35284" lon="83.8092">
        <ele>1390.2</ele>
        <time>2013-11-04T06:01:08Z</time>
      </trkpt>
      <trkpt lat="28.35274" lon="83.80917">
        <ele>1388.76</ele>
        <time>2013-11-04T06:01:22Z</time>
      </trkpt>
      <trkpt lat="28.35269" lon="83.80913">
        <ele>1387.8</ele>
        <time>2013-11-04T06:01:38Z</time>
      </trkpt>
      <trkpt lat="28.35269" lon="83.80915">
        <ele>1387.32</ele>
        <time>2013-11-04T06:01:56Z</time>
      </trkpt>
      <trkpt lat="28.35271" lon="83.80912">
        <ele>1386.84</ele>
        <time>2013-11-04T06:02:19Z</time>
      </trkpt>
      <trkpt lat="28.35273" lon="83.80912">
        <ele>1386.84</ele>
        <time>2013-11-04T06:02:31Z</time>
      </trkpt>
      <trkpt lat="28.35274" lon="83.80911">
        <ele>1386.84</ele>
        <time>2013-11-04T06:02:57Z</time>
      </trkpt>
      <trkpt lat="28.35267" lon="83.80913">
        <ele>1385.88</ele>
        <time>2013-11-04T06:03:27Z</time>
      </trkpt>
      <trkpt lat="28.35248" lon="83.80909">
        <ele>1382.99</ele>
        <time>2013-11-04T06:03:39Z</time>
      </trkpt>
      <trkpt lat="28.3523" lon="83.80907">
        <ele>1380.59</ele>
        <time>2013-11-04T06:03:52Z</time>
      </trkpt>
      <trkpt lat="28.35229" lon="83.80907">
        <ele>1380.59</ele>
        <time>2013-11-04T06:03:53Z</time>
      </trkpt>
      <trkpt lat="28.35225" lon="83.80905">
        <ele>1379.63</ele>
        <time>2013-11-04T06:03:56Z</time>
      </trkpt>
      <trkpt lat="28.35211" lon="83.80907">
        <ele>1376.75</ele>
        <time>2013-11-04T06:04:07Z</time>
      </trkpt>
      <trkpt lat="28.35198" lon="83.80907">
        <ele>1375.3</ele>
        <time>2013-11-04T06:04:17Z</time>
      </trkpt>
      <trkpt lat="28.35195" lon="83.80908">
        <ele>1374.34</ele>
        <time>2013-11-04T06:04:20Z</time>
      </trkpt>
      <trkpt lat="28.35182" lon="83.80913">
        <ele>1372.9</ele>
        <time>2013-11-04T06:04:29Z</time>
      </trkpt>
      <trkpt lat="28.35179" lon="83.80913">
        <ele>1372.9</ele>
        <time>2013-11-04T06:04:31Z</time>
      </trkpt>
      <trkpt lat="28.35172" lon="83.80913">
        <ele>1371.94</ele>
        <time>2013-11-04T06:04:35Z</time>
      </trkpt>
      <trkpt lat="28.3515" lon="83.80917">
        <ele>1369.54</ele>
        <time>2013-11-04T06:04:51Z</time>
      </trkpt>
      <trkpt lat="28.3513" lon="83.80925">
        <ele>1368.57</ele>
        <time>2013-11-04T06:05:04Z</time>
      </trkpt>
      <trkpt lat="28.35107" lon="83.80934">
        <ele>1365.69</ele>
        <time>2013-11-04T06:05:19Z</time>
      </trkpt>
      <trkpt lat="28.35087" lon="83.80944">
        <ele>1363.77</ele>
        <time>2013-11-04T06:05:32Z</time>
      </trkpt>
      <trkpt lat="28.35083" lon="83.80932">
        <ele>1361.36</ele>
        <time>2013-11-04T06:05:41Z</time>
      </trkpt>
      <trkpt lat="28.35081" lon="83.80924">
        <ele>1360.4</ele>
        <time>2013-11-04T06:05:48Z</time>
      </trkpt>
      <trkpt lat="28.35076" lon="83.80906">
        <ele>1358.48</ele>
        <time>2013-11-04T06:06:02Z</time>
      </trkpt>
      <trkpt lat="28.35071" lon="83.80891">
        <ele>1356.08</ele>
        <time>2013-11-04T06:06:15Z</time>
      </trkpt>
      <trkpt lat="28.3507" lon="83.8089">
        <ele>1356.08</ele>
        <time>2013-11-04T06:06:16Z</time>
      </trkpt>
      <trkpt lat="28.35064" lon="83.80888">
        <ele>1355.6</ele>
        <time>2013-11-04T06:06:20Z</time>
      </trkpt>
      <trkpt lat="28.35058" lon="83.80884">
        <ele>1354.15</ele>
        <time>2013-11-04T06:06:28Z</time>
      </trkpt>
      <trkpt lat="28.35053" lon="83.80871">
        <ele>1352.71</ele>
        <time>2013-11-04T06:06:37Z</time>
      </trkpt>
      <trkpt lat="28.35052" lon="83.80868">
        <ele>1352.23</ele>
        <time>2013-11-04T06:06:39Z</time>
      </trkpt>
      <trkpt lat="28.35051" lon="83.80858">
        <ele>1350.31</ele>
        <time>2013-11-04T06:06:52Z</time>
      </trkpt>
      <trkpt lat="28.35048" lon="83.80851">
        <ele>1349.83</ele>
        <time>2013-11-04T06:06:57Z</time>
      </trkpt>
      <trkpt lat="28.35045" lon="83.80844">
        <ele>1348.87</ele>
        <time>2013-11-04T06:07:02Z</time>
      </trkpt>
      <trkpt lat="28.35044" lon="83.80828">
        <ele>1346.46</ele>
        <time>2013-11-04T06:07:14Z</time>
      </trkpt>
      <trkpt lat="28.35045" lon="83.80826">
        <ele>1345.98</ele>
        <time>2013-11-04T06:07:16Z</time>
      </trkpt>
      <trkpt lat="28.35049" lon="83.8082">
        <ele>1344.06</ele>
        <time>2013-11-04T06:07:23Z</time>
      </trkpt>
      <trkpt lat="28.35049" lon="83.80809">
        <ele>1342.62</ele>
        <time>2013-11-04T06:07:36Z</time>
      </trkpt>
      <trkpt lat="28.35049" lon="83.80803">
        <ele>1342.14</ele>
        <time>2013-11-04T06:07:52Z</time>
      </trkpt>
      <trkpt lat="28.35049" lon="83.80794">
        <ele>1341.18</ele>
        <time>2013-11-04T06:08:03Z</time>
      </trkpt>
      <trkpt lat="28.35049" lon="83.80784">
        <ele>1339.73</ele>
        <time>2013-11-04T06:08:12Z</time>
      </trkpt>
      <trkpt lat="28.35044" lon="83.80775">
        <ele>1338.29</ele>
        <time>2013-11-04T06:08:24Z</time>
      </trkpt>
      <trkpt lat="28.35035" lon="83.80768">
        <ele>1337.33</ele>
        <time>2013-11-04T06:08:36Z</time>
      </trkpt>
      <trkpt lat="28.35027" lon="83.80753">
        <ele>1335.41</ele>
        <time>2013-11-04T06:08:50Z</time>
      </trkpt>
      <trkpt lat="28.35015" lon="83.80749">
        <ele>1333.49</ele>
        <time>2013-11-04T06:09:05Z</time>
      </trkpt>
      <trkpt lat="28.3501" lon="83.80748">
        <ele>1333.01</ele>
        <time>2013-11-04T06:09:11Z</time>
      </trkpt>
      <trkpt lat="28.34991" lon="83.80741">
        <ele>1330.6</ele>
        <time>2013-11-04T06:09:26Z</time>
      </trkpt>
      <trkpt lat="28.34977" lon="83.80739">
        <ele>1329.64</ele>
        <time>2013-11-04T06:09:36Z</time>
      </trkpt>
      <trkpt lat="28.34974" lon="83.80737">
        <ele>1328.68</ele>
        <time>2013-11-04T06:09:41Z</time>
      </trkpt>
      <trkpt lat="28.34966" lon="83.80732">
        <ele>1328.2</ele>
        <time>2013-11-04T06:09:54Z</time>
      </trkpt>
      <trkpt lat="28.34957" lon="83.80734">
        <ele>1327.24</ele>
        <time>2013-11-04T06:10:01Z</time>
      </trkpt>
      <trkpt lat="28.34952" lon="83.80735">
        <ele>1326.76</ele>
        <time>2013-11-04T06:10:04Z</time>
      </trkpt>
      <trkpt lat="28.34946" lon="83.80735">
        <ele>1326.28</ele>
        <time>2013-11-04T06:10:08Z</time>
      </trkpt>
      <trkpt lat="28.34937" lon="83.80742">
        <ele>1326.28</ele>
        <time>2013-11-04T06:10:26Z</time>
      </trkpt>
      <trkpt lat="28.34937" lon="83.80743">
        <ele>1326.28</ele>
        <time>2013-11-04T06:10:32Z</time>
      </trkpt>
      <trkpt lat="28.34936" lon="83.80742">
        <ele>1326.28</ele>
        <time>2013-11-04T06:10:33Z</time>
      </trkpt>
      <trkpt lat="28.34921" lon="83.80739">
        <ele>1325.8</ele>
        <time>2013-11-04T06:10:46Z</time>
      </trkpt>
      <trkpt lat="28.34909" lon="83.80738">
        <ele>1326.76</ele>
        <time>2013-11-04T06:10:58Z</time>
      </trkpt>
      <trkpt lat="28.34903" lon="83.80735">
        <ele>1326.28</ele>
        <time>2013-11-04T06:11:04Z</time>
      </trkpt>
      <trkpt lat="28.34889" lon="83.80734">
        <ele>1325.8</ele>
        <time>2013-11-04T06:11:14Z</time>
      </trkpt>
      <trkpt lat="28.34873" lon="83.80732">
        <ele>1323.87</ele>
        <time>2013-11-04T06:11:27Z</time>
      </trkpt>
      <trkpt lat="28.34872" lon="83.80731">
        <ele>1323.87</ele>
        <time>2013-11-04T06:11:28Z</time>
      </trkpt>
      <trkpt lat="28.34864" lon="83.80737">
        <ele>1323.39</ele>
        <time>2013-11-04T06:11:44Z</time>
      </trkpt>
      <trkpt lat="28.34866" lon="83.80739">
        <ele>1323.39</ele>
        <time>2013-11-04T06:12:16Z</time>
      </trkpt>
      <trkpt lat="28.34865" lon="83.80739">
        <ele>1322.91</ele>
        <time>2013-11-04T06:12:20Z</time>
      </trkpt>
      <trkpt lat="28.34847" lon="83.80737">
        <ele>1321.95</ele>
        <time>2013-11-04T06:12:33Z</time>
      </trkpt>
      <trkpt lat="28.34846" lon="83.80733">
        <ele>1321.95</ele>
        <time>2013-11-04T06:12:49Z</time>
      </trkpt>
      <trkpt lat="28.34845" lon="83.80734">
        <ele>1321.95</ele>
        <time>2013-11-04T06:13:09Z</time>
      </trkpt>
      <trkpt lat="28.34842" lon="83.80734">
        <ele>1321.95</ele>
        <time>2013-11-04T06:13:27Z</time>
      </trkpt>
      <trkpt lat="28.34839" lon="83.80732">
        <ele>1321.47</ele>
        <time>2013-11-04T06:13:46Z</time>
      </trkpt>
      <trkpt lat="28.34835" lon="83.80732">
        <ele>1320.99</ele>
        <time>2013-11-04T06:13:50Z</time>
      </trkpt>
      <trkpt lat="28.34832" lon="83.80733">
        <ele>1320.51</ele>
        <time>2013-11-04T06:13:53Z</time>
      </trkpt>
      <trkpt lat="28.34822" lon="83.80733">
        <ele>1319.55</ele>
        <time>2013-11-04T06:14:06Z</time>
      </trkpt>
      <trkpt lat="28.34815" lon="83.80736">
        <ele>1318.59</ele>
        <time>2013-11-04T06:14:14Z</time>
      </trkpt>
      <trkpt lat="28.34809" lon="83.80736">
        <ele>1318.59</ele>
        <time>2013-11-04T06:14:22Z</time>
      </trkpt>
      <trkpt lat="28.34793" lon="83.80744">
        <ele>1317.14</ele>
        <time>2013-11-04T06:14:35Z</time>
      </trkpt>
      <trkpt lat="28.34775" lon="83.80752">
        <ele>1315.7</ele>
        <time>2013-11-04T06:14:50Z</time>
      </trkpt>
      <trkpt lat="28.34774" lon="83.80752">
        <ele>1315.7</ele>
        <time>2013-11-04T06:14:51Z</time>
      </trkpt>
      <trkpt lat="28.34759" lon="83.80761">
        <ele>1314.74</ele>
        <time>2013-11-04T06:15:04Z</time>
      </trkpt>
      <trkpt lat="28.34757" lon="83.80761">
        <ele>1314.26</ele>
        <time>2013-11-04T06:15:06Z</time>
      </trkpt>
      <trkpt lat="28.3475" lon="83.8076">
        <ele>1313.78</ele>
        <time>2013-11-04T06:15:14Z</time>
      </trkpt>
      <trkpt lat="28.34748" lon="83.80757">
        <ele>1313.3</ele>
        <time>2013-11-04T06:15:17Z</time>
      </trkpt>
      <trkpt lat="28.34742" lon="83.80751">
        <ele>1311.38</ele>
        <time>2013-11-04T06:15:26Z</time>
      </trkpt>
      <trkpt lat="28.34733" lon="83.80743">
        <ele>1311.38</ele>
        <time>2013-11-04T06:15:38Z</time>
      </trkpt>
      <trkpt lat="28.34724" lon="83.80736">
        <ele>1311.86</ele>
        <time>2013-11-04T06:15:46Z</time>
      </trkpt>
      <trkpt lat="28.34714" lon="83.80722">
        <ele>1311.38</ele>
        <time>2013-11-04T06:15:58Z</time>
      </trkpt>
      <trkpt lat="28.34705" lon="83.80718">
        <ele>1310.9</ele>
        <time>2013-11-04T06:16:06Z</time>
      </trkpt>
      <trkpt lat="28.34701" lon="83.80717">
        <ele>1310.9</ele>
        <time>2013-11-04T06:16:10Z</time>
      </trkpt>
      <trkpt lat="28.34694" lon="83.80711">
        <ele>1309.45</ele>
        <time>2013-11-04T06:16:19Z</time>
      </trkpt>
      <trkpt lat="28.34684" lon="83.80704">
        <ele>1308.97</ele>
        <time>2013-11-04T06:16:31Z</time>
      </trkpt>
      <trkpt lat="28.34684" lon="83.80705">
        <ele>1308.97</ele>
        <time>2013-11-04T06:16:32Z</time>
      </trkpt>
      <trkpt lat="28.34678" lon="83.80704">
        <ele>1308.49</ele>
        <time>2013-11-04T06:16:36Z</time>
      </trkpt>
      <trkpt lat="28.34674" lon="83.80706">
        <ele>1308.49</ele>
        <time>2013-11-04T06:16:39Z</time>
      </trkpt>
      <trkpt lat="28.34664" lon="83.80706">
        <ele>1307.53</ele>
        <time>2013-11-04T06:16:48Z</time>
      </trkpt>
      <trkpt lat="28.34649" lon="83.80705">
        <ele>1307.05</ele>
        <time>2013-11-04T06:16:59Z</time>
      </trkpt>
      <trkpt lat="28.34643" lon="83.807">
        <ele>1305.61</ele>
        <time>2013-11-04T06:17:11Z</time>
      </trkpt>
      <trkpt lat="28.34644" lon="83.80699">
        <ele>1305.61</ele>
        <time>2013-11-04T06:17:15Z</time>
      </trkpt>
      <trkpt lat="28.3464" lon="83.80695">
        <ele>1305.13</ele>
        <time>2013-11-04T06:17:19Z</time>
      </trkpt>
      <trkpt lat="28.34634" lon="83.8068">
        <ele>1303.2</ele>
        <time>2013-11-04T06:17:32Z</time>
      </trkpt>
      <trkpt lat="28.34633" lon="83.80677">
        <ele>1303.2</ele>
        <time>2013-11-04T06:17:34Z</time>
      </trkpt>
      <trkpt lat="28.34632" lon="83.80668">
        <ele>1302.24</ele>
        <time>2013-11-04T06:17:39Z</time>
      </trkpt>
      <trkpt lat="28.34627" lon="83.80662">
        <ele>1302.24</ele>
        <time>2013-11-04T06:17:44Z</time>
      </trkpt>
      <trkpt lat="28.34621" lon="83.80653">
        <ele>1300.8</ele>
        <time>2013-11-04T06:17:53Z</time>
      </trkpt>
      <trkpt lat="28.34615" lon="83.80639">
        <ele>1299.84</ele>
        <time>2013-11-04T06:18:05Z</time>
      </trkpt>
      <trkpt lat="28.34613" lon="83.80635">
        <ele>1298.88</ele>
        <time>2013-11-04T06:18:09Z</time>
      </trkpt>
      <trkpt lat="28.34609" lon="83.8063">
        <ele>1298.88</ele>
        <time>2013-11-04T06:18:15Z</time>
      </trkpt>
      <trkpt lat="28.346" lon="83.80621">
        <ele>1297.92</ele>
        <time>2013-11-04T06:18:25Z</time>
      </trkpt>
      <trkpt lat="28.3459" lon="83.80613">
        <ele>1296.96</ele>
        <time>2013-11-04T06:18:36Z</time>
      </trkpt>
      <trkpt lat="28.3459" lon="83.80594">
        <ele>1295.99</ele>
        <time>2013-11-04T06:18:49Z</time>
      </trkpt>
      <trkpt lat="28.34589" lon="83.80585">
        <ele>1295.51</ele>
        <time>2013-11-04T06:18:57Z</time>
      </trkpt>
      <trkpt lat="28.34585" lon="83.80577">
        <ele>1295.03</ele>
        <time>2013-11-04T06:19:03Z</time>
      </trkpt>
      <trkpt lat="28.34581" lon="83.80564">
        <ele>1292.63</ele>
        <time>2013-11-04T06:19:17Z</time>
      </trkpt>
      <trkpt lat="28.3458" lon="83.8056">
        <ele>1291.67</ele>
        <time>2013-11-04T06:19:22Z</time>
      </trkpt>
      <trkpt lat="28.34565" lon="83.80548">
        <ele>1290.23</ele>
        <time>2013-11-04T06:19:35Z</time>
      </trkpt>
      <trkpt lat="28.34555" lon="83.80542">
        <ele>1289.27</ele>
        <time>2013-11-04T06:19:47Z</time>
      </trkpt>
      <trkpt lat="28.34554" lon="83.80541">
        <ele>1288.78</ele>
        <time>2013-11-04T06:19:48Z</time>
      </trkpt>
      <trkpt lat="28.34543" lon="83.80532">
        <ele>1287.34</ele>
        <time>2013-11-04T06:20:00Z</time>
      </trkpt>
      <trkpt lat="28.3454" lon="83.80531">
        <ele>1286.86</ele>
        <time>2013-11-04T06:20:03Z</time>
      </trkpt>
      <trkpt lat="28.34534" lon="83.80528">
        <ele>1285.9</ele>
        <time>2013-11-04T06:20:08Z</time>
      </trkpt>
      <trkpt lat="28.34532" lon="83.80525">
        <ele>1285.42</ele>
        <time>2013-11-04T06:20:11Z</time>
      </trkpt>
      <trkpt lat="28.34525" lon="83.80521">
        <ele>1284.46</ele>
        <time>2013-11-04T06:20:18Z</time>
      </trkpt>
      <trkpt lat="28.34515" lon="83.80509">
        <ele>1283.02</ele>
        <time>2013-11-04T06:20:31Z</time>
      </trkpt>
      <trkpt lat="28.34514" lon="83.80508">
        <ele>1283.02</ele>
        <time>2013-11-04T06:20:32Z</time>
      </trkpt>
      <trkpt lat="28.34511" lon="83.80506">
        <ele>1283.02</ele>
        <time>2013-11-04T06:20:35Z</time>
      </trkpt>
      <trkpt lat="28.34501" lon="83.805">
        <ele>1282.06</ele>
        <time>2013-11-04T06:20:46Z</time>
      </trkpt>
      <trkpt lat="28.34497" lon="83.80495">
        <ele>1281.09</ele>
        <time>2013-11-04T06:20:51Z</time>
      </trkpt>
      <trkpt lat="28.34488" lon="83.80482">
        <ele>1279.17</ele>
        <time>2013-11-04T06:21:05Z</time>
      </trkpt>
      <trkpt lat="28.34487" lon="83.8048">
        <ele>1278.69</ele>
        <time>2013-11-04T06:21:07Z</time>
      </trkpt>
      <trkpt lat="28.34483" lon="83.80468">
        <ele>1277.73</ele>
        <time>2013-11-04T06:21:16Z</time>
      </trkpt>
      <trkpt lat="28.34484" lon="83.80463">
        <ele>1276.29</ele>
        <time>2013-11-04T06:21:19Z</time>
      </trkpt>
      <trkpt lat="28.34481" lon="83.80456">
        <ele>1275.33</ele>
        <time>2013-11-04T06:21:25Z</time>
      </trkpt>
      <trkpt lat="28.3448" lon="83.80448">
        <ele>1274.36</ele>
        <time>2013-11-04T06:21:31Z</time>
      </trkpt>
      <trkpt lat="28.34477" lon="83.80443">
        <ele>1273.88</ele>
        <time>2013-11-04T06:21:35Z</time>
      </trkpt>
      <trkpt lat="28.34474" lon="83.80434">
        <ele>1273.4</ele>
        <time>2013-11-04T06:21:42Z</time>
      </trkpt>
      <trkpt lat="28.3447" lon="83.80417">
        <ele>1273.4</ele>
        <time>2013-11-04T06:21:54Z</time>
      </trkpt>
      <trkpt lat="28.34466" lon="83.80398">
        <ele>1272.92</ele>
        <time>2013-11-04T06:22:07Z</time>
      </trkpt>
      <trkpt lat="28.34467" lon="83.80391">
        <ele>1272.44</ele>
        <time>2013-11-04T06:22:20Z</time>
      </trkpt>
      <trkpt lat="28.34472" lon="83.80381">
        <ele>1271.48</ele>
        <time>2013-11-04T06:22:29Z</time>
      </trkpt>
      <trkpt lat="28.34473" lon="83.80375">
        <ele>1271</ele>
        <time>2013-11-04T06:22:32Z</time>
      </trkpt>
      <trkpt lat="28.34473" lon="83.80372">
        <ele>1271.48</ele>
        <time>2013-11-04T06:22:34Z</time>
      </trkpt>
      <trkpt lat="28.34475" lon="83.80366">
        <ele>1271</ele>
        <time>2013-11-04T06:22:40Z</time>
      </trkpt>
      <trkpt lat="28.34475" lon="83.80364">
        <ele>1271.48</ele>
        <time>2013-11-04T06:22:42Z</time>
      </trkpt>
      <trkpt lat="28.34472" lon="83.80352">
        <ele>1271.48</ele>
        <time>2013-11-04T06:22:52Z</time>
      </trkpt>
      <trkpt lat="28.3447" lon="83.80339">
        <ele>1271.48</ele>
        <time>2013-11-04T06:23:03Z</time>
      </trkpt>
      <trkpt lat="28.3447" lon="83.80326">
        <ele>1271.96</ele>
        <time>2013-11-04T06:23:13Z</time>
      </trkpt>
      <trkpt lat="28.34472" lon="83.80311">
        <ele>1272.44</ele>
        <time>2013-11-04T06:23:25Z</time>
      </trkpt>
      <trkpt lat="28.34472" lon="83.80311">
        <ele>1271.96</ele>
        <time>2013-11-04T06:23:26Z</time>
      </trkpt>
      <trkpt lat="28.34473" lon="83.803">
        <ele>1272.44</ele>
        <time>2013-11-04T06:23:35Z</time>
      </trkpt>
      <trkpt lat="28.34469" lon="83.80293">
        <ele>1272.92</ele>
        <time>2013-11-04T06:23:43Z</time>
      </trkpt>
      <trkpt lat="28.34471" lon="83.80294">
        <ele>1272.44</ele>
        <time>2013-11-04T06:24:02Z</time>
      </trkpt>
      <trkpt lat="28.34475" lon="83.80293">
        <ele>1272.92</ele>
        <time>2013-11-04T06:24:13Z</time>
      </trkpt>
      <trkpt lat="28.34474" lon="83.80291">
        <ele>1272.92</ele>
        <time>2013-11-04T06:24:34Z</time>
      </trkpt>
      <trkpt lat="28.34473" lon="83.80289">
        <ele>1273.4</ele>
        <time>2013-11-04T06:24:54Z</time>
      </trkpt>
      <trkpt lat="28.34478" lon="83.80285">
        <ele>1273.4</ele>
        <time>2013-11-04T06:25:18Z</time>
      </trkpt>
      <trkpt lat="28.3448" lon="83.80283">
        <ele>1273.4</ele>
        <time>2013-11-04T06:25:42Z</time>
      </trkpt>
      <trkpt lat="28.34478" lon="83.80282">
        <ele>1272.92</ele>
        <time>2013-11-04T06:26:02Z</time>
      </trkpt>
      <trkpt lat="28.34479" lon="83.80277">
        <ele>1272.92</ele>
        <time>2013-11-04T06:26:30Z</time>
      </trkpt>
      <trkpt lat="28.34479" lon="83.8028">
        <ele>1272.92</ele>
        <time>2013-11-04T06:26:57Z</time>
      </trkpt>
      <trkpt lat="28.34482" lon="83.80279">
        <ele>1272.92</ele>
        <time>2013-11-04T06:27:20Z</time>
      </trkpt>
      <trkpt lat="28.34481" lon="83.80278">
        <ele>1272.92</ele>
        <time>2013-11-04T06:27:43Z</time>
      </trkpt>
      <trkpt lat="28.34468" lon="83.80281">
        <ele>1272.92</ele>
        <time>2013-11-04T06:28:05Z</time>
      </trkpt>
      <trkpt lat="28.34475" lon="83.80281">
        <ele>1273.4</ele>
        <time>2013-11-04T06:28:28Z</time>
      </trkpt>
      <trkpt lat="28.34472" lon="83.80274">
        <ele>1273.4</ele>
        <time>2013-11-04T06:28:49Z</time>
      </trkpt>
      <trkpt lat="28.34472" lon="83.80273">
        <ele>1273.88</ele>
        <time>2013-11-04T06:29:10Z</time>
      </trkpt>
      <trkpt lat="28.34473" lon="83.80273">
        <ele>1273.4</ele>
        <time>2013-11-04T06:29:33Z</time>
      </trkpt>
      <trkpt lat="28.34487" lon="83.80291">
        <ele>1273.88</ele>
        <time>2013-11-04T06:32:52Z</time>
      </trkpt>
      <trkpt lat="28.34484" lon="83.80296">
        <ele>1273.4</ele>
        <time>2013-11-04T06:33:05Z</time>
      </trkpt>
      <trkpt lat="28.34486" lon="83.80295">
        <ele>1274.36</ele>
        <time>2013-11-04T06:33:32Z</time>
      </trkpt>
      <trkpt lat="28.34471" lon="83.80287">
        <ele>1273.88</ele>
        <time>2013-11-04T06:33:49Z</time>
      </trkpt>
      <trkpt lat="28.34474" lon="83.80286">
        <ele>1273.88</ele>
        <time>2013-11-04T06:34:08Z</time>
      </trkpt>
      <trkpt lat="28.34479" lon="83.80285">
        <ele>1273.88</ele>
        <time>2013-11-04T06:34:30Z</time>
      </trkpt>
      <trkpt lat="28.34475" lon="83.80281">
        <ele>1274.36</ele>
        <time>2013-11-04T06:34:56Z</time>
      </trkpt>
      <trkpt lat="28.34475" lon="83.80279">
        <ele>1274.36</ele>
        <time>2013-11-04T06:35:20Z</time>
      </trkpt>
      <trkpt lat="28.34482" lon="83.80277">
        <ele>1273.88</ele>
        <time>2013-11-04T06:35:37Z</time>
      </trkpt>
      <trkpt lat="28.34486" lon="83.80279">
        <ele>1274.36</ele>
        <time>2013-11-04T06:36:01Z</time>
      </trkpt>
      <trkpt lat="28.34496" lon="83.80278">
        <ele>1274.85</ele>
        <time>2013-11-04T06:36:21Z</time>
      </trkpt>
      <trkpt lat="28.34492" lon="83.8028">
        <ele>1274.85</ele>
        <time>2013-11-04T06:36:41Z</time>
      </trkpt>
      <trkpt lat="28.34497" lon="83.80282">
        <ele>1274.85</ele>
        <time>2013-11-04T06:37:04Z</time>
      </trkpt>
      <trkpt lat="28.34488" lon="83.80281">
        <ele>1274.85</ele>
        <time>2013-11-04T06:37:28Z</time>
      </trkpt>
      <trkpt lat="28.34483" lon="83.80277">
        <ele>1274.85</ele>
        <time>2013-11-04T06:37:50Z</time>
      </trkpt>
      <trkpt lat="28.3448" lon="83.80277">
        <ele>1275.33</ele>
        <time>2013-11-04T06:38:15Z</time>
      </trkpt>
      <trkpt lat="28.34477" lon="83.80277">
        <ele>1275.33</ele>
        <time>2013-11-04T06:38:44Z</time>
      </trkpt>
      <trkpt lat="28.34475" lon="83.80272">
        <ele>1275.33</ele>
        <time>2013-11-04T06:39:07Z</time>
      </trkpt>
      <trkpt lat="28.34477" lon="83.80273">
        <ele>1275.33</ele>
        <time>2013-11-04T06:39:33Z</time>
      </trkpt>
      <trkpt lat="28.34476" lon="83.80273">
        <ele>1275.81</ele>
        <time>2013-11-04T06:40:00Z</time>
      </trkpt>
      <trkpt lat="28.34475" lon="83.80274">
        <ele>1275.81</ele>
        <time>2013-11-04T06:40:24Z</time>
      </trkpt>
      <trkpt lat="28.34475" lon="83.80278">
        <ele>1275.81</ele>
        <time>2013-11-04T06:40:49Z</time>
      </trkpt>
      <trkpt lat="28.34478" lon="83.80279">
        <ele>1275.81</ele>
        <time>2013-11-04T06:41:11Z</time>
      </trkpt>
      <trkpt lat="28.34486" lon="83.80278">
        <ele>1275.81</ele>
        <time>2013-11-04T06:41:32Z</time>
      </trkpt>
      <trkpt lat="28.34488" lon="83.80277">
        <ele>1275.81</ele>
        <time>2013-11-04T06:41:53Z</time>
      </trkpt>
      <trkpt lat="28.34501" lon="83.80273">
        <ele>1276.29</ele>
        <time>2013-11-04T06:42:15Z</time>
      </trkpt>
      <trkpt lat="28.34495" lon="83.80273">
        <ele>1276.29</ele>
        <time>2013-11-04T06:42:37Z</time>
      </trkpt>
      <trkpt lat="28.34476" lon="83.80278">
        <ele>1276.29</ele>
        <time>2013-11-04T06:43:06Z</time>
      </trkpt>
      <trkpt lat="28.34476" lon="83.80279">
        <ele>1276.29</ele>
        <time>2013-11-04T06:43:31Z</time>
      </trkpt>
      <trkpt lat="28.34476" lon="83.8028">
        <ele>1276.77</ele>
        <time>2013-11-04T06:43:58Z</time>
      </trkpt>
      <trkpt lat="28.34474" lon="83.80281">
        <ele>1276.77</ele>
        <time>2013-11-04T06:44:20Z</time>
      </trkpt>
      <trkpt lat="28.34475" lon="83.80279">
        <ele>1276.77</ele>
        <time>2013-11-04T06:44:50Z</time>
      </trkpt>
      <trkpt lat="28.34474" lon="83.80279">
        <ele>1276.77</ele>
        <time>2013-11-04T06:45:19Z</time>
      </trkpt>
      <trkpt lat="28.34475" lon="83.80281">
        <ele>1276.77</ele>
        <time>2013-11-04T06:45:43Z</time>
      </trkpt>
      <trkpt lat="28.34473" lon="83.80275">
        <ele>1276.77</ele>
        <time>2013-11-04T06:46:01Z</time>
      </trkpt>
      <trkpt lat="28.34473" lon="83.80266">
        <ele>1276.77</ele>
        <time>2013-11-04T06:46:23Z</time>
      </trkpt>
      <trkpt lat="28.34472" lon="83.80268">
        <ele>1276.77</ele>
        <time>2013-11-04T06:46:41Z</time>
      </trkpt>
      <trkpt lat="28.34475" lon="83.80254">
        <ele>1276.77</ele>
        <time>2013-11-04T06:47:05Z</time>
      </trkpt>
      <trkpt lat="28.34473" lon="83.80254">
        <ele>1277.25</ele>
        <time>2013-11-04T06:47:33Z</time>
      </trkpt>
      <trkpt lat="28.34473" lon="83.8026">
        <ele>1277.25</ele>
        <time>2013-11-04T06:47:58Z</time>
      </trkpt>
      <trkpt lat="28.34473" lon="83.80263">
        <ele>1277.25</ele>
        <time>2013-11-04T06:48:25Z</time>
      </trkpt>
      <trkpt lat="28.34473" lon="83.80265">
        <ele>1277.73</ele>
        <time>2013-11-04T06:48:53Z</time>
      </trkpt>
      <trkpt lat="28.34462" lon="83.80272">
        <ele>1277.73</ele>
        <time>2013-11-04T06:49:19Z</time>
      </trkpt>
      <trkpt lat="28.34465" lon="83.80273">
        <ele>1277.25</ele>
        <time>2013-11-04T06:49:24Z</time>
      </trkpt>
      <trkpt lat="28.34482" lon="83.8028">
        <ele>1277.73</ele>
        <time>2013-11-04T06:49:43Z</time>
      </trkpt>
      <trkpt lat="28.34482" lon="83.80282">
        <ele>1277.73</ele>
        <time>2013-11-04T06:50:07Z</time>
      </trkpt>
      <trkpt lat="28.34479" lon="83.80279">
        <ele>1277.73</ele>
        <time>2013-11-04T06:50:30Z</time>
      </trkpt>
      <trkpt lat="28.34485" lon="83.80285">
        <ele>1277.73</ele>
        <time>2013-11-04T06:50:49Z</time>
      </trkpt>
      <trkpt lat="28.34486" lon="83.80282">
        <ele>1277.73</ele>
        <time>2013-11-04T06:51:15Z</time>
      </trkpt>
      <trkpt lat="28.34485" lon="83.80283">
        <ele>1277.73</ele>
        <time>2013-11-04T06:51:38Z</time>
      </trkpt>
      <trkpt lat="28.34484" lon="83.80284">
        <ele>1277.73</ele>
        <time>2013-11-04T06:51:57Z</time>
      </trkpt>
      <trkpt lat="28.34481" lon="83.80284">
        <ele>1277.73</ele>
        <time>2013-11-04T06:52:20Z</time>
      </trkpt>
      <trkpt lat="28.34481" lon="83.80284">
        <ele>1277.73</ele>
        <time>2013-11-04T06:52:46Z</time>
      </trkpt>
      <trkpt lat="28.3448" lon="83.80283">
        <ele>1277.73</ele>
        <time>2013-11-04T06:53:14Z</time>
      </trkpt>
      <trkpt lat="28.34479" lon="83.80283">
        <ele>1278.21</ele>
        <time>2013-11-04T06:53:41Z</time>
      </trkpt>
      <trkpt lat="28.34479" lon="83.80285">
        <ele>1278.21</ele>
        <time>2013-11-04T06:53:44Z</time>
      </trkpt>
      <trkpt lat="28.34482" lon="83.80306">
        <ele>1278.21</ele>
        <time>2013-11-04T06:54:08Z</time>
      </trkpt>
      <trkpt lat="28.34476" lon="83.80308">
        <ele>1278.21</ele>
        <time>2013-11-04T06:54:32Z</time>
      </trkpt>
      <trkpt lat="28.34473" lon="83.80301">
        <ele>1278.69</ele>
        <time>2013-11-04T06:54:57Z</time>
      </trkpt>
      <trkpt lat="28.34475" lon="83.80297">
        <ele>1278.69</ele>
        <time>2013-11-04T06:55:21Z</time>
      </trkpt>
      <trkpt lat="28.34472" lon="83.80285">
        <ele>1278.69</ele>
        <time>2013-11-04T06:55:52Z</time>
      </trkpt>
      <trkpt lat="28.34473" lon="83.80287">
        <ele>1278.69</ele>
        <time>2013-11-04T06:56:21Z</time>
      </trkpt>
      <trkpt lat="28.34472" lon="83.80285">
        <ele>1279.17</ele>
        <time>2013-11-04T06:56:45Z</time>
      </trkpt>
      <trkpt lat="28.34471" lon="83.80278">
        <ele>1279.17</ele>
        <time>2013-11-04T06:57:14Z</time>
      </trkpt>
      <trkpt lat="28.34473" lon="83.80279">
        <ele>1279.65</ele>
        <time>2013-11-04T06:57:38Z</time>
      </trkpt>
      <trkpt lat="28.34466" lon="83.80267">
        <ele>1279.65</ele>
        <time>2013-11-04T06:58:01Z</time>
      </trkpt>
      <trkpt lat="28.34467" lon="83.80266">
        <ele>1279.17</ele>
        <time>2013-11-04T06:58:28Z</time>
      </trkpt>
      <trkpt lat="28.34467" lon="83.80266">
        <ele>1279.65</ele>
        <time>2013-11-04T06:58:41Z</time>
      </trkpt>
      <trkpt lat="28.34455" lon="83.80238">
        <ele>1279.65</ele>
        <time>2013-11-04T06:59:08Z</time>
      </trkpt>
      <trkpt lat="28.34455" lon="83.80241">
        <ele>1279.65</ele>
        <time>2013-11-04T06:59:36Z</time>
      </trkpt>
      <trkpt lat="28.34461" lon="83.80254">
        <ele>1279.65</ele>
        <time>2013-11-04T07:00:04Z</time>
      </trkpt>
      <trkpt lat="28.34468" lon="83.80261">
        <ele>1279.65</ele>
        <time>2013-11-04T07:00:33Z</time>
      </trkpt>
      <trkpt lat="28.34471" lon="83.80267">
        <ele>1279.65</ele>
        <time>2013-11-04T07:01:04Z</time>
      </trkpt>
      <trkpt lat="28.34471" lon="83.8027">
        <ele>1279.65</ele>
        <time>2013-11-04T07:01:49Z</time>
      </trkpt>
      <trkpt lat="28.34478" lon="83.80268">
        <ele>1279.65</ele>
        <time>2013-11-04T07:02:25Z</time>
      </trkpt>
      <trkpt lat="28.34479" lon="83.80275">
        <ele>1279.65</ele>
        <time>2013-11-04T07:02:58Z</time>
      </trkpt>
      <trkpt lat="28.34478" lon="83.80273">
        <ele>1279.65</ele>
        <time>2013-11-04T07:03:28Z</time>
      </trkpt>
      <trkpt lat="28.34477" lon="83.80278">
        <ele>1280.13</ele>
        <time>2013-11-04T07:03:51Z</time>
      </trkpt>
      <trkpt lat="28.34478" lon="83.80273">
        <ele>1280.13</ele>
        <time>2013-11-04T07:04:13Z</time>
      </trkpt>
      <trkpt lat="28.34476" lon="83.80277">
        <ele>1280.13</ele>
        <time>2013-11-04T07:04:37Z</time>
      </trkpt>
      <trkpt lat="28.34472" lon="83.80285">
        <ele>1279.65</ele>
        <time>2013-11-04T07:04:52Z</time>
      </trkpt>
      <trkpt lat="28.34477" lon="83.80293">
        <ele>1280.13</ele>
        <time>2013-11-04T07:05:09Z</time>
      </trkpt>
      <trkpt lat="28.3448" lon="83.80292">
        <ele>1279.65</ele>
        <time>2013-11-04T07:05:35Z</time>
      </trkpt>
      <trkpt lat="28.34478" lon="83.8029">
        <ele>1280.13</ele>
        <time>2013-11-04T07:05:59Z</time>
      </trkpt>
      <trkpt lat="28.34476" lon="83.80277">
        <ele>1280.13</ele>
        <time>2013-11-04T07:06:23Z</time>
      </trkpt>
      <trkpt lat="28.34478" lon="83.8028">
        <ele>1280.13</ele>
        <time>2013-11-04T07:06:44Z</time>
      </trkpt>
      <trkpt lat="28.34475" lon="83.80263">
        <ele>1280.13</ele>
        <time>2013-11-04T07:07:05Z</time>
      </trkpt>
      <trkpt lat="28.34478" lon="83.80266">
        <ele>1280.13</ele>
        <time>2013-11-04T07:07:36Z</time>
      </trkpt>
      <trkpt lat="28.34479" lon="83.80274">
        <ele>1280.13</ele>
        <time>2013-11-04T07:07:59Z</time>
      </trkpt>
      <trkpt lat="28.34481" lon="83.80277">
        <ele>1280.13</ele>
        <time>2013-11-04T07:08:20Z</time>
      </trkpt>
      <trkpt lat="28.34483" lon="83.80284">
        <ele>1280.61</ele>
        <time>2013-11-04T07:08:42Z</time>
      </trkpt>
      <trkpt lat="28.3448" lon="83.80289">
        <ele>1280.61</ele>
        <time>2013-11-04T07:08:52Z</time>
      </trkpt>
      <trkpt lat="28.34474" lon="83.80288">
        <ele>1280.13</ele>
        <time>2013-11-04T07:09:11Z</time>
      </trkpt>
      <trkpt lat="28.34474" lon="83.80285">
        <ele>1280.61</ele>
        <time>2013-11-04T07:09:38Z</time>
      </trkpt>
      <trkpt lat="28.34473" lon="83.8028">
        <ele>1280.61</ele>
        <time>2013-11-04T07:10:00Z</time>
      </trkpt>
      <trkpt lat="28.34477" lon="83.80274">
        <ele>1280.61</ele>
        <time>2013-11-04T07:10:26Z</time>
      </trkpt>
      <trkpt lat="28.34479" lon="83.80279">
        <ele>1280.61</ele>
        <time>2013-11-04T07:10:42Z</time>
      </trkpt>
      <trkpt lat="28.34479" lon="83.80279">
        <ele>1280.61</ele>
        <time>2013-11-04T07:11:07Z</time>
      </trkpt>
      <trkpt lat="28.34477" lon="83.80279">
        <ele>1280.61</ele>
        <time>2013-11-04T07:11:35Z</time>
      </trkpt>
      <trkpt lat="28.34476" lon="83.80274">
        <ele>1280.13</ele>
        <time>2013-11-04T07:11:52Z</time>
      </trkpt>
      <trkpt lat="28.3447" lon="83.80263">
        <ele>1280.61</ele>
        <time>2013-11-04T07:12:20Z</time>
      </trkpt>
      <trkpt lat="28.34475" lon="83.80261">
        <ele>1280.61</ele>
        <time>2013-11-04T07:12:42Z</time>
      </trkpt>
      <trkpt lat="28.34478" lon="83.80258">
        <ele>1280.61</ele>
        <time>2013-11-04T07:13:06Z</time>
      </trkpt>
      <trkpt lat="28.34473" lon="83.8026">
        <ele>1280.13</ele>
        <time>2013-11-04T07:13:30Z</time>
      </trkpt>
      <trkpt lat="28.34474" lon="83.8026">
        <ele>1280.61</ele>
        <time>2013-11-04T07:13:54Z</time>
      </trkpt>
      <trkpt lat="28.34473" lon="83.80261">
        <ele>1280.61</ele>
        <time>2013-11-04T07:14:18Z</time>
      </trkpt>
      <trkpt lat="28.34473" lon="83.8026">
        <ele>1281.09</ele>
        <time>2013-11-04T07:14:44Z</time>
      </trkpt>
      <trkpt lat="28.3447" lon="83.8027">
        <ele>1281.09</ele>
        <time>2013-11-04T07:15:05Z</time>
      </trkpt>
      <trkpt lat="28.34471" lon="83.8027">
        <ele>1281.09</ele>
        <time>2013-11-04T07:15:27Z</time>
      </trkpt>
      <trkpt lat="28.34472" lon="83.80272">
        <ele>1280.61</ele>
        <time>2013-11-04T07:15:52Z</time>
      </trkpt>
      <trkpt lat="28.34473" lon="83.80275">
        <ele>1281.09</ele>
        <time>2013-11-04T07:16:11Z</time>
      </trkpt>
      <trkpt lat="28.34477" lon="83.80268">
        <ele>1281.09</ele>
        <time>2013-11-04T07:16:31Z</time>
      </trkpt>
      <trkpt lat="28.34477" lon="83.80267">
        <ele>1281.09</ele>
        <time>2013-11-04T07:16:56Z</time>
      </trkpt>
      <trkpt lat="28.34471" lon="83.80272">
        <ele>1281.09</ele>
        <time>2013-11-04T07:17:21Z</time>
      </trkpt>
      <trkpt lat="28.34471" lon="83.80268">
        <ele>1281.09</ele>
        <time>2013-11-04T07:17:27Z</time>
      </trkpt>
      <trkpt lat="28.34468" lon="83.80254">
        <ele>1281.09</ele>
        <time>2013-11-04T07:17:48Z</time>
      </trkpt>
      <trkpt lat="28.34474" lon="83.80257">
        <ele>1281.57</ele>
        <time>2013-11-04T07:18:14Z</time>
      </trkpt>
      <trkpt lat="28.34472" lon="83.80257">
        <ele>1281.57</ele>
        <time>2013-11-04T07:18:38Z</time>
      </trkpt>
      <trkpt lat="28.34479" lon="83.80274">
        <ele>1281.57</ele>
        <time>2013-11-04T07:18:59Z</time>
      </trkpt>
      <trkpt lat="28.34478" lon="83.80271">
        <ele>1281.57</ele>
        <time>2013-11-04T07:19:20Z</time>
      </trkpt>
      <trkpt lat="28.34477" lon="83.80274">
        <ele>1281.57</ele>
        <time>2013-11-04T07:19:41Z</time>
      </trkpt>
      <trkpt lat="28.34477" lon="83.80273">
        <ele>1281.57</ele>
        <time>2013-11-04T07:20:07Z</time>
      </trkpt>
      <trkpt lat="28.34473" lon="83.80269">
        <ele>1281.57</ele>
        <time>2013-11-04T07:20:30Z</time>
      </trkpt>
      <trkpt lat="28.34474" lon="83.80269">
        <ele>1281.57</ele>
        <time>2013-11-04T07:20:55Z</time>
      </trkpt>
      <trkpt lat="28.34471" lon="83.80266">
        <ele>1281.57</ele>
        <time>2013-11-04T07:21:21Z</time>
      </trkpt>
      <trkpt lat="28.34474" lon="83.80267">
        <ele>1281.57</ele>
        <time>2013-11-04T07:21:48Z</time>
      </trkpt>
      <trkpt lat="28.34476" lon="83.80268">
        <ele>1282.06</ele>
        <time>2013-11-04T07:22:16Z</time>
      </trkpt>
      <trkpt lat="28.34476" lon="83.8027">
        <ele>1282.06</ele>
        <time>2013-11-04T07:22:45Z</time>
      </trkpt>
      <trkpt lat="28.34482" lon="83.8028">
        <ele>1282.06</ele>
        <time>2013-11-04T07:23:10Z</time>
      </trkpt>
      <trkpt lat="28.3448" lon="83.80274">
        <ele>1277.25</ele>
        <time>2013-11-04T07:23:26Z</time>
      </trkpt>
      <trkpt lat="28.3448" lon="83.80274">
        <ele>1285.9</ele>
        <time>2013-11-04T07:23:27Z</time>
      </trkpt>
      <trkpt lat="28.3448" lon="83.80274">
        <ele>1281.57</ele>
        <time>2013-11-04T07:23:29Z</time>
      </trkpt>
      <trkpt lat="28.34476" lon="83.8027">
        <ele>1282.54</ele>
        <time>2013-11-04T07:23:56Z</time>
      </trkpt>
      <trkpt lat="28.34477" lon="83.80272">
        <ele>1282.06</ele>
        <time>2013-11-04T07:24:20Z</time>
      </trkpt>
      <trkpt lat="28.34475" lon="83.80275">
        <ele>1283.02</ele>
        <time>2013-11-04T07:24:43Z</time>
      </trkpt>
      <trkpt lat="28.34476" lon="83.80278">
        <ele>1282.54</ele>
        <time>2013-11-04T07:25:02Z</time>
      </trkpt>
      <trkpt lat="28.34476" lon="83.80278">
        <ele>1282.06</ele>
        <time>2013-11-04T07:25:20Z</time>
      </trkpt>
      <trkpt lat="28.34477" lon="83.80282">
        <ele>1282.54</ele>
        <time>2013-11-04T07:25:41Z</time>
      </trkpt>
      <trkpt lat="28.34477" lon="83.80282">
        <ele>1282.06</ele>
        <time>2013-11-04T07:25:57Z</time>
      </trkpt>
      <trkpt lat="28.3448" lon="83.80282">
        <ele>1282.06</ele>
        <time>2013-11-04T07:26:12Z</time>
      </trkpt>
      <trkpt lat="28.34486" lon="83.80287">
        <ele>1281.09</ele>
        <time>2013-11-04T07:26:26Z</time>
      </trkpt>
      <trkpt lat="28.3449" lon="83.80285">
        <ele>1281.57</ele>
        <time>2013-11-04T07:26:48Z</time>
      </trkpt>
      <trkpt lat="28.34489" lon="83.80285">
        <ele>1281.09</ele>
        <time>2013-11-04T07:26:56Z</time>
      </trkpt>
      <trkpt lat="28.34496" lon="83.80278">
        <ele>1280.61</ele>
        <time>2013-11-04T07:27:09Z</time>
      </trkpt>
      <trkpt lat="28.34497" lon="83.80277">
        <ele>1280.61</ele>
        <time>2013-11-04T07:27:10Z</time>
      </trkpt>
      <trkpt lat="28.34501" lon="83.80269">
        <ele>1280.61</ele>
        <time>2013-11-04T07:27:18Z</time>
      </trkpt>
      <trkpt lat="28.34502" lon="83.80265">
        <ele>1280.13</ele>
        <time>2013-11-04T07:27:22Z</time>
      </trkpt>
      <trkpt lat="28.34504" lon="83.80263">
        <ele>1280.13</ele>
        <time>2013-11-04T07:27:25Z</time>
      </trkpt>
      <trkpt lat="28.34509" lon="83.80255">
        <ele>1279.65</ele>
        <time>2013-11-04T07:27:33Z</time>
      </trkpt>
      <trkpt lat="28.34518" lon="83.80245">
        <ele>1279.17</ele>
        <time>2013-11-04T07:27:45Z</time>
      </trkpt>
      <trkpt lat="28.34524" lon="83.80233">
        <ele>1278.69</ele>
        <time>2013-11-04T07:27:56Z</time>
      </trkpt>
      <trkpt lat="28.34524" lon="83.80232">
        <ele>1278.69</ele>
        <time>2013-11-04T07:27:57Z</time>
      </trkpt>
      <trkpt lat="28.34525" lon="83.8023">
        <ele>1278.69</ele>
        <time>2013-11-04T07:27:59Z</time>
      </trkpt>
      <trkpt lat="28.34526" lon="83.80227">
        <ele>1278.69</ele>
        <time>2013-11-04T07:28:02Z</time>
      </trkpt>
      <trkpt lat="28.34526" lon="83.80215">
        <ele>1277.73</ele>
        <time>2013-11-04T07:28:13Z</time>
      </trkpt>
      <trkpt lat="28.34526" lon="83.80202">
        <ele>1277.73</ele>
        <time>2013-11-04T07:28:26Z</time>
      </trkpt>
      <trkpt lat="28.34527" lon="83.80201">
        <ele>1277.73</ele>
        <time>2013-11-04T07:28:27Z</time>
      </trkpt>
      <trkpt lat="28.34529" lon="83.80188">
        <ele>1277.25</ele>
        <time>2013-11-04T07:28:40Z</time>
      </trkpt>
      <trkpt lat="28.34529" lon="83.80187">
        <ele>1276.77</ele>
        <time>2013-11-04T07:28:42Z</time>
      </trkpt>
      <trkpt lat="28.3453" lon="83.80183">
        <ele>1276.77</ele>
        <time>2013-11-04T07:28:46Z</time>
      </trkpt>
      <trkpt lat="28.34531" lon="83.80174">
        <ele>1276.29</ele>
        <time>2013-11-04T07:28:52Z</time>
      </trkpt>
      <trkpt lat="28.34531" lon="83.80172">
        <ele>1276.29</ele>
        <time>2013-11-04T07:28:54Z</time>
      </trkpt>
      <trkpt lat="28.34533" lon="83.80154">
        <ele>1275.81</ele>
        <time>2013-11-04T07:29:07Z</time>
      </trkpt>
      <trkpt lat="28.34533" lon="83.80153">
        <ele>1275.81</ele>
        <time>2013-11-04T07:29:08Z</time>
      </trkpt>
      <trkpt lat="28.34534" lon="83.80148">
        <ele>1275.81</ele>
        <time>2013-11-04T07:29:14Z</time>
      </trkpt>
      <trkpt lat="28.34535" lon="83.80137">
        <ele>1275.33</ele>
        <time>2013-11-04T07:29:25Z</time>
      </trkpt>
      <trkpt lat="28.34537" lon="83.80133">
        <ele>1274.85</ele>
        <time>2013-11-04T07:29:30Z</time>
      </trkpt>
      <trkpt lat="28.34543" lon="83.80126">
        <ele>1274.85</ele>
        <time>2013-11-04T07:29:39Z</time>
      </trkpt>
      <trkpt lat="28.3455" lon="83.80116">
        <ele>1273.88</ele>
        <time>2013-11-04T07:29:51Z</time>
      </trkpt>
      <trkpt lat="28.3455" lon="83.80111">
        <ele>1274.85</ele>
        <time>2013-11-04T07:29:56Z</time>
      </trkpt>
      <trkpt lat="28.34545" lon="83.80092">
        <ele>1273.88</ele>
        <time>2013-11-04T07:30:09Z</time>
      </trkpt>
      <trkpt lat="28.34541" lon="83.80085">
        <ele>1273.4</ele>
        <time>2013-11-04T07:30:15Z</time>
      </trkpt>
      <trkpt lat="28.34531" lon="83.80074">
        <ele>1272.44</ele>
        <time>2013-11-04T07:30:26Z</time>
      </trkpt>
      <trkpt lat="28.34526" lon="83.80075">
        <ele>1272.44</ele>
        <time>2013-11-04T07:30:31Z</time>
      </trkpt>
      <trkpt lat="28.34517" lon="83.8008">
        <ele>1271.96</ele>
        <time>2013-11-04T07:30:45Z</time>
      </trkpt>
      <trkpt lat="28.34532" lon="83.80095">
        <ele>1272.44</ele>
        <time>2013-11-04T07:31:03Z</time>
      </trkpt>
      <trkpt lat="28.34528" lon="83.80094">
        <ele>1272.92</ele>
        <time>2013-11-04T07:31:24Z</time>
      </trkpt>
      <trkpt lat="28.34524" lon="83.80095">
        <ele>1273.4</ele>
        <time>2013-11-04T07:31:29Z</time>
      </trkpt>
      <trkpt lat="28.34507" lon="83.80103">
        <ele>1272.92</ele>
        <time>2013-11-04T07:31:43Z</time>
      </trkpt>
      <trkpt lat="28.34479" lon="83.80106">
        <ele>1271.96</ele>
        <time>2013-11-04T07:31:57Z</time>
      </trkpt>
      <trkpt lat="28.34476" lon="83.80113">
        <ele>1271.48</ele>
        <time>2013-11-04T07:32:12Z</time>
      </trkpt>
      <trkpt lat="28.34473" lon="83.80115">
        <ele>1271</ele>
        <time>2013-11-04T07:32:21Z</time>
      </trkpt>
      <trkpt lat="28.34463" lon="83.8012">
        <ele>1270.52</ele>
        <time>2013-11-04T07:32:33Z</time>
      </trkpt>
      <trkpt lat="28.34448" lon="83.80119">
        <ele>1268.6</ele>
        <time>2013-11-04T07:32:46Z</time>
      </trkpt>
      <trkpt lat="28.34437" lon="83.80119">
        <ele>1267.16</ele>
        <time>2013-11-04T07:32:58Z</time>
      </trkpt>
      <trkpt lat="28.34426" lon="83.80118">
        <ele>1266.19</ele>
        <time>2013-11-04T07:33:10Z</time>
      </trkpt>
      <trkpt lat="28.34416" lon="83.80117">
        <ele>1265.71</ele>
        <time>2013-11-04T07:33:18Z</time>
      </trkpt>
      <trkpt lat="28.34405" lon="83.80115">
        <ele>1264.75</ele>
        <time>2013-11-04T07:33:27Z</time>
      </trkpt>
      <trkpt lat="28.34398" lon="83.80115">
        <ele>1264.75</ele>
        <time>2013-11-04T07:33:33Z</time>
      </trkpt>
      <trkpt lat="28.34389" lon="83.80118">
        <ele>1264.75</ele>
        <time>2013-11-04T07:33:41Z</time>
      </trkpt>
      <trkpt lat="28.34376" lon="83.80124">
        <ele>1265.23</ele>
        <time>2013-11-04T07:33:54Z</time>
      </trkpt>
      <trkpt lat="28.34364" lon="83.80128">
        <ele>1265.71</ele>
        <time>2013-11-04T07:34:08Z</time>
      </trkpt>
      <trkpt lat="28.34359" lon="83.80132">
        <ele>1265.71</ele>
        <time>2013-11-04T07:34:15Z</time>
      </trkpt>
      <trkpt lat="28.3435" lon="83.80136">
        <ele>1266.19</ele>
        <time>2013-11-04T07:34:30Z</time>
      </trkpt>
      <trkpt lat="28.3435" lon="83.80136">
        <ele>1266.19</ele>
        <time>2013-11-04T07:34:46Z</time>
      </trkpt>
      <trkpt lat="28.34346" lon="83.80138">
        <ele>1266.19</ele>
        <time>2013-11-04T07:34:52Z</time>
      </trkpt>
      <trkpt lat="28.34328" lon="83.80134">
        <ele>1265.71</ele>
        <time>2013-11-04T07:35:04Z</time>
      </trkpt>
      <trkpt lat="28.34317" lon="83.80132">
        <ele>1265.23</ele>
        <time>2013-11-04T07:35:12Z</time>
      </trkpt>
      <trkpt lat="28.34303" lon="83.80135">
        <ele>1265.71</ele>
        <time>2013-11-04T07:35:24Z</time>
      </trkpt>
      <trkpt lat="28.34293" lon="83.80153">
        <ele>1268.12</ele>
        <time>2013-11-04T07:35:42Z</time>
      </trkpt>
      <trkpt lat="28.3429" lon="83.80161">
        <ele>1269.56</ele>
        <time>2013-11-04T07:35:49Z</time>
      </trkpt>
      <trkpt lat="28.34274" lon="83.80166">
        <ele>1271.48</ele>
        <time>2013-11-04T07:36:03Z</time>
      </trkpt>
      <trkpt lat="28.34266" lon="83.80168">
        <ele>1271.96</ele>
        <time>2013-11-04T07:36:11Z</time>
      </trkpt>
      <trkpt lat="28.34263" lon="83.80164">
        <ele>1271.96</ele>
        <time>2013-11-04T07:36:14Z</time>
      </trkpt>
      <trkpt lat="28.34255" lon="83.80155">
        <ele>1272.44</ele>
        <time>2013-11-04T07:36:26Z</time>
      </trkpt>
      <trkpt lat="28.34253" lon="83.80155">
        <ele>1272.44</ele>
        <time>2013-11-04T07:36:28Z</time>
      </trkpt>
      <trkpt lat="28.34238" lon="83.80151">
        <ele>1272.44</ele>
        <time>2013-11-04T07:36:40Z</time>
      </trkpt>
      <trkpt lat="28.34232" lon="83.8015">
        <ele>1272.44</ele>
        <time>2013-11-04T07:36:45Z</time>
      </trkpt>
      <trkpt lat="28.34225" lon="83.80145">
        <ele>1271.96</ele>
        <time>2013-11-04T07:36:52Z</time>
      </trkpt>
      <trkpt lat="28.3422" lon="83.8014">
        <ele>1271.96</ele>
        <time>2013-11-04T07:36:57Z</time>
      </trkpt>
      <trkpt lat="28.34215" lon="83.80132">
        <ele>1271.96</ele>
        <time>2013-11-04T07:37:02Z</time>
      </trkpt>
      <trkpt lat="28.34209" lon="83.80117">
        <ele>1271.96</ele>
        <time>2013-11-04T07:37:15Z</time>
      </trkpt>
      <trkpt lat="28.34202" lon="83.80099">
        <ele>1271.96</ele>
        <time>2013-11-04T07:37:28Z</time>
      </trkpt>
      <trkpt lat="28.342" lon="83.80096">
        <ele>1271.48</ele>
        <time>2013-11-04T07:37:31Z</time>
      </trkpt>
      <trkpt lat="28.34192" lon="83.80084">
        <ele>1271</ele>
        <time>2013-11-04T07:37:43Z</time>
      </trkpt>
      <trkpt lat="28.34191" lon="83.80084">
        <ele>1271</ele>
        <time>2013-11-04T07:37:44Z</time>
      </trkpt>
      <trkpt lat="28.34187" lon="83.80079">
        <ele>1270.52</ele>
        <time>2013-11-04T07:37:50Z</time>
      </trkpt>
      <trkpt lat="28.34186" lon="83.80077">
        <ele>1269.56</ele>
        <time>2013-11-04T07:37:52Z</time>
      </trkpt>
      <trkpt lat="28.34175" lon="83.80064">
        <ele>1267.64</ele>
        <time>2013-11-04T07:38:05Z</time>
      </trkpt>
      <trkpt lat="28.34171" lon="83.8006">
        <ele>1267.16</ele>
        <time>2013-11-04T07:38:20Z</time>
      </trkpt>
      <trkpt lat="28.34165" lon="83.80057">
        <ele>1266.67</ele>
        <time>2013-11-04T07:38:25Z</time>
      </trkpt>
      <trkpt lat="28.3416" lon="83.80054">
        <ele>1266.67</ele>
        <time>2013-11-04T07:38:31Z</time>
      </trkpt>
      <trkpt lat="28.34147" lon="83.80048">
        <ele>1265.71</ele>
        <time>2013-11-04T07:38:44Z</time>
      </trkpt>
      <trkpt lat="28.34135" lon="83.80044">
        <ele>1265.71</ele>
        <time>2013-11-04T07:38:55Z</time>
      </trkpt>
      <trkpt lat="28.34125" lon="83.80043">
        <ele>1265.71</ele>
        <time>2013-11-04T07:39:05Z</time>
      </trkpt>
      <trkpt lat="28.34115" lon="83.80035">
        <ele>1264.75</ele>
        <time>2013-11-04T07:39:17Z</time>
      </trkpt>
      <trkpt lat="28.34114" lon="83.80035">
        <ele>1264.27</ele>
        <time>2013-11-04T07:39:20Z</time>
      </trkpt>
      <trkpt lat="28.3411" lon="83.80031">
        <ele>1263.79</ele>
        <time>2013-11-04T07:39:25Z</time>
      </trkpt>
      <trkpt lat="28.341" lon="83.80026">
        <ele>1262.35</ele>
        <time>2013-11-04T07:39:36Z</time>
      </trkpt>
      <trkpt lat="28.34087" lon="83.80024">
        <ele>1259.94</ele>
        <time>2013-11-04T07:39:48Z</time>
      </trkpt>
      <trkpt lat="28.34084" lon="83.80025">
        <ele>1260.43</ele>
        <time>2013-11-04T07:39:51Z</time>
      </trkpt>
      <trkpt lat="28.34073" lon="83.80026">
        <ele>1258.5</ele>
        <time>2013-11-04T07:40:04Z</time>
      </trkpt>
      <trkpt lat="28.34072" lon="83.80025">
        <ele>1258.5</ele>
        <time>2013-11-04T07:40:05Z</time>
      </trkpt>
      <trkpt lat="28.34062" lon="83.80023">
        <ele>1256.58</ele>
        <time>2013-11-04T07:40:17Z</time>
      </trkpt>
      <trkpt lat="28.34054" lon="83.80022">
        <ele>1255.62</ele>
        <time>2013-11-04T07:40:28Z</time>
      </trkpt>
      <trkpt lat="28.34049" lon="83.80022">
        <ele>1255.14</ele>
        <time>2013-11-04T07:40:35Z</time>
      </trkpt>
      <trkpt lat="28.34043" lon="83.80021">
        <ele>1254.66</ele>
        <time>2013-11-04T07:40:40Z</time>
      </trkpt>
      <trkpt lat="28.34034" lon="83.80015">
        <ele>1254.18</ele>
        <time>2013-11-04T07:40:47Z</time>
      </trkpt>
      <trkpt lat="28.34026" lon="83.8001">
        <ele>1253.22</ele>
        <time>2013-11-04T07:40:56Z</time>
      </trkpt>
      <trkpt lat="28.34024" lon="83.8001">
        <ele>1252.74</ele>
        <time>2013-11-04T07:40:57Z</time>
      </trkpt>
      <trkpt lat="28.34003" lon="83.80007">
        <ele>1251.29</ele>
        <time>2013-11-04T07:41:11Z</time>
      </trkpt>
      <trkpt lat="28.3399" lon="83.80009">
        <ele>1250.33</ele>
        <time>2013-11-04T07:41:23Z</time>
      </trkpt>
      <trkpt lat="28.33989" lon="83.80008">
        <ele>1250.33</ele>
        <time>2013-11-04T07:41:24Z</time>
      </trkpt>
      <trkpt lat="28.33978" lon="83.80003">
        <ele>1248.89</ele>
        <time>2013-11-04T07:41:36Z</time>
      </trkpt>
      <trkpt lat="28.33975" lon="83.80005">
        <ele>1248.89</ele>
        <time>2013-11-04T07:41:46Z</time>
      </trkpt>
      <trkpt lat="28.33958" lon="83.79997">
        <ele>1247.45</ele>
        <time>2013-11-04T07:41:59Z</time>
      </trkpt>
      <trkpt lat="28.33953" lon="83.79995">
        <ele>1246.49</ele>
        <time>2013-11-04T07:42:03Z</time>
      </trkpt>
      <trkpt lat="28.33944" lon="83.79985">
        <ele>1244.08</ele>
        <time>2013-11-04T07:42:16Z</time>
      </trkpt>
      <trkpt lat="28.33932" lon="83.7998">
        <ele>1241.2</ele>
        <time>2013-11-04T07:42:28Z</time>
      </trkpt>
      <trkpt lat="28.33929" lon="83.79979">
        <ele>1240.72</ele>
        <time>2013-11-04T07:42:37Z</time>
      </trkpt>
      <trkpt lat="28.33924" lon="83.79976">
        <ele>1239.76</ele>
        <time>2013-11-04T07:42:43Z</time>
      </trkpt>
      <trkpt lat="28.33916" lon="83.79976">
        <ele>1239.28</ele>
        <time>2013-11-04T07:42:48Z</time>
      </trkpt>
      <trkpt lat="28.33909" lon="83.79976">
        <ele>1238.32</ele>
        <time>2013-11-04T07:42:54Z</time>
      </trkpt>
      <trkpt lat="28.3389" lon="83.79974">
        <ele>1237.35</ele>
        <time>2013-11-04T07:43:08Z</time>
      </trkpt>
      <trkpt lat="28.33889" lon="83.79975">
        <ele>1237.35</ele>
        <time>2013-11-04T07:43:09Z</time>
      </trkpt>
      <trkpt lat="28.33877" lon="83.79978">
        <ele>1237.35</ele>
        <time>2013-11-04T07:43:17Z</time>
      </trkpt>
      <trkpt lat="28.33868" lon="83.79977">
        <ele>1236.87</ele>
        <time>2013-11-04T07:43:28Z</time>
      </trkpt>
      <trkpt lat="28.33862" lon="83.79977">
        <ele>1236.39</ele>
        <time>2013-11-04T07:43:32Z</time>
      </trkpt>
      <trkpt lat="28.33858" lon="83.79976">
        <ele>1236.39</ele>
        <time>2013-11-04T07:43:35Z</time>
      </trkpt>
      <trkpt lat="28.33853" lon="83.79974">
        <ele>1235.43</ele>
        <time>2013-11-04T07:43:38Z</time>
      </trkpt>
      <trkpt lat="28.33838" lon="83.79966">
        <ele>1233.51</ele>
        <time>2013-11-04T07:43:52Z</time>
      </trkpt>
      <trkpt lat="28.33834" lon="83.79964">
        <ele>1232.55</ele>
        <time>2013-11-04T07:43:57Z</time>
      </trkpt>
      <trkpt lat="28.33822" lon="83.79965">
        <ele>1231.59</ele>
        <time>2013-11-04T07:44:04Z</time>
      </trkpt>
      <trkpt lat="28.33819" lon="83.79967">
        <ele>1231.11</ele>
        <time>2013-11-04T07:44:08Z</time>
      </trkpt>
      <trkpt lat="28.33815" lon="83.79969">
        <ele>1230.62</ele>
        <time>2013-11-04T07:44:13Z</time>
      </trkpt>
      <trkpt lat="28.33811" lon="83.79968">
        <ele>1230.14</ele>
        <time>2013-11-04T07:44:17Z</time>
      </trkpt>
      <trkpt lat="28.33795" lon="83.79969">
        <ele>1228.7</ele>
        <time>2013-11-04T07:44:28Z</time>
      </trkpt>
      <trkpt lat="28.3379" lon="83.79969">
        <ele>1228.22</ele>
        <time>2013-11-04T07:44:31Z</time>
      </trkpt>
      <trkpt lat="28.33776" lon="83.79963">
        <ele>1226.78</ele>
        <time>2013-11-04T07:44:43Z</time>
      </trkpt>
      <trkpt lat="28.33763" lon="83.79956">
        <ele>1225.82</ele>
        <time>2013-11-04T07:44:53Z</time>
      </trkpt>
      <trkpt lat="28.33747" lon="83.79951">
        <ele>1224.86</ele>
        <time>2013-11-04T07:45:05Z</time>
      </trkpt>
      <trkpt lat="28.33736" lon="83.79946">
        <ele>1224.38</ele>
        <time>2013-11-04T07:45:16Z</time>
      </trkpt>
      <trkpt lat="28.33721" lon="83.79947">
        <ele>1222.93</ele>
        <time>2013-11-04T07:45:29Z</time>
      </trkpt>
      <trkpt lat="28.33707" lon="83.79945">
        <ele>1221.97</ele>
        <time>2013-11-04T07:45:41Z</time>
      </trkpt>
      <trkpt lat="28.33703" lon="83.79945">
        <ele>1221.97</ele>
        <time>2013-11-04T07:45:48Z</time>
      </trkpt>
      <trkpt lat="28.33691" lon="83.7994">
        <ele>1220.53</ele>
        <time>2013-11-04T07:45:59Z</time>
      </trkpt>
      <trkpt lat="28.33678" lon="83.79938">
        <ele>1219.09</ele>
        <time>2013-11-04T07:46:11Z</time>
      </trkpt>
      <trkpt lat="28.33676" lon="83.79938">
        <ele>1218.61</ele>
        <time>2013-11-04T07:46:13Z</time>
      </trkpt>
      <trkpt lat="28.33663" lon="83.79936">
        <ele>1216.69</ele>
        <time>2013-11-04T07:46:25Z</time>
      </trkpt>
      <trkpt lat="28.33655" lon="83.79934">
        <ele>1215.72</ele>
        <time>2013-11-04T07:46:34Z</time>
      </trkpt>
      <trkpt lat="28.33642" lon="83.79935">
        <ele>1214.28</ele>
        <time>2013-11-04T07:46:44Z</time>
      </trkpt>
      <trkpt lat="28.33635" lon="83.79935">
        <ele>1213.8</ele>
        <time>2013-11-04T07:46:50Z</time>
      </trkpt>
      <trkpt lat="28.33633" lon="83.79934">
        <ele>1213.32</ele>
        <time>2013-11-04T07:46:52Z</time>
      </trkpt>
      <trkpt lat="28.33615" lon="83.79931">
        <ele>1211.4</ele>
        <time>2013-11-04T07:47:05Z</time>
      </trkpt>
      <trkpt lat="28.33602" lon="83.79935">
        <ele>1209.48</ele>
        <time>2013-11-04T07:47:15Z</time>
      </trkpt>
      <trkpt lat="28.33597" lon="83.79935">
        <ele>1208.03</ele>
        <time>2013-11-04T07:47:21Z</time>
      </trkpt>
      <trkpt lat="28.33589" lon="83.79935">
        <ele>1207.55</ele>
        <time>2013-11-04T07:47:25Z</time>
      </trkpt>
      <trkpt lat="28.33573" lon="83.79928">
        <ele>1205.63</ele>
        <time>2013-11-04T07:47:38Z</time>
      </trkpt>
      <trkpt lat="28.3356" lon="83.79921">
        <ele>1204.19</ele>
        <time>2013-11-04T07:47:47Z</time>
      </trkpt>
      <trkpt lat="28.33554" lon="83.79917">
        <ele>1203.23</ele>
        <time>2013-11-04T07:47:53Z</time>
      </trkpt>
      <trkpt lat="28.33546" lon="83.79914">
        <ele>1202.75</ele>
        <time>2013-11-04T07:48:01Z</time>
      </trkpt>
      <trkpt lat="28.33544" lon="83.79912">
        <ele>1202.75</ele>
        <time>2013-11-04T07:48:03Z</time>
      </trkpt>
      <trkpt lat="28.33532" lon="83.79907">
        <ele>1201.79</ele>
        <time>2013-11-04T07:48:14Z</time>
      </trkpt>
      <trkpt lat="28.33519" lon="83.79906">
        <ele>1200.34</ele>
        <time>2013-11-04T07:48:25Z</time>
      </trkpt>
      <trkpt lat="28.33504" lon="83.799">
        <ele>1197.46</ele>
        <time>2013-11-04T07:48:36Z</time>
      </trkpt>
      <trkpt lat="28.33493" lon="83.79895">
        <ele>1195.54</ele>
        <time>2013-11-04T07:48:47Z</time>
      </trkpt>
      <trkpt lat="28.33485" lon="83.79893">
        <ele>1194.58</ele>
        <time>2013-11-04T07:48:53Z</time>
      </trkpt>
      <trkpt lat="28.33475" lon="83.79886">
        <ele>1193.61</ele>
        <time>2013-11-04T07:49:04Z</time>
      </trkpt>
      <trkpt lat="28.33475" lon="83.79886">
        <ele>1194.09</ele>
        <time>2013-11-04T07:49:05Z</time>
      </trkpt>
      <trkpt lat="28.33474" lon="83.79884">
        <ele>1193.61</ele>
        <time>2013-11-04T07:49:07Z</time>
      </trkpt>
      <trkpt lat="28.33462" lon="83.7987">
        <ele>1191.21</ele>
        <time>2013-11-04T07:49:21Z</time>
      </trkpt>
      <trkpt lat="28.33461" lon="83.7987">
        <ele>1191.21</ele>
        <time>2013-11-04T07:49:22Z</time>
      </trkpt>
      <trkpt lat="28.33457" lon="83.79865">
        <ele>1190.25</ele>
        <time>2013-11-04T07:49:26Z</time>
      </trkpt>
      <trkpt lat="28.33446" lon="83.79851">
        <ele>1187.37</ele>
        <time>2013-11-04T07:49:39Z</time>
      </trkpt>
      <trkpt lat="28.33442" lon="83.79848">
        <ele>1186.88</ele>
        <time>2013-11-04T07:49:45Z</time>
      </trkpt>
      <trkpt lat="28.33438" lon="83.79845">
        <ele>1186.4</ele>
        <time>2013-11-04T07:49:48Z</time>
      </trkpt>
      <trkpt lat="28.33429" lon="83.79836">
        <ele>1184.96</ele>
        <time>2013-11-04T07:49:59Z</time>
      </trkpt>
      <trkpt lat="28.33426" lon="83.79834">
        <ele>1184.96</ele>
        <time>2013-11-04T07:50:02Z</time>
      </trkpt>
      <trkpt lat="28.33419" lon="83.7983">
        <ele>1184</ele>
        <time>2013-11-04T07:50:08Z</time>
      </trkpt>
      <trkpt lat="28.33414" lon="83.79827">
        <ele>1183.52</ele>
        <time>2013-11-04T07:50:13Z</time>
      </trkpt>
      <trkpt lat="28.33411" lon="83.79824">
        <ele>1182.56</ele>
        <time>2013-11-04T07:50:15Z</time>
      </trkpt>
      <trkpt lat="28.3341" lon="83.79824">
        <ele>1182.56</ele>
        <time>2013-11-04T07:50:16Z</time>
      </trkpt>
      <trkpt lat="28.33407" lon="83.79823">
        <ele>1182.08</ele>
        <time>2013-11-04T07:50:19Z</time>
      </trkpt>
      <trkpt lat="28.33393" lon="83.79815">
        <ele>1180.64</ele>
        <time>2013-11-04T07:50:32Z</time>
      </trkpt>
      <trkpt lat="28.33389" lon="83.79813">
        <ele>1180.16</ele>
        <time>2013-11-04T07:50:36Z</time>
      </trkpt>
      <trkpt lat="28.33387" lon="83.79812">
        <ele>1179.19</ele>
        <time>2013-11-04T07:50:38Z</time>
      </trkpt>
      <trkpt lat="28.33383" lon="83.79809">
        <ele>1179.67</ele>
        <time>2013-11-04T07:50:41Z</time>
      </trkpt>
      <trkpt lat="28.3337" lon="83.7981">
        <ele>1177.75</ele>
        <time>2013-11-04T07:50:51Z</time>
      </trkpt>
      <trkpt lat="28.33367" lon="83.7981">
        <ele>1177.27</ele>
        <time>2013-11-04T07:50:54Z</time>
      </trkpt>
      <trkpt lat="28.33353" lon="83.79807">
        <ele>1176.31</ele>
        <time>2013-11-04T07:51:05Z</time>
      </trkpt>
      <trkpt lat="28.33355" lon="83.79807">
        <ele>1175.83</ele>
        <time>2013-11-04T07:51:10Z</time>
      </trkpt>
      <trkpt lat="28.33354" lon="83.79809">
        <ele>1175.83</ele>
        <time>2013-11-04T07:51:24Z</time>
      </trkpt>
      <trkpt lat="28.33354" lon="83.7981">
        <ele>1175.35</ele>
        <time>2013-11-04T07:51:25Z</time>
      </trkpt>
      <trkpt lat="28.3334" lon="83.79802">
        <ele>1174.87</ele>
        <time>2013-11-04T07:51:36Z</time>
      </trkpt>
      <trkpt lat="28.3333" lon="83.79796">
        <ele>1172.95</ele>
        <time>2013-11-04T07:51:46Z</time>
      </trkpt>
      <trkpt lat="28.33318" lon="83.79791">
        <ele>1172.95</ele>
        <time>2013-11-04T07:51:56Z</time>
      </trkpt>
      <trkpt lat="28.33308" lon="83.79789">
        <ele>1171.98</ele>
        <time>2013-11-04T07:52:04Z</time>
      </trkpt>
      <trkpt lat="28.33304" lon="83.79786">
        <ele>1171.5</ele>
        <time>2013-11-04T07:52:09Z</time>
      </trkpt>
      <trkpt lat="28.33294" lon="83.7978">
        <ele>1170.06</ele>
        <time>2013-11-04T07:52:18Z</time>
      </trkpt>
      <trkpt lat="28.33292" lon="83.7978">
        <ele>1170.06</ele>
        <time>2013-11-04T07:52:19Z</time>
      </trkpt>
      <trkpt lat="28.33275" lon="83.79773">
        <ele>1169.1</ele>
        <time>2013-11-04T07:52:32Z</time>
      </trkpt>
      <trkpt lat="28.33271" lon="83.79772">
        <ele>1168.62</ele>
        <time>2013-11-04T07:52:35Z</time>
      </trkpt>
      <trkpt lat="28.33271" lon="83.79769">
        <ele>1168.62</ele>
        <time>2013-11-04T07:52:38Z</time>
      </trkpt>
      <trkpt lat="28.33267" lon="83.79755">
        <ele>1168.14</ele>
        <time>2013-11-04T07:52:49Z</time>
      </trkpt>
      <trkpt lat="28.33276" lon="83.79737">
        <ele>1166.7</ele>
        <time>2013-11-04T07:53:07Z</time>
      </trkpt>
      <trkpt lat="28.33272" lon="83.79723">
        <ele>1165.74</ele>
        <time>2013-11-04T07:53:19Z</time>
      </trkpt>
      <trkpt lat="28.33269" lon="83.79721">
        <ele>1166.22</ele>
        <time>2013-11-04T07:53:24Z</time>
      </trkpt>
      <trkpt lat="28.33262" lon="83.79723">
        <ele>1166.7</ele>
        <time>2013-11-04T07:53:33Z</time>
      </trkpt>
      <trkpt lat="28.33252" lon="83.79727">
        <ele>1164.77</ele>
        <time>2013-11-04T07:53:42Z</time>
      </trkpt>
      <trkpt lat="28.33251" lon="83.79728">
        <ele>1164.77</ele>
        <time>2013-11-04T07:53:43Z</time>
      </trkpt>
      <trkpt lat="28.33236" lon="83.79733">
        <ele>1161.89</ele>
        <time>2013-11-04T07:53:57Z</time>
      </trkpt>
      <trkpt lat="28.33232" lon="83.79734">
        <ele>1160.93</ele>
        <time>2013-11-04T07:54:01Z</time>
      </trkpt>
      <trkpt lat="28.33214" lon="83.79737">
        <ele>1158.53</ele>
        <time>2013-11-04T07:54:17Z</time>
      </trkpt>
      <trkpt lat="28.33211" lon="83.79739">
        <ele>1158.05</ele>
        <time>2013-11-04T07:54:20Z</time>
      </trkpt>
      <trkpt lat="28.33197" lon="83.79741">
        <ele>1156.12</ele>
        <time>2013-11-04T07:54:32Z</time>
      </trkpt>
      <trkpt lat="28.33194" lon="83.79743">
        <ele>1155.64</ele>
        <time>2013-11-04T07:54:35Z</time>
      </trkpt>
      <trkpt lat="28.33179" lon="83.79748">
        <ele>1154.68</ele>
        <time>2013-11-04T07:54:48Z</time>
      </trkpt>
      <trkpt lat="28.33173" lon="83.79754">
        <ele>1153.24</ele>
        <time>2013-11-04T07:55:00Z</time>
      </trkpt>
      <trkpt lat="28.33164" lon="83.7976">
        <ele>1151.32</ele>
        <time>2013-11-04T07:55:10Z</time>
      </trkpt>
      <trkpt lat="28.3315" lon="83.79776">
        <ele>1149.87</ele>
        <time>2013-11-04T07:55:24Z</time>
      </trkpt>
      <trkpt lat="28.3315" lon="83.79775">
        <ele>1149.87</ele>
        <time>2013-11-04T07:55:36Z</time>
      </trkpt>
      <trkpt lat="28.33141" lon="83.79774">
        <ele>1149.39</ele>
        <time>2013-11-04T07:55:48Z</time>
      </trkpt>
      <trkpt lat="28.33125" lon="83.7977">
        <ele>1147.47</ele>
        <time>2013-11-04T07:56:01Z</time>
      </trkpt>
      <trkpt lat="28.33124" lon="83.7977">
        <ele>1147.47</ele>
        <time>2013-11-04T07:56:02Z</time>
      </trkpt>
      <trkpt lat="28.3312" lon="83.7977">
        <ele>1146.99</ele>
        <time>2013-11-04T07:56:05Z</time>
      </trkpt>
      <trkpt lat="28.33108" lon="83.79768">
        <ele>1145.07</ele>
        <time>2013-11-04T07:56:15Z</time>
      </trkpt>
      <trkpt lat="28.33105" lon="83.79766">
        <ele>1144.59</ele>
        <time>2013-11-04T07:56:18Z</time>
      </trkpt>
      <trkpt lat="28.33084" lon="83.79761">
        <ele>1142.18</ele>
        <time>2013-11-04T07:56:33Z</time>
      </trkpt>
      <trkpt lat="28.33082" lon="83.79762">
        <ele>1142.18</ele>
        <time>2013-11-04T07:56:34Z</time>
      </trkpt>
      <trkpt lat="28.3308" lon="83.79763">
        <ele>1141.7</ele>
        <time>2013-11-04T07:56:36Z</time>
      </trkpt>
      <trkpt lat="28.33071" lon="83.79758">
        <ele>1139.78</ele>
        <time>2013-11-04T07:56:47Z</time>
      </trkpt>
      <trkpt lat="28.33059" lon="83.79754">
        <ele>1137.86</ele>
        <time>2013-11-04T07:56:59Z</time>
      </trkpt>
      <trkpt lat="28.33049" lon="83.79749">
        <ele>1136.42</ele>
        <time>2013-11-04T07:57:09Z</time>
      </trkpt>
      <trkpt lat="28.33039" lon="83.79745">
        <ele>1135.45</ele>
        <time>2013-11-04T07:57:21Z</time>
      </trkpt>
      <trkpt lat="28.33023" lon="83.79738">
        <ele>1133.53</ele>
        <time>2013-11-04T07:57:34Z</time>
      </trkpt>
      <trkpt lat="28.33021" lon="83.79736">
        <ele>1133.05</ele>
        <time>2013-11-04T07:57:36Z</time>
      </trkpt>
      <trkpt lat="28.33013" lon="83.79728">
        <ele>1132.09</ele>
        <time>2013-11-04T07:57:47Z</time>
      </trkpt>
      <trkpt lat="28.33002" lon="83.79722">
        <ele>1130.17</ele>
        <time>2013-11-04T07:57:58Z</time>
      </trkpt>
      <trkpt lat="28.33005" lon="83.79722">
        <ele>1130.17</ele>
        <time>2013-11-04T07:58:05Z</time>
      </trkpt>
      <trkpt lat="28.32997" lon="83.79715">
        <ele>1128.73</ele>
        <time>2013-11-04T07:58:14Z</time>
      </trkpt>
      <trkpt lat="28.32985" lon="83.79705">
        <ele>1127.28</ele>
        <time>2013-11-04T07:58:27Z</time>
      </trkpt>
      <trkpt lat="28.3298" lon="83.79703">
        <ele>1126.32</ele>
        <time>2013-11-04T07:58:31Z</time>
      </trkpt>
      <trkpt lat="28.32974" lon="83.79699">
        <ele>1125.84</ele>
        <time>2013-11-04T07:58:36Z</time>
      </trkpt>
      <trkpt lat="28.32965" lon="83.79691">
        <ele>1124.4</ele>
        <time>2013-11-04T07:58:46Z</time>
      </trkpt>
      <trkpt lat="28.32964" lon="83.79691">
        <ele>1124.4</ele>
        <time>2013-11-04T07:58:47Z</time>
      </trkpt>
      <trkpt lat="28.32957" lon="83.79685">
        <ele>1123.92</ele>
        <time>2013-11-04T07:58:55Z</time>
      </trkpt>
      <trkpt lat="28.32955" lon="83.79678">
        <ele>1123.44</ele>
        <time>2013-11-04T07:59:02Z</time>
      </trkpt>
      <trkpt lat="28.32948" lon="83.79674">
        <ele>1122.96</ele>
        <time>2013-11-04T07:59:13Z</time>
      </trkpt>
      <trkpt lat="28.32936" lon="83.7967">
        <ele>1123.44</ele>
        <time>2013-11-04T07:59:25Z</time>
      </trkpt>
      <trkpt lat="28.32927" lon="83.79666">
        <ele>1122.48</ele>
        <time>2013-11-04T07:59:33Z</time>
      </trkpt>
      <trkpt lat="28.32915" lon="83.79665">
        <ele>1122</ele>
        <time>2013-11-04T07:59:46Z</time>
      </trkpt>
      <trkpt lat="28.32911" lon="83.7966">
        <ele>1121.52</ele>
        <time>2013-11-04T08:00:02Z</time>
      </trkpt>
      <trkpt lat="28.32909" lon="83.79656">
        <ele>1122</ele>
        <time>2013-11-04T08:00:07Z</time>
      </trkpt>
      <trkpt lat="28.32898" lon="83.7965">
        <ele>1121.52</ele>
        <time>2013-11-04T08:00:18Z</time>
      </trkpt>
      <trkpt lat="28.32891" lon="83.79646">
        <ele>1121.52</ele>
        <time>2013-11-04T08:00:28Z</time>
      </trkpt>
      <trkpt lat="28.32881" lon="83.79643">
        <ele>1121.52</ele>
        <time>2013-11-04T08:00:39Z</time>
      </trkpt>
      <trkpt lat="28.3288" lon="83.79642">
        <ele>1121.03</ele>
        <time>2013-11-04T08:00:40Z</time>
      </trkpt>
      <trkpt lat="28.32866" lon="83.79636">
        <ele>1120.55</ele>
        <time>2013-11-04T08:00:51Z</time>
      </trkpt>
      <trkpt lat="28.32862" lon="83.79636">
        <ele>1120.55</ele>
        <time>2013-11-04T08:00:56Z</time>
      </trkpt>
      <trkpt lat="28.32853" lon="83.79634">
        <ele>1121.03</ele>
        <time>2013-11-04T08:01:04Z</time>
      </trkpt>
      <trkpt lat="28.3284" lon="83.7963">
        <ele>1121.03</ele>
        <time>2013-11-04T08:01:15Z</time>
      </trkpt>
      <trkpt lat="28.32838" lon="83.7963">
        <ele>1121.03</ele>
        <time>2013-11-04T08:01:17Z</time>
      </trkpt>
      <trkpt lat="28.3283" lon="83.79627">
        <ele>1120.55</ele>
        <time>2013-11-04T08:01:24Z</time>
      </trkpt>
      <trkpt lat="28.32829" lon="83.79625">
        <ele>1121.03</ele>
        <time>2013-11-04T08:01:26Z</time>
      </trkpt>
      <trkpt lat="28.32824" lon="83.79623">
        <ele>1120.55</ele>
        <time>2013-11-04T08:01:30Z</time>
      </trkpt>
      <trkpt lat="28.32819" lon="83.79618">
        <ele>1120.55</ele>
        <time>2013-11-04T08:01:36Z</time>
      </trkpt>
      <trkpt lat="28.32815" lon="83.79613">
        <ele>1120.07</ele>
        <time>2013-11-04T08:01:42Z</time>
      </trkpt>
      <trkpt lat="28.32809" lon="83.79609">
        <ele>1120.07</ele>
        <time>2013-11-04T08:01:48Z</time>
      </trkpt>
      <trkpt lat="28.32804" lon="83.79606">
        <ele>1119.59</ele>
        <time>2013-11-04T08:01:54Z</time>
      </trkpt>
      <trkpt lat="28.32798" lon="83.79605">
        <ele>1118.63</ele>
        <time>2013-11-04T08:01:59Z</time>
      </trkpt>
      <trkpt lat="28.32788" lon="83.796">
        <ele>1118.15</ele>
        <time>2013-11-04T08:02:13Z</time>
      </trkpt>
      <trkpt lat="28.3278" lon="83.79595">
        <ele>1117.67</ele>
        <time>2013-11-04T08:02:22Z</time>
      </trkpt>
      <trkpt lat="28.32768" lon="83.79588">
        <ele>1116.71</ele>
        <time>2013-11-04T08:02:35Z</time>
      </trkpt>
      <trkpt lat="28.32761" lon="83.79585">
        <ele>1116.71</ele>
        <time>2013-11-04T08:02:44Z</time>
      </trkpt>
      <trkpt lat="28.32754" lon="83.79576">
        <ele>1116.23</ele>
        <time>2013-11-04T08:02:55Z</time>
      </trkpt>
      <trkpt lat="28.32744" lon="83.79564">
        <ele>1116.23</ele>
        <time>2013-11-04T08:03:07Z</time>
      </trkpt>
      <trkpt lat="28.32743" lon="83.79564">
        <ele>1116.23</ele>
        <time>2013-11-04T08:03:08Z</time>
      </trkpt>
      <trkpt lat="28.32733" lon="83.79556">
        <ele>1115.75</ele>
        <time>2013-11-04T08:03:19Z</time>
      </trkpt>
      <trkpt lat="28.32728" lon="83.79548">
        <ele>1115.27</ele>
        <time>2013-11-04T08:03:30Z</time>
      </trkpt>
      <trkpt lat="28.32724" lon="83.79538">
        <ele>1115.75</ele>
        <time>2013-11-04T08:03:40Z</time>
      </trkpt>
      <trkpt lat="28.32716" lon="83.79525">
        <ele>1116.71</ele>
        <time>2013-11-04T08:03:51Z</time>
      </trkpt>
      <trkpt lat="28.32714" lon="83.79522">
        <ele>1116.71</ele>
        <time>2013-11-04T08:03:54Z</time>
      </trkpt>
      <trkpt lat="28.32706" lon="83.7951">
        <ele>1117.67</ele>
        <time>2013-11-04T08:04:06Z</time>
      </trkpt>
      <trkpt lat="28.32701" lon="83.795">
        <ele>1119.11</ele>
        <time>2013-11-04T08:04:19Z</time>
      </trkpt>
      <trkpt lat="28.32695" lon="83.7949">
        <ele>1120.55</ele>
        <time>2013-11-04T08:04:31Z</time>
      </trkpt>
      <trkpt lat="28.32685" lon="83.79476">
        <ele>1122</ele>
        <time>2013-11-04T08:04:47Z</time>
      </trkpt>
      <trkpt lat="28.32679" lon="83.79471">
        <ele>1122.48</ele>
        <time>2013-11-04T08:05:00Z</time>
      </trkpt>
      <trkpt lat="28.32677" lon="83.79468">
        <ele>1122.48</ele>
        <time>2013-11-04T08:05:03Z</time>
      </trkpt>
      <trkpt lat="28.32673" lon="83.79464">
        <ele>1122.96</ele>
        <time>2013-11-04T08:05:08Z</time>
      </trkpt>
      <trkpt lat="28.32669" lon="83.79458">
        <ele>1122.96</ele>
        <time>2013-11-04T08:05:13Z</time>
      </trkpt>
      <trkpt lat="28.32666" lon="83.79451">
        <ele>1123.44</ele>
        <time>2013-11-04T08:05:20Z</time>
      </trkpt>
      <trkpt lat="28.32664" lon="83.79445">
        <ele>1122.96</ele>
        <time>2013-11-04T08:05:24Z</time>
      </trkpt>
      <trkpt lat="28.32658" lon="83.79429">
        <ele>1121.52</ele>
        <time>2013-11-04T08:05:37Z</time>
      </trkpt>
      <trkpt lat="28.32652" lon="83.79416">
        <ele>1120.55</ele>
        <time>2013-11-04T08:05:48Z</time>
      </trkpt>
      <trkpt lat="28.32644" lon="83.79406">
        <ele>1120.07</ele>
        <time>2013-11-04T08:06:00Z</time>
      </trkpt>
      <trkpt lat="28.32635" lon="83.79395">
        <ele>1119.59</ele>
        <time>2013-11-04T08:06:13Z</time>
      </trkpt>
      <trkpt lat="28.32626" lon="83.79382">
        <ele>1118.15</ele>
        <time>2013-11-04T08:06:24Z</time>
      </trkpt>
      <trkpt lat="28.32625" lon="83.7938">
        <ele>1118.15</ele>
        <time>2013-11-04T08:06:26Z</time>
      </trkpt>
      <trkpt lat="28.32621" lon="83.79375">
        <ele>1117.67</ele>
        <time>2013-11-04T08:06:31Z</time>
      </trkpt>
      <trkpt lat="28.32613" lon="83.79372">
        <ele>1117.19</ele>
        <time>2013-11-04T08:06:36Z</time>
      </trkpt>
      <trkpt lat="28.32608" lon="83.7937">
        <ele>1116.71</ele>
        <time>2013-11-04T08:06:41Z</time>
      </trkpt>
      <trkpt lat="28.32596" lon="83.79365">
        <ele>1116.23</ele>
        <time>2013-11-04T08:06:50Z</time>
      </trkpt>
      <trkpt lat="28.32583" lon="83.79357">
        <ele>1115.27</ele>
        <time>2013-11-04T08:07:02Z</time>
      </trkpt>
      <trkpt lat="28.3258" lon="83.79354">
        <ele>1114.79</ele>
        <time>2013-11-04T08:07:05Z</time>
      </trkpt>
      <trkpt lat="28.32579" lon="83.79352">
        <ele>1114.79</ele>
        <time>2013-11-04T08:07:07Z</time>
      </trkpt>
      <trkpt lat="28.32572" lon="83.7934">
        <ele>1113.82</ele>
        <time>2013-11-04T08:07:18Z</time>
      </trkpt>
      <trkpt lat="28.32572" lon="83.7934">
        <ele>1114.31</ele>
        <time>2013-11-04T08:07:19Z</time>
      </trkpt>
      <trkpt lat="28.32565" lon="83.79336">
        <ele>1114.79</ele>
        <time>2013-11-04T08:07:24Z</time>
      </trkpt>
      <trkpt lat="28.3255" lon="83.7932">
        <ele>1116.23</ele>
        <time>2013-11-04T08:07:38Z</time>
      </trkpt>
      <trkpt lat="28.32538" lon="83.79313">
        <ele>1116.71</ele>
        <time>2013-11-04T08:07:49Z</time>
      </trkpt>
      <trkpt lat="28.32526" lon="83.79305">
        <ele>1117.19</ele>
        <time>2013-11-04T08:08:02Z</time>
      </trkpt>
      <trkpt lat="28.32524" lon="83.79304">
        <ele>1117.19</ele>
        <time>2013-11-04T08:08:04Z</time>
      </trkpt>
      <trkpt lat="28.32522" lon="83.79302">
        <ele>1117.19</ele>
        <time>2013-11-04T08:08:06Z</time>
      </trkpt>
      <trkpt lat="28.32518" lon="83.79301">
        <ele>1116.71</ele>
        <time>2013-11-04T08:08:09Z</time>
      </trkpt>
      <trkpt lat="28.32507" lon="83.79292">
        <ele>1115.27</ele>
        <time>2013-11-04T08:08:22Z</time>
      </trkpt>
      <trkpt lat="28.32506" lon="83.79292">
        <ele>1115.27</ele>
        <time>2013-11-04T08:08:23Z</time>
      </trkpt>
      <trkpt lat="28.32491" lon="83.79295">
        <ele>1114.79</ele>
        <time>2013-11-04T08:08:35Z</time>
      </trkpt>
      <trkpt lat="28.32484" lon="83.79297">
        <ele>1113.82</ele>
        <time>2013-11-04T08:08:42Z</time>
      </trkpt>
      <trkpt lat="28.32478" lon="83.793">
        <ele>1112.86</ele>
        <time>2013-11-04T08:08:46Z</time>
      </trkpt>
      <trkpt lat="28.32471" lon="83.79298">
        <ele>1112.86</ele>
        <time>2013-11-04T08:08:52Z</time>
      </trkpt>
      <trkpt lat="28.32462" lon="83.79283">
        <ele>1111.42</ele>
        <time>2013-11-04T08:09:04Z</time>
      </trkpt>
      <trkpt lat="28.32458" lon="83.79274">
        <ele>1111.9</ele>
        <time>2013-11-04T08:09:10Z</time>
      </trkpt>
      <trkpt lat="28.32456" lon="83.79259">
        <ele>1109.98</ele>
        <time>2013-11-04T08:09:21Z</time>
      </trkpt>
      <trkpt lat="28.32453" lon="83.79256">
        <ele>1109.02</ele>
        <time>2013-11-04T08:09:25Z</time>
      </trkpt>
      <trkpt lat="28.32451" lon="83.79253">
        <ele>1109.02</ele>
        <time>2013-11-04T08:09:28Z</time>
      </trkpt>
      <trkpt lat="28.32442" lon="83.79244">
        <ele>1108.06</ele>
        <time>2013-11-04T08:09:35Z</time>
      </trkpt>
      <trkpt lat="28.32436" lon="83.79237">
        <ele>1107.58</ele>
        <time>2013-11-04T08:09:42Z</time>
      </trkpt>
      <trkpt lat="28.32433" lon="83.79232">
        <ele>1107.58</ele>
        <time>2013-11-04T08:09:46Z</time>
      </trkpt>
      <trkpt lat="28.32424" lon="83.7922">
        <ele>1108.54</ele>
        <time>2013-11-04T08:09:58Z</time>
      </trkpt>
      <trkpt lat="28.32419" lon="83.79209">
        <ele>1108.06</ele>
        <time>2013-11-04T08:10:07Z</time>
      </trkpt>
      <trkpt lat="28.32404" lon="83.79195">
        <ele>1106.61</ele>
        <time>2013-11-04T08:10:21Z</time>
      </trkpt>
      <trkpt lat="28.32401" lon="83.79193">
        <ele>1106.13</ele>
        <time>2013-11-04T08:10:25Z</time>
      </trkpt>
      <trkpt lat="28.32396" lon="83.79189">
        <ele>1105.65</ele>
        <time>2013-11-04T08:10:29Z</time>
      </trkpt>
      <trkpt lat="28.32383" lon="83.79181">
        <ele>1104.69</ele>
        <time>2013-11-04T08:10:41Z</time>
      </trkpt>
      <trkpt lat="28.32374" lon="83.79171">
        <ele>1104.69</ele>
        <time>2013-11-04T08:10:51Z</time>
      </trkpt>
      <trkpt lat="28.32373" lon="83.79167">
        <ele>1103.73</ele>
        <time>2013-11-04T08:10:58Z</time>
      </trkpt>
      <trkpt lat="28.32372" lon="83.79164">
        <ele>1104.21</ele>
        <time>2013-11-04T08:11:00Z</time>
      </trkpt>
      <trkpt lat="28.32368" lon="83.79161">
        <ele>1104.21</ele>
        <time>2013-11-04T08:11:03Z</time>
      </trkpt>
      <trkpt lat="28.32365" lon="83.7916">
        <ele>1103.73</ele>
        <time>2013-11-04T08:11:06Z</time>
      </trkpt>
      <trkpt lat="28.32354" lon="83.79144">
        <ele>1102.29</ele>
        <time>2013-11-04T08:11:20Z</time>
      </trkpt>
      <trkpt lat="28.32352" lon="83.79142">
        <ele>1102.29</ele>
        <time>2013-11-04T08:11:23Z</time>
      </trkpt>
      <trkpt lat="28.32347" lon="83.79134">
        <ele>1102.29</ele>
        <time>2013-11-04T08:11:28Z</time>
      </trkpt>
      <trkpt lat="28.32342" lon="83.79116">
        <ele>1101.33</ele>
        <time>2013-11-04T08:11:41Z</time>
      </trkpt>
      <trkpt lat="28.32341" lon="83.79113">
        <ele>1102.29</ele>
        <time>2013-11-04T08:11:44Z</time>
      </trkpt>
      <trkpt lat="28.3234" lon="83.79106">
        <ele>1102.29</ele>
        <time>2013-11-04T08:11:54Z</time>
      </trkpt>
      <trkpt lat="28.32339" lon="83.79096">
        <ele>1102.77</ele>
        <time>2013-11-04T08:12:01Z</time>
      </trkpt>
      <trkpt lat="28.32339" lon="83.79094">
        <ele>1102.29</ele>
        <time>2013-11-04T08:12:03Z</time>
      </trkpt>
      <trkpt lat="28.32331" lon="83.79076">
        <ele>1103.25</ele>
        <time>2013-11-04T08:12:17Z</time>
      </trkpt>
      <trkpt lat="28.32323" lon="83.79062">
        <ele>1102.77</ele>
        <time>2013-11-04T08:12:28Z</time>
      </trkpt>
      <trkpt lat="28.32314" lon="83.79053">
        <ele>1102.77</ele>
        <time>2013-11-04T08:12:37Z</time>
      </trkpt>
      <trkpt lat="28.32301" lon="83.79043">
        <ele>1101.81</ele>
        <time>2013-11-04T08:12:48Z</time>
      </trkpt>
      <trkpt lat="28.32295" lon="83.79036">
        <ele>1101.81</ele>
        <time>2013-11-04T08:12:54Z</time>
      </trkpt>
      <trkpt lat="28.32287" lon="83.79023">
        <ele>1102.29</ele>
        <time>2013-11-04T08:13:04Z</time>
      </trkpt>
      <trkpt lat="28.32282" lon="83.79014">
        <ele>1101.33</ele>
        <time>2013-11-04T08:13:11Z</time>
      </trkpt>
      <trkpt lat="28.32279" lon="83.79007">
        <ele>1100.85</ele>
        <time>2013-11-04T08:13:19Z</time>
      </trkpt>
      <trkpt lat="28.3227" lon="83.7899">
        <ele>1100.37</ele>
        <time>2013-11-04T08:13:33Z</time>
      </trkpt>
      <trkpt lat="28.32262" lon="83.78975">
        <ele>1099.89</ele>
        <time>2013-11-04T08:13:44Z</time>
      </trkpt>
      <trkpt lat="28.32254" lon="83.78961">
        <ele>1099.89</ele>
        <time>2013-11-04T08:13:56Z</time>
      </trkpt>
      <trkpt lat="28.32253" lon="83.78959">
        <ele>1099.89</ele>
        <time>2013-11-04T08:13:58Z</time>
      </trkpt>
      <trkpt lat="28.32252" lon="83.78955">
        <ele>1099.89</ele>
        <time>2013-11-04T08:14:01Z</time>
      </trkpt>
      <trkpt lat="28.32247" lon="83.78945">
        <ele>1099.4</ele>
        <time>2013-11-04T08:14:09Z</time>
      </trkpt>
      <trkpt lat="28.32244" lon="83.78935">
        <ele>1099.4</ele>
        <time>2013-11-04T08:14:18Z</time>
      </trkpt>
      <trkpt lat="28.32237" lon="83.78927">
        <ele>1098.92</ele>
        <time>2013-11-04T08:14:27Z</time>
      </trkpt>
      <trkpt lat="28.32229" lon="83.78915">
        <ele>1099.89</ele>
        <time>2013-11-04T08:14:38Z</time>
      </trkpt>
      <trkpt lat="28.32222" lon="83.78905">
        <ele>1100.85</ele>
        <time>2013-11-04T08:14:50Z</time>
      </trkpt>
      <trkpt lat="28.3222" lon="83.78903">
        <ele>1100.85</ele>
        <time>2013-11-04T08:15:07Z</time>
      </trkpt>
      <trkpt lat="28.3221" lon="83.78897">
        <ele>1099.89</ele>
        <time>2013-11-04T08:15:18Z</time>
      </trkpt>
      <trkpt lat="28.32209" lon="83.78897">
        <ele>1099.89</ele>
        <time>2013-11-04T08:15:19Z</time>
      </trkpt>
      <trkpt lat="28.32193" lon="83.78897">
        <ele>1097.96</ele>
        <time>2013-11-04T08:15:31Z</time>
      </trkpt>
      <trkpt lat="28.32182" lon="83.78898">
        <ele>1097.48</ele>
        <time>2013-11-04T08:15:39Z</time>
      </trkpt>
      <trkpt lat="28.32176" lon="83.78898">
        <ele>1097</ele>
        <time>2013-11-04T08:15:43Z</time>
      </trkpt>
      <trkpt lat="28.32168" lon="83.78895">
        <ele>1097</ele>
        <time>2013-11-04T08:15:51Z</time>
      </trkpt>
      <trkpt lat="28.32162" lon="83.7889">
        <ele>1095.08</ele>
        <time>2013-11-04T08:16:07Z</time>
      </trkpt>
      <trkpt lat="28.32159" lon="83.78889">
        <ele>1094.6</ele>
        <time>2013-11-04T08:16:22Z</time>
      </trkpt>
      <trkpt lat="28.32157" lon="83.78887">
        <ele>1094.12</ele>
        <time>2013-11-04T08:16:47Z</time>
      </trkpt>
      <trkpt lat="28.32148" lon="83.78875">
        <ele>1093.16</ele>
        <time>2013-11-04T08:17:00Z</time>
      </trkpt>
      <trkpt lat="28.32142" lon="83.7887">
        <ele>1092.2</ele>
        <time>2013-11-04T08:17:05Z</time>
      </trkpt>
      <trkpt lat="28.32133" lon="83.7886">
        <ele>1091.23</ele>
        <time>2013-11-04T08:17:13Z</time>
      </trkpt>
      <trkpt lat="28.32124" lon="83.78852">
        <ele>1090.75</ele>
        <time>2013-11-04T08:17:20Z</time>
      </trkpt>
      <trkpt lat="28.32119" lon="83.78846">
        <ele>1090.75</ele>
        <time>2013-11-04T08:17:25Z</time>
      </trkpt>
      <trkpt lat="28.32117" lon="83.78843">
        <ele>1090.75</ele>
        <time>2013-11-04T08:17:28Z</time>
      </trkpt>
      <trkpt lat="28.32113" lon="83.78835">
        <ele>1089.79</ele>
        <time>2013-11-04T08:17:34Z</time>
      </trkpt>
      <trkpt lat="28.3211" lon="83.78834">
        <ele>1090.27</ele>
        <time>2013-11-04T08:17:36Z</time>
      </trkpt>
      <trkpt lat="28.32107" lon="83.78829">
        <ele>1089.79</ele>
        <time>2013-11-04T08:17:40Z</time>
      </trkpt>
      <trkpt lat="28.32103" lon="83.78827">
        <ele>1090.27</ele>
        <time>2013-11-04T08:17:43Z</time>
      </trkpt>
      <trkpt lat="28.32093" lon="83.7882">
        <ele>1089.79</ele>
        <time>2013-11-04T08:17:54Z</time>
      </trkpt>
      <trkpt lat="28.32088" lon="83.78815">
        <ele>1090.27</ele>
        <time>2013-11-04T08:18:07Z</time>
      </trkpt>
      <trkpt lat="28.32085" lon="83.7881">
        <ele>1090.75</ele>
        <time>2013-11-04T08:18:12Z</time>
      </trkpt>
      <trkpt lat="28.32076" lon="83.78792">
        <ele>1092.2</ele>
        <time>2013-11-04T08:18:27Z</time>
      </trkpt>
      <trkpt lat="28.32062" lon="83.78782">
        <ele>1092.2</ele>
        <time>2013-11-04T08:18:38Z</time>
      </trkpt>
      <trkpt lat="28.32052" lon="83.78774">
        <ele>1091.71</ele>
        <time>2013-11-04T08:18:48Z</time>
      </trkpt>
      <trkpt lat="28.32047" lon="83.78765">
        <ele>1092.2</ele>
        <time>2013-11-04T08:18:55Z</time>
      </trkpt>
      <trkpt lat="28.32044" lon="83.78764">
        <ele>1092.2</ele>
        <time>2013-11-04T08:18:57Z</time>
      </trkpt>
      <trkpt lat="28.32032" lon="83.78754">
        <ele>1091.71</ele>
        <time>2013-11-04T08:19:09Z</time>
      </trkpt>
      <trkpt lat="28.32028" lon="83.7875">
        <ele>1091.71</ele>
        <time>2013-11-04T08:19:14Z</time>
      </trkpt>
      <trkpt lat="28.32014" lon="83.78739">
        <ele>1091.23</ele>
        <time>2013-11-04T08:19:27Z</time>
      </trkpt>
      <trkpt lat="28.32005" lon="83.78723">
        <ele>1090.75</ele>
        <time>2013-11-04T08:19:40Z</time>
      </trkpt>
      <trkpt lat="28.32" lon="83.7871">
        <ele>1090.75</ele>
        <time>2013-11-04T08:19:53Z</time>
      </trkpt>
      <trkpt lat="28.31996" lon="83.787">
        <ele>1090.27</ele>
        <time>2013-11-04T08:19:59Z</time>
      </trkpt>
      <trkpt lat="28.31995" lon="83.78695">
        <ele>1090.27</ele>
        <time>2013-11-04T08:20:02Z</time>
      </trkpt>
      <trkpt lat="28.31991" lon="83.78684">
        <ele>1089.79</ele>
        <time>2013-11-04T08:20:09Z</time>
      </trkpt>
      <trkpt lat="28.31983" lon="83.78663">
        <ele>1088.35</ele>
        <time>2013-11-04T08:20:25Z</time>
      </trkpt>
      <trkpt lat="28.31979" lon="83.78651">
        <ele>1087.87</ele>
        <time>2013-11-04T08:20:33Z</time>
      </trkpt>
      <trkpt lat="28.31975" lon="83.78645">
        <ele>1086.91</ele>
        <time>2013-11-04T08:20:38Z</time>
      </trkpt>
      <trkpt lat="28.31963" lon="83.78634">
        <ele>1086.43</ele>
        <time>2013-11-04T08:20:51Z</time>
      </trkpt>
      <trkpt lat="28.31954" lon="83.78624">
        <ele>1086.91</ele>
        <time>2013-11-04T08:21:01Z</time>
      </trkpt>
      <trkpt lat="28.3195" lon="83.78621">
        <ele>1086.91</ele>
        <time>2013-11-04T08:21:05Z</time>
      </trkpt>
      <trkpt lat="28.31942" lon="83.78609">
        <ele>1086.91</ele>
        <time>2013-11-04T08:21:16Z</time>
      </trkpt>
      <trkpt lat="28.31939" lon="83.78601">
        <ele>1087.39</ele>
        <time>2013-11-04T08:21:23Z</time>
      </trkpt>
      <trkpt lat="28.31934" lon="83.78593">
        <ele>1087.39</ele>
        <time>2013-11-04T08:21:30Z</time>
      </trkpt>
      <trkpt lat="28.31928" lon="83.78586">
        <ele>1086.91</ele>
        <time>2013-11-04T08:21:36Z</time>
      </trkpt>
      <trkpt lat="28.31927" lon="83.78583">
        <ele>1087.39</ele>
        <time>2013-11-04T08:21:39Z</time>
      </trkpt>
      <trkpt lat="28.31922" lon="83.78574">
        <ele>1087.87</ele>
        <time>2013-11-04T08:21:47Z</time>
      </trkpt>
      <trkpt lat="28.31923" lon="83.7856">
        <ele>1088.35</ele>
        <time>2013-11-04T08:21:57Z</time>
      </trkpt>
      <trkpt lat="28.31923" lon="83.78551">
        <ele>1088.83</ele>
        <time>2013-11-04T08:22:04Z</time>
      </trkpt>
      <trkpt lat="28.31924" lon="83.78543">
        <ele>1088.83</ele>
        <time>2013-11-04T08:22:10Z</time>
      </trkpt>
      <trkpt lat="28.31927" lon="83.78525">
        <ele>1086.91</ele>
        <time>2013-11-04T08:22:24Z</time>
      </trkpt>
      <trkpt lat="28.31927" lon="83.78512">
        <ele>1086.43</ele>
        <time>2013-11-04T08:22:32Z</time>
      </trkpt>
      <trkpt lat="28.31919" lon="83.78503">
        <ele>1085.95</ele>
        <time>2013-11-04T08:22:45Z</time>
      </trkpt>
      <trkpt lat="28.3191" lon="83.78506">
        <ele>1085.95</ele>
        <time>2013-11-04T08:22:55Z</time>
      </trkpt>
      <trkpt lat="28.31903" lon="83.78508">
        <ele>1085.95</ele>
        <time>2013-11-04T08:23:00Z</time>
      </trkpt>
      <trkpt lat="28.31883" lon="83.78515">
        <ele>1084.99</ele>
        <time>2013-11-04T08:23:15Z</time>
      </trkpt>
      <trkpt lat="28.31876" lon="83.78517">
        <ele>1084.02</ele>
        <time>2013-11-04T08:23:22Z</time>
      </trkpt>
      <trkpt lat="28.31872" lon="83.78518">
        <ele>1084.02</ele>
        <time>2013-11-04T08:23:25Z</time>
      </trkpt>
      <trkpt lat="28.31868" lon="83.78518">
        <ele>1083.54</ele>
        <time>2013-11-04T08:23:29Z</time>
      </trkpt>
      <trkpt lat="28.31865" lon="83.78517">
        <ele>1083.54</ele>
        <time>2013-11-04T08:23:31Z</time>
      </trkpt>
      <trkpt lat="28.31861" lon="83.78514">
        <ele>1082.58</ele>
        <time>2013-11-04T08:23:36Z</time>
      </trkpt>
      <trkpt lat="28.31852" lon="83.78502">
        <ele>1081.14</ele>
        <time>2013-11-04T08:23:47Z</time>
      </trkpt>
      <trkpt lat="28.31851" lon="83.78498">
        <ele>1081.14</ele>
        <time>2013-11-04T08:23:54Z</time>
      </trkpt>
      <trkpt lat="28.3185" lon="83.78493">
        <ele>1081.14</ele>
        <time>2013-11-04T08:23:57Z</time>
      </trkpt>
      <trkpt lat="28.31846" lon="83.78486">
        <ele>1080.18</ele>
        <time>2013-11-04T08:24:03Z</time>
      </trkpt>
      <trkpt lat="28.31843" lon="83.78475">
        <ele>1079.22</ele>
        <time>2013-11-04T08:24:11Z</time>
      </trkpt>
      <trkpt lat="28.31838" lon="83.78471">
        <ele>1079.22</ele>
        <time>2013-11-04T08:24:15Z</time>
      </trkpt>
      <trkpt lat="28.31835" lon="83.78464">
        <ele>1078.74</ele>
        <time>2013-11-04T08:24:19Z</time>
      </trkpt>
      <trkpt lat="28.31833" lon="83.78461">
        <ele>1078.74</ele>
        <time>2013-11-04T08:24:22Z</time>
      </trkpt>
      <trkpt lat="28.31821" lon="83.78448">
        <ele>1076.81</ele>
        <time>2013-11-04T08:24:35Z</time>
      </trkpt>
      <trkpt lat="28.31818" lon="83.78445">
        <ele>1076.81</ele>
        <time>2013-11-04T08:24:38Z</time>
      </trkpt>
      <trkpt lat="28.3181" lon="83.78432">
        <ele>1076.33</ele>
        <time>2013-11-04T08:24:50Z</time>
      </trkpt>
      <trkpt lat="28.3181" lon="83.78429">
        <ele>1076.33</ele>
        <time>2013-11-04T08:24:52Z</time>
      </trkpt>
      <trkpt lat="28.31808" lon="83.78422">
        <ele>1075.85</ele>
        <time>2013-11-04T08:24:58Z</time>
      </trkpt>
      <trkpt lat="28.31803" lon="83.78405">
        <ele>1074.89</ele>
        <time>2013-11-04T08:25:10Z</time>
      </trkpt>
      <trkpt lat="28.318" lon="83.78397">
        <ele>1074.89</ele>
        <time>2013-11-04T08:25:17Z</time>
      </trkpt>
      <trkpt lat="28.31798" lon="83.78393">
        <ele>1074.89</ele>
        <time>2013-11-04T08:25:20Z</time>
      </trkpt>
      <trkpt lat="28.31796" lon="83.78388">
        <ele>1074.41</ele>
        <time>2013-11-04T08:25:26Z</time>
      </trkpt>
      <trkpt lat="28.31794" lon="83.78381">
        <ele>1074.41</ele>
        <time>2013-11-04T08:25:32Z</time>
      </trkpt>
      <trkpt lat="28.3179" lon="83.78375">
        <ele>1074.41</ele>
        <time>2013-11-04T08:25:38Z</time>
      </trkpt>
      <trkpt lat="28.31786" lon="83.78368">
        <ele>1073.93</ele>
        <time>2013-11-04T08:25:44Z</time>
      </trkpt>
      <trkpt lat="28.31782" lon="83.78365">
        <ele>1073.45</ele>
        <time>2013-11-04T08:25:48Z</time>
      </trkpt>
      <trkpt lat="28.31767" lon="83.78351">
        <ele>1072.97</ele>
        <time>2013-11-04T08:26:03Z</time>
      </trkpt>
      <trkpt lat="28.31754" lon="83.78338">
        <ele>1072.97</ele>
        <time>2013-11-04T08:26:17Z</time>
      </trkpt>
      <trkpt lat="28.31746" lon="83.78323">
        <ele>1072.49</ele>
        <time>2013-11-04T08:26:31Z</time>
      </trkpt>
      <trkpt lat="28.31737" lon="83.78308">
        <ele>1071.53</ele>
        <time>2013-11-04T08:26:44Z</time>
      </trkpt>
      <trkpt lat="28.31727" lon="83.78298">
        <ele>1071.05</ele>
        <time>2013-11-04T08:26:53Z</time>
      </trkpt>
      <trkpt lat="28.31717" lon="83.78292">
        <ele>1071.53</ele>
        <time>2013-11-04T08:27:01Z</time>
      </trkpt>
      <trkpt lat="28.31708" lon="83.7829">
        <ele>1071.53</ele>
        <time>2013-11-04T08:27:12Z</time>
      </trkpt>
      <trkpt lat="28.31695" lon="83.78277">
        <ele>1072.49</ele>
        <time>2013-11-04T08:27:27Z</time>
      </trkpt>
      <trkpt lat="28.31688" lon="83.78268">
        <ele>1072.97</ele>
        <time>2013-11-04T08:27:37Z</time>
      </trkpt>
      <trkpt lat="28.31682" lon="83.78259">
        <ele>1072.97</ele>
        <time>2013-11-04T08:27:44Z</time>
      </trkpt>
      <trkpt lat="28.31667" lon="83.78249">
        <ele>1072.97</ele>
        <time>2013-11-04T08:27:56Z</time>
      </trkpt>
      <trkpt lat="28.31666" lon="83.78248">
        <ele>1072.97</ele>
        <time>2013-11-04T08:27:57Z</time>
      </trkpt>
      <trkpt lat="28.31659" lon="83.78234">
        <ele>1072.97</ele>
        <time>2013-11-04T08:28:09Z</time>
      </trkpt>
      <trkpt lat="28.3165" lon="83.78219">
        <ele>1072.97</ele>
        <time>2013-11-04T08:28:22Z</time>
      </trkpt>
      <trkpt lat="28.31645" lon="83.78204">
        <ele>1072.49</ele>
        <time>2013-11-04T08:28:33Z</time>
      </trkpt>
      <trkpt lat="28.31639" lon="83.78195">
        <ele>1072.49</ele>
        <time>2013-11-04T08:28:44Z</time>
      </trkpt>
      <trkpt lat="28.31634" lon="83.78184">
        <ele>1072.97</ele>
        <time>2013-11-04T08:28:54Z</time>
      </trkpt>
      <trkpt lat="28.3163" lon="83.78176">
        <ele>1072.49</ele>
        <time>2013-11-04T08:28:59Z</time>
      </trkpt>
      <trkpt lat="28.31629" lon="83.78173">
        <ele>1072.49</ele>
        <time>2013-11-04T08:29:01Z</time>
      </trkpt>
      <trkpt lat="28.31622" lon="83.78166">
        <ele>1071.53</ele>
        <time>2013-11-04T08:29:14Z</time>
      </trkpt>
      <trkpt lat="28.31622" lon="83.78164">
        <ele>1071.53</ele>
        <time>2013-11-04T08:29:16Z</time>
      </trkpt>
      <trkpt lat="28.3162" lon="83.78162">
        <ele>1071.53</ele>
        <time>2013-11-04T08:29:18Z</time>
      </trkpt>
      <trkpt lat="28.31611" lon="83.78148">
        <ele>1070.57</ele>
        <time>2013-11-04T08:29:29Z</time>
      </trkpt>
      <trkpt lat="28.31605" lon="83.78139">
        <ele>1070.57</ele>
        <time>2013-11-04T08:29:38Z</time>
      </trkpt>
      <trkpt lat="28.31599" lon="83.7813">
        <ele>1070.57</ele>
        <time>2013-11-04T08:29:49Z</time>
      </trkpt>
      <trkpt lat="28.31597" lon="83.78125">
        <ele>1070.57</ele>
        <time>2013-11-04T08:29:58Z</time>
      </trkpt>
      <trkpt lat="28.31591" lon="83.78115">
        <ele>1070.57</ele>
        <time>2013-11-04T08:30:05Z</time>
      </trkpt>
      <trkpt lat="28.31587" lon="83.78113">
        <ele>1070.57</ele>
        <time>2013-11-04T08:30:08Z</time>
      </trkpt>
      <trkpt lat="28.31582" lon="83.7811">
        <ele>1070.57</ele>
        <time>2013-11-04T08:30:12Z</time>
      </trkpt>
      <trkpt lat="28.3157" lon="83.78103">
        <ele>1070.57</ele>
        <time>2013-11-04T08:30:23Z</time>
      </trkpt>
      <trkpt lat="28.31559" lon="83.78096">
        <ele>1070.08</ele>
        <time>2013-11-04T08:30:34Z</time>
      </trkpt>
      <trkpt lat="28.31558" lon="83.78096">
        <ele>1070.08</ele>
        <time>2013-11-04T08:30:35Z</time>
      </trkpt>
      <trkpt lat="28.31552" lon="83.78091">
        <ele>1069.6</ele>
        <time>2013-11-04T08:30:40Z</time>
      </trkpt>
      <trkpt lat="28.31545" lon="83.78085">
        <ele>1069.12</ele>
        <time>2013-11-04T08:30:47Z</time>
      </trkpt>
      <trkpt lat="28.31544" lon="83.78084">
        <ele>1069.12</ele>
        <time>2013-11-04T08:30:48Z</time>
      </trkpt>
      <trkpt lat="28.31531" lon="83.78071">
        <ele>1068.64</ele>
        <time>2013-11-04T08:31:01Z</time>
      </trkpt>
      <trkpt lat="28.31523" lon="83.78061">
        <ele>1068.16</ele>
        <time>2013-11-04T08:31:13Z</time>
      </trkpt>
      <trkpt lat="28.31519" lon="83.78058">
        <ele>1068.16</ele>
        <time>2013-11-04T08:31:18Z</time>
      </trkpt>
      <trkpt lat="28.31509" lon="83.78044">
        <ele>1069.12</ele>
        <time>2013-11-04T08:31:30Z</time>
      </trkpt>
      <trkpt lat="28.31499" lon="83.78034">
        <ele>1069.6</ele>
        <time>2013-11-04T08:31:41Z</time>
      </trkpt>
      <trkpt lat="28.31498" lon="83.78033">
        <ele>1069.6</ele>
        <time>2013-11-04T08:31:42Z</time>
      </trkpt>
      <trkpt lat="28.31488" lon="83.78018">
        <ele>1069.6</ele>
        <time>2013-11-04T08:31:56Z</time>
      </trkpt>
      <trkpt lat="28.31488" lon="83.78017">
        <ele>1069.6</ele>
        <time>2013-11-04T08:31:57Z</time>
      </trkpt>
      <trkpt lat="28.31484" lon="83.78008">
        <ele>1069.12</ele>
        <time>2013-11-04T08:32:11Z</time>
      </trkpt>
      <trkpt lat="28.31482" lon="83.78003">
        <ele>1069.12</ele>
        <time>2013-11-04T08:32:17Z</time>
      </trkpt>
      <trkpt lat="28.31475" lon="83.77992">
        <ele>1068.64</ele>
        <time>2013-11-04T08:32:26Z</time>
      </trkpt>
      <trkpt lat="28.31474" lon="83.7799">
        <ele>1068.64</ele>
        <time>2013-11-04T08:32:27Z</time>
      </trkpt>
      <trkpt lat="28.31464" lon="83.77982">
        <ele>1067.2</ele>
        <time>2013-11-04T08:32:40Z</time>
      </trkpt>
      <trkpt lat="28.31456" lon="83.77978">
        <ele>1066.24</ele>
        <time>2013-11-04T08:32:50Z</time>
      </trkpt>
      <trkpt lat="28.3145" lon="83.77976">
        <ele>1065.28</ele>
        <time>2013-11-04T08:32:57Z</time>
      </trkpt>
      <trkpt lat="28.31443" lon="83.77972">
        <ele>1064.32</ele>
        <time>2013-11-04T08:33:05Z</time>
      </trkpt>
      <trkpt lat="28.31426" lon="83.77967">
        <ele>1063.84</ele>
        <time>2013-11-04T08:33:19Z</time>
      </trkpt>
      <trkpt lat="28.3142" lon="83.77961">
        <ele>1063.84</ele>
        <time>2013-11-04T08:33:34Z</time>
      </trkpt>
      <trkpt lat="28.31417" lon="83.7796">
        <ele>1063.84</ele>
        <time>2013-11-04T08:33:51Z</time>
      </trkpt>
      <trkpt lat="28.31406" lon="83.77959">
        <ele>1063.36</ele>
        <time>2013-11-04T08:33:57Z</time>
      </trkpt>
      <trkpt lat="28.31398" lon="83.77956">
        <ele>1063.36</ele>
        <time>2013-11-04T08:34:02Z</time>
      </trkpt>
      <trkpt lat="28.31394" lon="83.77953">
        <ele>1063.36</ele>
        <time>2013-11-04T08:34:06Z</time>
      </trkpt>
      <trkpt lat="28.31388" lon="83.77952">
        <ele>1063.36</ele>
        <time>2013-11-04T08:34:10Z</time>
      </trkpt>
      <trkpt lat="28.31376" lon="83.7795">
        <ele>1064.32</ele>
        <time>2013-11-04T08:34:20Z</time>
      </trkpt>
      <trkpt lat="28.31372" lon="83.77948">
        <ele>1064.32</ele>
        <time>2013-11-04T08:34:23Z</time>
      </trkpt>
      <trkpt lat="28.31365" lon="83.77944">
        <ele>1065.28</ele>
        <time>2013-11-04T08:34:30Z</time>
      </trkpt>
      <trkpt lat="28.31357" lon="83.77939">
        <ele>1065.76</ele>
        <time>2013-11-04T08:34:37Z</time>
      </trkpt>
      <trkpt lat="28.3134" lon="83.77928">
        <ele>1066.24</ele>
        <time>2013-11-04T08:34:50Z</time>
      </trkpt>
      <trkpt lat="28.31328" lon="83.77919">
        <ele>1066.24</ele>
        <time>2013-11-04T08:35:03Z</time>
      </trkpt>
      <trkpt lat="28.31321" lon="83.77914">
        <ele>1066.72</ele>
        <time>2013-11-04T08:35:15Z</time>
      </trkpt>
      <trkpt lat="28.31319" lon="83.77911">
        <ele>1066.24</ele>
        <time>2013-11-04T08:35:18Z</time>
      </trkpt>
      <trkpt lat="28.31317" lon="83.77906">
        <ele>1066.24</ele>
        <time>2013-11-04T08:35:21Z</time>
      </trkpt>
      <trkpt lat="28.31307" lon="83.77897">
        <ele>1065.76</ele>
        <time>2013-11-04T08:35:31Z</time>
      </trkpt>
      <trkpt lat="28.31304" lon="83.77894">
        <ele>1065.76</ele>
        <time>2013-11-04T08:35:34Z</time>
      </trkpt>
      <trkpt lat="28.31288" lon="83.77887">
        <ele>1064.8</ele>
        <time>2013-11-04T08:35:45Z</time>
      </trkpt>
      <trkpt lat="28.31282" lon="83.77882">
        <ele>1065.28</ele>
        <time>2013-11-04T08:35:50Z</time>
      </trkpt>
      <trkpt lat="28.31273" lon="83.77876">
        <ele>1064.8</ele>
        <time>2013-11-04T08:35:58Z</time>
      </trkpt>
      <trkpt lat="28.31268" lon="83.77872">
        <ele>1064.32</ele>
        <time>2013-11-04T08:36:03Z</time>
      </trkpt>
      <trkpt lat="28.31259" lon="83.77864">
        <ele>1064.32</ele>
        <time>2013-11-04T08:36:10Z</time>
      </trkpt>
      <trkpt lat="28.31257" lon="83.7786">
        <ele>1064.32</ele>
        <time>2013-11-04T08:36:14Z</time>
      </trkpt>
      <trkpt lat="28.31244" lon="83.77848">
        <ele>1064.8</ele>
        <time>2013-11-04T08:36:27Z</time>
      </trkpt>
      <trkpt lat="28.31241" lon="83.77845">
        <ele>1064.8</ele>
        <time>2013-11-04T08:36:30Z</time>
      </trkpt>
      <trkpt lat="28.31229" lon="83.77835">
        <ele>1064.32</ele>
        <time>2013-11-04T08:36:43Z</time>
      </trkpt>
      <trkpt lat="28.31216" lon="83.77823">
        <ele>1063.36</ele>
        <time>2013-11-04T08:36:55Z</time>
      </trkpt>
      <trkpt lat="28.31202" lon="83.77812">
        <ele>1061.91</ele>
        <time>2013-11-04T08:37:07Z</time>
      </trkpt>
      <trkpt lat="28.31201" lon="83.77809">
        <ele>1061.91</ele>
        <time>2013-11-04T08:37:08Z</time>
      </trkpt>
      <trkpt lat="28.31198" lon="83.77805">
        <ele>1061.91</ele>
        <time>2013-11-04T08:37:13Z</time>
      </trkpt>
      <trkpt lat="28.31196" lon="83.778">
        <ele>1061.43</ele>
        <time>2013-11-04T08:37:16Z</time>
      </trkpt>
      <trkpt lat="28.31192" lon="83.77796">
        <ele>1061.43</ele>
        <time>2013-11-04T08:37:20Z</time>
      </trkpt>
      <trkpt lat="28.31184" lon="83.77781">
        <ele>1060.95</ele>
        <time>2013-11-04T08:37:31Z</time>
      </trkpt>
      <trkpt lat="28.31178" lon="83.77775">
        <ele>1060.47</ele>
        <time>2013-11-04T08:37:37Z</time>
      </trkpt>
      <trkpt lat="28.31171" lon="83.77769">
        <ele>1059.99</ele>
        <time>2013-11-04T08:37:44Z</time>
      </trkpt>
      <trkpt lat="28.31168" lon="83.77765">
        <ele>1059.99</ele>
        <time>2013-11-04T08:37:47Z</time>
      </trkpt>
      <trkpt lat="28.31155" lon="83.77757">
        <ele>1059.03</ele>
        <time>2013-11-04T08:37:58Z</time>
      </trkpt>
      <trkpt lat="28.3114" lon="83.7775">
        <ele>1058.07</ele>
        <time>2013-11-04T08:38:12Z</time>
      </trkpt>
      <trkpt lat="28.31138" lon="83.77748">
        <ele>1057.11</ele>
        <time>2013-11-04T08:38:15Z</time>
      </trkpt>
      <trkpt lat="28.31133" lon="83.77739">
        <ele>1056.63</ele>
        <time>2013-11-04T08:38:26Z</time>
      </trkpt>
      <trkpt lat="28.31131" lon="83.77737">
        <ele>1056.15</ele>
        <time>2013-11-04T08:38:28Z</time>
      </trkpt>
      <trkpt lat="28.31126" lon="83.77731">
        <ele>1055.18</ele>
        <time>2013-11-04T08:38:35Z</time>
      </trkpt>
      <trkpt lat="28.31113" lon="83.77721">
        <ele>1053.74</ele>
        <time>2013-11-04T08:38:46Z</time>
      </trkpt>
      <trkpt lat="28.31105" lon="83.77715">
        <ele>1052.78</ele>
        <time>2013-11-04T08:38:55Z</time>
      </trkpt>
      <trkpt lat="28.31095" lon="83.77705">
        <ele>1051.82</ele>
        <time>2013-11-04T08:39:05Z</time>
      </trkpt>
      <trkpt lat="28.31087" lon="83.77695">
        <ele>1050.38</ele>
        <time>2013-11-04T08:39:14Z</time>
      </trkpt>
      <trkpt lat="28.31077" lon="83.77684">
        <ele>1049.42</ele>
        <time>2013-11-04T08:39:24Z</time>
      </trkpt>
      <trkpt lat="28.31071" lon="83.77675">
        <ele>1048.94</ele>
        <time>2013-11-04T08:39:33Z</time>
      </trkpt>
      <trkpt lat="28.3107" lon="83.77673">
        <ele>1048.94</ele>
        <time>2013-11-04T08:39:35Z</time>
      </trkpt>
      <trkpt lat="28.31065" lon="83.77662">
        <ele>1047.97</ele>
        <time>2013-11-04T08:39:45Z</time>
      </trkpt>
      <trkpt lat="28.31056" lon="83.77648">
        <ele>1046.53</ele>
        <time>2013-11-04T08:39:56Z</time>
      </trkpt>
      <trkpt lat="28.31053" lon="83.77635">
        <ele>1045.09</ele>
        <time>2013-11-04T08:40:06Z</time>
      </trkpt>
      <trkpt lat="28.31046" lon="83.77627">
        <ele>1044.13</ele>
        <time>2013-11-04T08:40:14Z</time>
      </trkpt>
      <trkpt lat="28.31043" lon="83.77623">
        <ele>1043.17</ele>
        <time>2013-11-04T08:40:18Z</time>
      </trkpt>
      <trkpt lat="28.31041" lon="83.7762">
        <ele>1042.21</ele>
        <time>2013-11-04T08:40:20Z</time>
      </trkpt>
      <trkpt lat="28.31032" lon="83.77613">
        <ele>1041.73</ele>
        <time>2013-11-04T08:40:32Z</time>
      </trkpt>
      <trkpt lat="28.31031" lon="83.77613">
        <ele>1041.25</ele>
        <time>2013-11-04T08:40:47Z</time>
      </trkpt>
      <trkpt lat="28.31024" lon="83.77611">
        <ele>1040.28</ele>
        <time>2013-11-04T08:40:57Z</time>
      </trkpt>
      <trkpt lat="28.31017" lon="83.77612">
        <ele>1039.32</ele>
        <time>2013-11-04T08:41:06Z</time>
      </trkpt>
      <trkpt lat="28.31011" lon="83.77606">
        <ele>1038.36</ele>
        <time>2013-11-04T08:41:17Z</time>
      </trkpt>
      <trkpt lat="28.31" lon="83.77603">
        <ele>1036.44</ele>
        <time>2013-11-04T08:41:28Z</time>
      </trkpt>
      <trkpt lat="28.30994" lon="83.77599">
        <ele>1035</ele>
        <time>2013-11-04T08:41:34Z</time>
      </trkpt>
      <trkpt lat="28.30976" lon="83.77594">
        <ele>1031.15</ele>
        <time>2013-11-04T08:41:47Z</time>
      </trkpt>
      <trkpt lat="28.30967" lon="83.77591">
        <ele>1029.71</ele>
        <time>2013-11-04T08:41:54Z</time>
      </trkpt>
      <trkpt lat="28.30963" lon="83.77582">
        <ele>1029.23</ele>
        <time>2013-11-04T08:42:01Z</time>
      </trkpt>
      <trkpt lat="28.30961" lon="83.77579">
        <ele>1029.23</ele>
        <time>2013-11-04T08:42:03Z</time>
      </trkpt>
      <trkpt lat="28.30959" lon="83.77562">
        <ele>1029.71</ele>
        <time>2013-11-04T08:42:15Z</time>
      </trkpt>
      <trkpt lat="28.30956" lon="83.77553">
        <ele>1029.71</ele>
        <time>2013-11-04T08:42:21Z</time>
      </trkpt>
      <trkpt lat="28.30955" lon="83.77543">
        <ele>1031.15</ele>
        <time>2013-11-04T08:42:33Z</time>
      </trkpt>
      <trkpt lat="28.30951" lon="83.77544">
        <ele>1030.67</ele>
        <time>2013-11-04T08:42:38Z</time>
      </trkpt>
      <trkpt lat="28.30944" lon="83.77543">
        <ele>1030.67</ele>
        <time>2013-11-04T08:42:47Z</time>
      </trkpt>
      <trkpt lat="28.30935" lon="83.77539">
        <ele>1030.67</ele>
        <time>2013-11-04T08:42:57Z</time>
      </trkpt>
      <trkpt lat="28.30925" lon="83.77537">
        <ele>1031.15</ele>
        <time>2013-11-04T08:43:09Z</time>
      </trkpt>
      <trkpt lat="28.30924" lon="83.77536">
        <ele>1031.15</ele>
        <time>2013-11-04T08:43:11Z</time>
      </trkpt>
      <trkpt lat="28.30921" lon="83.77531">
        <ele>1031.15</ele>
        <time>2013-11-04T08:43:16Z</time>
      </trkpt>
      <trkpt lat="28.30922" lon="83.77527">
        <ele>1032.11</ele>
        <time>2013-11-04T08:43:22Z</time>
      </trkpt>
      <trkpt lat="28.30912" lon="83.77515">
        <ele>1033.07</ele>
        <time>2013-11-04T08:43:34Z</time>
      </trkpt>
      <trkpt lat="28.30903" lon="83.77511">
        <ele>1032.59</ele>
        <time>2013-11-04T08:43:45Z</time>
      </trkpt>
      <trkpt lat="28.30891" lon="83.77504">
        <ele>1032.11</ele>
        <time>2013-11-04T08:43:55Z</time>
      </trkpt>
      <trkpt lat="28.30882" lon="83.77499">
        <ele>1031.63</ele>
        <time>2013-11-04T08:44:06Z</time>
      </trkpt>
      <trkpt lat="28.30874" lon="83.77499">
        <ele>1031.63</ele>
        <time>2013-11-04T08:44:16Z</time>
      </trkpt>
      <trkpt lat="28.30868" lon="83.77496">
        <ele>1031.63</ele>
        <time>2013-11-04T08:44:22Z</time>
      </trkpt>
      <trkpt lat="28.3086" lon="83.77492">
        <ele>1031.15</ele>
        <time>2013-11-04T08:44:31Z</time>
      </trkpt>
      <trkpt lat="28.30856" lon="83.77489">
        <ele>1030.67</ele>
        <time>2013-11-04T08:44:35Z</time>
      </trkpt>
      <trkpt lat="28.30851" lon="83.77489">
        <ele>1030.67</ele>
        <time>2013-11-04T08:44:39Z</time>
      </trkpt>
      <trkpt lat="28.30847" lon="83.77486">
        <ele>1030.19</ele>
        <time>2013-11-04T08:44:44Z</time>
      </trkpt>
      <trkpt lat="28.30841" lon="83.77481">
        <ele>1030.19</ele>
        <time>2013-11-04T08:44:50Z</time>
      </trkpt>
      <trkpt lat="28.30832" lon="83.77475">
        <ele>1030.19</ele>
        <time>2013-11-04T08:45:00Z</time>
      </trkpt>
      <trkpt lat="28.30825" lon="83.77474">
        <ele>1030.19</ele>
        <time>2013-11-04T08:45:05Z</time>
      </trkpt>
      <trkpt lat="28.30822" lon="83.77475">
        <ele>1029.71</ele>
        <time>2013-11-04T08:45:08Z</time>
      </trkpt>
      <trkpt lat="28.30814" lon="83.77476">
        <ele>1029.71</ele>
        <time>2013-11-04T08:45:17Z</time>
      </trkpt>
      <trkpt lat="28.3081" lon="83.77475">
        <ele>1030.19</ele>
        <time>2013-11-04T08:45:21Z</time>
      </trkpt>
      <trkpt lat="28.30802" lon="83.77468">
        <ele>1029.71</ele>
        <time>2013-11-04T08:45:28Z</time>
      </trkpt>
      <trkpt lat="28.30799" lon="83.77466">
        <ele>1029.71</ele>
        <time>2013-11-04T08:45:30Z</time>
      </trkpt>
      <trkpt lat="28.30795" lon="83.77463">
        <ele>1030.19</ele>
        <time>2013-11-04T08:45:33Z</time>
      </trkpt>
      <trkpt lat="28.30789" lon="83.77457">
        <ele>1029.71</ele>
        <time>2013-11-04T08:45:42Z</time>
      </trkpt>
      <trkpt lat="28.30787" lon="83.77454">
        <ele>1030.19</ele>
        <time>2013-11-04T08:45:46Z</time>
      </trkpt>
      <trkpt lat="28.30775" lon="83.77446">
        <ele>1030.19</ele>
        <time>2013-11-04T08:45:58Z</time>
      </trkpt>
      <trkpt lat="28.30763" lon="83.77441">
        <ele>1030.19</ele>
        <time>2013-11-04T08:46:08Z</time>
      </trkpt>
      <trkpt lat="28.3076" lon="83.7744">
        <ele>1030.19</ele>
        <time>2013-11-04T08:46:10Z</time>
      </trkpt>
      <trkpt lat="28.30749" lon="83.77433">
        <ele>1029.71</ele>
        <time>2013-11-04T08:46:23Z</time>
      </trkpt>
      <trkpt lat="28.30735" lon="83.77423">
        <ele>1028.75</ele>
        <time>2013-11-04T08:46:36Z</time>
      </trkpt>
      <trkpt lat="28.30726" lon="83.77416">
        <ele>1028.27</ele>
        <time>2013-11-04T08:46:45Z</time>
      </trkpt>
      <trkpt lat="28.30724" lon="83.77412">
        <ele>1027.79</ele>
        <time>2013-11-04T08:46:48Z</time>
      </trkpt>
      <trkpt lat="28.30719" lon="83.77407">
        <ele>1027.79</ele>
        <time>2013-11-04T08:46:54Z</time>
      </trkpt>
      <trkpt lat="28.30715" lon="83.774">
        <ele>1027.31</ele>
        <time>2013-11-04T08:46:59Z</time>
      </trkpt>
      <trkpt lat="28.30711" lon="83.77396">
        <ele>1027.31</ele>
        <time>2013-11-04T08:47:04Z</time>
      </trkpt>
      <trkpt lat="28.30708" lon="83.77385">
        <ele>1026.83</ele>
        <time>2013-11-04T08:47:13Z</time>
      </trkpt>
      <trkpt lat="28.30705" lon="83.77381">
        <ele>1026.34</ele>
        <time>2013-11-04T08:47:16Z</time>
      </trkpt>
      <trkpt lat="28.30701" lon="83.77374">
        <ele>1025.38</ele>
        <time>2013-11-04T08:47:27Z</time>
      </trkpt>
      <trkpt lat="28.307" lon="83.77374">
        <ele>1025.38</ele>
        <time>2013-11-04T08:47:33Z</time>
      </trkpt>
      <trkpt lat="28.30691" lon="83.77359">
        <ele>1024.9</ele>
        <time>2013-11-04T08:47:44Z</time>
      </trkpt>
      <trkpt lat="28.30682" lon="83.77347">
        <ele>1023.94</ele>
        <time>2013-11-04T08:47:55Z</time>
      </trkpt>
      <trkpt lat="28.30682" lon="83.77346">
        <ele>1023.94</ele>
        <time>2013-11-04T08:47:56Z</time>
      </trkpt>
      <trkpt lat="28.30678" lon="83.7734">
        <ele>1023.46</ele>
        <time>2013-11-04T08:48:04Z</time>
      </trkpt>
      <trkpt lat="28.30677" lon="83.77338">
        <ele>1023.46</ele>
        <time>2013-11-04T08:48:06Z</time>
      </trkpt>
      <trkpt lat="28.30674" lon="83.77329">
        <ele>1022.98</ele>
        <time>2013-11-04T08:48:14Z</time>
      </trkpt>
      <trkpt lat="28.30666" lon="83.7732">
        <ele>1022.02</ele>
        <time>2013-11-04T08:48:22Z</time>
      </trkpt>
      <trkpt lat="28.30664" lon="83.77318">
        <ele>1021.54</ele>
        <time>2013-11-04T08:48:24Z</time>
      </trkpt>
      <trkpt lat="28.30651" lon="83.77308">
        <ele>1020.1</ele>
        <time>2013-11-04T08:48:36Z</time>
      </trkpt>
      <trkpt lat="28.30643" lon="83.77299">
        <ele>1018.65</ele>
        <time>2013-11-04T08:48:45Z</time>
      </trkpt>
      <trkpt lat="28.30641" lon="83.77297">
        <ele>1018.65</ele>
        <time>2013-11-04T08:48:47Z</time>
      </trkpt>
      <trkpt lat="28.30634" lon="83.77285">
        <ele>1016.73</ele>
        <time>2013-11-04T08:48:58Z</time>
      </trkpt>
      <trkpt lat="28.3063" lon="83.77282">
        <ele>1016.73</ele>
        <time>2013-11-04T08:49:04Z</time>
      </trkpt>
      <trkpt lat="28.30625" lon="83.77266">
        <ele>1015.77</ele>
        <time>2013-11-04T08:49:15Z</time>
      </trkpt>
      <trkpt lat="28.30624" lon="83.77261">
        <ele>1015.77</ele>
        <time>2013-11-04T08:49:19Z</time>
      </trkpt>
      <trkpt lat="28.3062" lon="83.77253">
        <ele>1015.29</ele>
        <time>2013-11-04T08:49:25Z</time>
      </trkpt>
      <trkpt lat="28.30619" lon="83.7724">
        <ele>1015.29</ele>
        <time>2013-11-04T08:49:36Z</time>
      </trkpt>
      <trkpt lat="28.30617" lon="83.77235">
        <ele>1014.81</ele>
        <time>2013-11-04T08:49:40Z</time>
      </trkpt>
      <trkpt lat="28.30615" lon="83.7723">
        <ele>1014.81</ele>
        <time>2013-11-04T08:49:44Z</time>
      </trkpt>
      <trkpt lat="28.30612" lon="83.77224">
        <ele>1014.81</ele>
        <time>2013-11-04T08:49:49Z</time>
      </trkpt>
      <trkpt lat="28.30608" lon="83.77218">
        <ele>1014.33</ele>
        <time>2013-11-04T08:49:54Z</time>
      </trkpt>
      <trkpt lat="28.30607" lon="83.77212">
        <ele>1014.33</ele>
        <time>2013-11-04T08:49:59Z</time>
      </trkpt>
      <trkpt lat="28.30604" lon="83.77207">
        <ele>1014.81</ele>
        <time>2013-11-04T08:50:04Z</time>
      </trkpt>
      <trkpt lat="28.306" lon="83.7719">
        <ele>1013.85</ele>
        <time>2013-11-04T08:50:17Z</time>
      </trkpt>
      <trkpt lat="28.30595" lon="83.77173">
        <ele>1013.85</ele>
        <time>2013-11-04T08:50:31Z</time>
      </trkpt>
      <trkpt lat="28.30592" lon="83.77157">
        <ele>1012.41</ele>
        <time>2013-11-04T08:50:46Z</time>
      </trkpt>
      <trkpt lat="28.30588" lon="83.77144">
        <ele>1010.96</ele>
        <time>2013-11-04T08:50:57Z</time>
      </trkpt>
      <trkpt lat="28.3058" lon="83.77138">
        <ele>1010.96</ele>
        <time>2013-11-04T08:51:03Z</time>
      </trkpt>
      <trkpt lat="28.30566" lon="83.77127">
        <ele>1010.48</ele>
        <time>2013-11-04T08:51:16Z</time>
      </trkpt>
      <trkpt lat="28.30562" lon="83.77123">
        <ele>1010.96</ele>
        <time>2013-11-04T08:51:22Z</time>
      </trkpt>
      <trkpt lat="28.30557" lon="83.7712">
        <ele>1010.96</ele>
        <time>2013-11-04T08:51:28Z</time>
      </trkpt>
      <trkpt lat="28.3055" lon="83.77117">
        <ele>1010.96</ele>
        <time>2013-11-04T08:51:35Z</time>
      </trkpt>
      <trkpt lat="28.30537" lon="83.77114">
        <ele>1011.44</ele>
        <time>2013-11-04T08:51:48Z</time>
      </trkpt>
      <trkpt lat="28.30523" lon="83.77111">
        <ele>1011.93</ele>
        <time>2013-11-04T08:52:00Z</time>
      </trkpt>
      <trkpt lat="28.30518" lon="83.7711">
        <ele>1011.93</ele>
        <time>2013-11-04T08:52:04Z</time>
      </trkpt>
      <trkpt lat="28.30512" lon="83.77112">
        <ele>1011.93</ele>
        <time>2013-11-04T08:52:13Z</time>
      </trkpt>
      <trkpt lat="28.30507" lon="83.7711">
        <ele>1011.44</ele>
        <time>2013-11-04T08:52:18Z</time>
      </trkpt>
      <trkpt lat="28.305" lon="83.77109">
        <ele>1011.44</ele>
        <time>2013-11-04T08:52:23Z</time>
      </trkpt>
      <trkpt lat="28.30496" lon="83.77109">
        <ele>1011.44</ele>
        <time>2013-11-04T08:52:26Z</time>
      </trkpt>
      <trkpt lat="28.30491" lon="83.77106">
        <ele>1011.44</ele>
        <time>2013-11-04T08:52:30Z</time>
      </trkpt>
      <trkpt lat="28.30486" lon="83.77105">
        <ele>1010.96</ele>
        <time>2013-11-04T08:52:34Z</time>
      </trkpt>
      <trkpt lat="28.30481" lon="83.77105">
        <ele>1010.96</ele>
        <time>2013-11-04T08:52:38Z</time>
      </trkpt>
      <trkpt lat="28.30478" lon="83.77106">
        <ele>1010.48</ele>
        <time>2013-11-04T08:52:41Z</time>
      </trkpt>
      <trkpt lat="28.30463" lon="83.77109">
        <ele>1011.93</ele>
        <time>2013-11-04T08:52:52Z</time>
      </trkpt>
      <trkpt lat="28.30461" lon="83.77108">
        <ele>1011.93</ele>
        <time>2013-11-04T08:52:54Z</time>
      </trkpt>
      <trkpt lat="28.30448" lon="83.77103">
        <ele>1013.37</ele>
        <time>2013-11-04T08:53:06Z</time>
      </trkpt>
      <trkpt lat="28.30432" lon="83.77099">
        <ele>1014.33</ele>
        <time>2013-11-04T08:53:19Z</time>
      </trkpt>
      <trkpt lat="28.30418" lon="83.77103">
        <ele>1014.81</ele>
        <time>2013-11-04T08:53:30Z</time>
      </trkpt>
      <trkpt lat="28.30408" lon="83.77105">
        <ele>1015.29</ele>
        <time>2013-11-04T08:53:37Z</time>
      </trkpt>
      <trkpt lat="28.30405" lon="83.77106">
        <ele>1015.29</ele>
        <time>2013-11-04T08:53:40Z</time>
      </trkpt>
      <trkpt lat="28.30391" lon="83.77113">
        <ele>1015.29</ele>
        <time>2013-11-04T08:53:53Z</time>
      </trkpt>
      <trkpt lat="28.30386" lon="83.77115">
        <ele>1015.77</ele>
        <time>2013-11-04T08:53:57Z</time>
      </trkpt>
      <trkpt lat="28.30377" lon="83.77111">
        <ele>1016.73</ele>
        <time>2013-11-04T08:54:06Z</time>
      </trkpt>
      <trkpt lat="28.30374" lon="83.77108">
        <ele>1016.73</ele>
        <time>2013-11-04T08:54:09Z</time>
      </trkpt>
      <trkpt lat="28.30365" lon="83.77099">
        <ele>1017.69</ele>
        <time>2013-11-04T08:54:18Z</time>
      </trkpt>
      <trkpt lat="28.30353" lon="83.77083">
        <ele>1018.65</ele>
        <time>2013-11-04T08:54:33Z</time>
      </trkpt>
      <trkpt lat="28.30347" lon="83.77076">
        <ele>1019.62</ele>
        <time>2013-11-04T08:54:42Z</time>
      </trkpt>
      <trkpt lat="28.30339" lon="83.77066">
        <ele>1020.58</ele>
        <time>2013-11-04T08:54:55Z</time>
      </trkpt>
      <trkpt lat="28.30337" lon="83.77064">
        <ele>1021.06</ele>
        <time>2013-11-04T08:54:57Z</time>
      </trkpt>
      <trkpt lat="28.30332" lon="83.7706">
        <ele>1021.54</ele>
        <time>2013-11-04T08:55:04Z</time>
      </trkpt>
      <trkpt lat="28.30322" lon="83.77045">
        <ele>1023.46</ele>
        <time>2013-11-04T08:55:16Z</time>
      </trkpt>
      <trkpt lat="28.30323" lon="83.77038">
        <ele>1023.46</ele>
        <time>2013-11-04T08:55:28Z</time>
      </trkpt>
      <trkpt lat="28.30322" lon="83.77035">
        <ele>1023.94</ele>
        <time>2013-11-04T08:55:38Z</time>
      </trkpt>
      <trkpt lat="28.30315" lon="83.77028">
        <ele>1025.38</ele>
        <time>2013-11-04T08:55:47Z</time>
      </trkpt>
      <trkpt lat="28.30311" lon="83.7702">
        <ele>1026.34</ele>
        <time>2013-11-04T08:55:55Z</time>
      </trkpt>
      <trkpt lat="28.30304" lon="83.77009">
        <ele>1027.79</ele>
        <time>2013-11-04T08:56:07Z</time>
      </trkpt>
      <trkpt lat="28.30298" lon="83.77005">
        <ele>1028.27</ele>
        <time>2013-11-04T08:56:12Z</time>
      </trkpt>
      <trkpt lat="28.3029" lon="83.77">
        <ele>1029.23</ele>
        <time>2013-11-04T08:56:20Z</time>
      </trkpt>
      <trkpt lat="28.30288" lon="83.76994">
        <ele>1029.23</ele>
        <time>2013-11-04T08:56:34Z</time>
      </trkpt>
      <trkpt lat="28.30285" lon="83.76986">
        <ele>1028.75</ele>
        <time>2013-11-04T08:56:49Z</time>
      </trkpt>
      <trkpt lat="28.30274" lon="83.76973">
        <ele>1027.31</ele>
        <time>2013-11-04T08:57:03Z</time>
      </trkpt>
      <trkpt lat="28.30262" lon="83.76971">
        <ele>1028.75</ele>
        <time>2013-11-04T08:57:17Z</time>
      </trkpt>
      <trkpt lat="28.30256" lon="83.76966">
        <ele>1028.75</ele>
        <time>2013-11-04T08:57:25Z</time>
      </trkpt>
      <trkpt lat="28.3025" lon="83.76961">
        <ele>1028.27</ele>
        <time>2013-11-04T08:57:32Z</time>
      </trkpt>
      <trkpt lat="28.3024" lon="83.76956">
        <ele>1027.79</ele>
        <time>2013-11-04T08:57:41Z</time>
      </trkpt>
      <trkpt lat="28.30227" lon="83.76952">
        <ele>1026.34</ele>
        <time>2013-11-04T08:57:56Z</time>
      </trkpt>
      <trkpt lat="28.30225" lon="83.76951">
        <ele>1025.86</ele>
        <time>2013-11-04T08:57:57Z</time>
      </trkpt>
      <trkpt lat="28.30205" lon="83.7695">
        <ele>1026.83</ele>
        <time>2013-11-04T08:58:11Z</time>
      </trkpt>
      <trkpt lat="28.30193" lon="83.76951">
        <ele>1028.27</ele>
        <time>2013-11-04T08:58:24Z</time>
      </trkpt>
      <trkpt lat="28.30189" lon="83.76953">
        <ele>1028.27</ele>
        <time>2013-11-04T08:58:28Z</time>
      </trkpt>
      <trkpt lat="28.30172" lon="83.76955">
        <ele>1027.79</ele>
        <time>2013-11-04T08:58:41Z</time>
      </trkpt>
      <trkpt lat="28.30164" lon="83.76959">
        <ele>1027.31</ele>
        <time>2013-11-04T08:58:56Z</time>
      </trkpt>
      <trkpt lat="28.30158" lon="83.76962">
        <ele>1027.31</ele>
        <time>2013-11-04T08:59:09Z</time>
      </trkpt>
      <trkpt lat="28.30146" lon="83.76966">
        <ele>1027.31</ele>
        <time>2013-11-04T08:59:21Z</time>
      </trkpt>
      <trkpt lat="28.30142" lon="83.76965">
        <ele>1027.31</ele>
        <time>2013-11-04T08:59:25Z</time>
      </trkpt>
      <trkpt lat="28.30134" lon="83.76967">
        <ele>1027.31</ele>
        <time>2013-11-04T08:59:40Z</time>
      </trkpt>
      <trkpt lat="28.30127" lon="83.76966">
        <ele>1027.31</ele>
        <time>2013-11-04T08:59:45Z</time>
      </trkpt>
      <trkpt lat="28.30107" lon="83.76965">
        <ele>1026.83</ele>
        <time>2013-11-04T08:59:59Z</time>
      </trkpt>
      <trkpt lat="28.30094" lon="83.76962">
        <ele>1027.31</ele>
        <time>2013-11-04T09:00:14Z</time>
      </trkpt>
      <trkpt lat="28.30081" lon="83.76965">
        <ele>1026.83</ele>
        <time>2013-11-04T09:00:26Z</time>
      </trkpt>
      <trkpt lat="28.30076" lon="83.76964">
        <ele>1025.86</ele>
        <time>2013-11-04T09:00:32Z</time>
      </trkpt>
      <trkpt lat="28.30072" lon="83.76966">
        <ele>1025.86</ele>
        <time>2013-11-04T09:00:40Z</time>
      </trkpt>
      <trkpt lat="28.30067" lon="83.7697">
        <ele>1025.86</ele>
        <time>2013-11-04T09:00:46Z</time>
      </trkpt>
      <trkpt lat="28.30065" lon="83.76976">
        <ele>1025.86</ele>
        <time>2013-11-04T09:00:51Z</time>
      </trkpt>
      <trkpt lat="28.30063" lon="83.7698">
        <ele>1025.86</ele>
        <time>2013-11-04T09:00:54Z</time>
      </trkpt>
      <trkpt lat="28.30061" lon="83.76983">
        <ele>1024.9</ele>
        <time>2013-11-04T09:00:57Z</time>
      </trkpt>
      <trkpt lat="28.30055" lon="83.76995">
        <ele>1024.42</ele>
        <time>2013-11-04T09:01:10Z</time>
      </trkpt>
      <trkpt lat="28.30055" lon="83.77">
        <ele>1023.46</ele>
        <time>2013-11-04T09:01:20Z</time>
      </trkpt>
      <trkpt lat="28.3005" lon="83.77005">
        <ele>1020.58</ele>
        <time>2013-11-04T09:01:32Z</time>
      </trkpt>
      <trkpt lat="28.30045" lon="83.77011">
        <ele>1017.69</ele>
        <time>2013-11-04T09:01:48Z</time>
      </trkpt>
      <trkpt lat="28.30044" lon="83.77009">
        <ele>1015.77</ele>
        <time>2013-11-04T09:01:59Z</time>
      </trkpt>
      <trkpt lat="28.30042" lon="83.77007">
        <ele>1014.33</ele>
        <time>2013-11-04T09:02:15Z</time>
      </trkpt>
      <trkpt lat="28.30037" lon="83.77003">
        <ele>1013.37</ele>
        <time>2013-11-04T09:02:33Z</time>
      </trkpt>
      <trkpt lat="28.30023" lon="83.76995">
        <ele>1013.37</ele>
        <time>2013-11-04T09:02:46Z</time>
      </trkpt>
      <trkpt lat="28.30014" lon="83.7699">
        <ele>1013.37</ele>
        <time>2013-11-04T09:03:02Z</time>
      </trkpt>
      <trkpt lat="28.30008" lon="83.76986">
        <ele>1013.85</ele>
        <time>2013-11-04T09:03:22Z</time>
      </trkpt>
      <trkpt lat="28.30006" lon="83.76987">
        <ele>1013.37</ele>
        <time>2013-11-04T09:03:46Z</time>
      </trkpt>
      <trkpt lat="28.30005" lon="83.76987">
        <ele>1013.85</ele>
        <time>2013-11-04T09:04:06Z</time>
      </trkpt>
      <trkpt lat="28.30006" lon="83.76987">
        <ele>1013.85</ele>
        <time>2013-11-04T09:04:29Z</time>
      </trkpt>
      <trkpt lat="28.30007" lon="83.76986">
        <ele>1013.85</ele>
        <time>2013-11-04T09:04:52Z</time>
      </trkpt>
      <trkpt lat="28.30007" lon="83.76984">
        <ele>1014.33</ele>
        <time>2013-11-04T09:05:23Z</time>
      </trkpt>
      <trkpt lat="28.30006" lon="83.76984">
        <ele>1014.33</ele>
        <time>2013-11-04T09:05:43Z</time>
      </trkpt>
      <trkpt lat="28.30008" lon="83.76984">
        <ele>1014.33</ele>
        <time>2013-11-04T09:06:05Z</time>
      </trkpt>
      <trkpt lat="28.30008" lon="83.76985">
        <ele>1014.33</ele>
        <time>2013-11-04T09:06:23Z</time>
      </trkpt>
      <trkpt lat="28.30006" lon="83.76983">
        <ele>1014.81</ele>
        <time>2013-11-04T09:06:41Z</time>
      </trkpt>
      <trkpt lat="28.30001" lon="83.7698">
        <ele>1016.25</ele>
        <time>2013-11-04T09:06:49Z</time>
      </trkpt>
      <trkpt lat="28.29994" lon="83.76972">
        <ele>1018.65</ele>
        <time>2013-11-04T09:07:03Z</time>
      </trkpt>
      <trkpt lat="28.2999" lon="83.76966">
        <ele>1020.1</ele>
        <time>2013-11-04T09:07:17Z</time>
      </trkpt>
      <trkpt lat="28.29984" lon="83.7696">
        <ele>1022.98</ele>
        <time>2013-11-04T09:07:33Z</time>
      </trkpt>
      <trkpt lat="28.29975" lon="83.76959">
        <ele>1024.42</ele>
        <time>2013-11-04T09:07:47Z</time>
      </trkpt>
      <trkpt lat="28.29966" lon="83.76959">
        <ele>1028.27</ele>
        <time>2013-11-04T09:08:02Z</time>
      </trkpt>
      <trkpt lat="28.2996" lon="83.7696">
        <ele>1029.23</ele>
        <time>2013-11-04T09:08:15Z</time>
      </trkpt>
      <trkpt lat="28.29963" lon="83.7696">
        <ele>1028.75</ele>
        <time>2013-11-04T09:08:37Z</time>
      </trkpt>
      <trkpt lat="28.29959" lon="83.76961">
        <ele>1030.67</ele>
        <time>2013-11-04T09:08:47Z</time>
      </trkpt>
      <trkpt lat="28.29959" lon="83.76968">
        <ele>1030.67</ele>
        <time>2013-11-04T09:09:00Z</time>
      </trkpt>
      <trkpt lat="28.29957" lon="83.76973">
        <ele>1031.15</ele>
        <time>2013-11-04T09:09:04Z</time>
      </trkpt>
      <trkpt lat="28.29952" lon="83.76974">
        <ele>1033.07</ele>
        <time>2013-11-04T09:09:15Z</time>
      </trkpt>
      <trkpt lat="28.29942" lon="83.76973">
        <ele>1035.48</ele>
        <time>2013-11-04T09:09:31Z</time>
      </trkpt>
      <trkpt lat="28.29939" lon="83.76974">
        <ele>1037.4</ele>
        <time>2013-11-04T09:09:43Z</time>
      </trkpt>
      <trkpt lat="28.29938" lon="83.76973">
        <ele>1038.36</ele>
        <time>2013-11-04T09:10:02Z</time>
      </trkpt>
      <trkpt lat="28.29934" lon="83.76976">
        <ele>1041.25</ele>
        <time>2013-11-04T09:10:14Z</time>
      </trkpt>
      <trkpt lat="28.29932" lon="83.76976">
        <ele>1042.69</ele>
        <time>2013-11-04T09:10:28Z</time>
      </trkpt>
      <trkpt lat="28.29931" lon="83.76976">
        <ele>1044.61</ele>
        <time>2013-11-04T09:10:44Z</time>
      </trkpt>
      <trkpt lat="28.29926" lon="83.76969">
        <ele>1047.49</ele>
        <time>2013-11-04T09:10:58Z</time>
      </trkpt>
      <trkpt lat="28.29925" lon="83.76968">
        <ele>1047.49</ele>
        <time>2013-11-04T09:10:59Z</time>
      </trkpt>
      <trkpt lat="28.29923" lon="83.76964">
        <ele>1048.45</ele>
        <time>2013-11-04T09:11:12Z</time>
      </trkpt>
      <trkpt lat="28.29922" lon="83.76962">
        <ele>1048.94</ele>
        <time>2013-11-04T09:11:40Z</time>
      </trkpt>
      <trkpt lat="28.2992" lon="83.76958">
        <ele>1049.9</ele>
        <time>2013-11-04T09:11:53Z</time>
      </trkpt>
      <trkpt lat="28.2992" lon="83.7696">
        <ele>1052.3</ele>
        <time>2013-11-04T09:12:05Z</time>
      </trkpt>
      <trkpt lat="28.2992" lon="83.76966">
        <ele>1054.22</ele>
        <time>2013-11-04T09:12:17Z</time>
      </trkpt>
      <trkpt lat="28.29916" lon="83.76968">
        <ele>1055.67</ele>
        <time>2013-11-04T09:12:30Z</time>
      </trkpt>
      <trkpt lat="28.29913" lon="83.76969">
        <ele>1057.59</ele>
        <time>2013-11-04T09:12:46Z</time>
      </trkpt>
      <trkpt lat="28.29911" lon="83.76971">
        <ele>1057.59</ele>
        <time>2013-11-04T09:12:57Z</time>
      </trkpt>
      <trkpt lat="28.29911" lon="83.76971">
        <ele>1057.59</ele>
        <time>2013-11-04T09:13:22Z</time>
      </trkpt>
      <trkpt lat="28.29912" lon="83.76973">
        <ele>1057.59</ele>
        <time>2013-11-04T09:13:40Z</time>
      </trkpt>
      <trkpt lat="28.2991" lon="83.76973">
        <ele>1057.11</ele>
        <time>2013-11-04T09:14:06Z</time>
      </trkpt>
      <trkpt lat="28.2991" lon="83.76972">
        <ele>1057.11</ele>
        <time>2013-11-04T09:14:30Z</time>
      </trkpt>
      <trkpt lat="28.29911" lon="83.76972">
        <ele>1057.11</ele>
        <time>2013-11-04T09:14:54Z</time>
      </trkpt>
      <trkpt lat="28.2991" lon="83.76972">
        <ele>1057.11</ele>
        <time>2013-11-04T09:15:19Z</time>
      </trkpt>
      <trkpt lat="28.29909" lon="83.76972">
        <ele>1056.63</ele>
        <time>2013-11-04T09:15:52Z</time>
      </trkpt>
      <trkpt lat="28.29909" lon="83.76968">
        <ele>1056.63</ele>
        <time>2013-11-04T09:16:06Z</time>
      </trkpt>
      <trkpt lat="28.29912" lon="83.76966">
        <ele>1056.15</ele>
        <time>2013-11-04T09:16:25Z</time>
      </trkpt>
      <trkpt lat="28.29913" lon="83.76966">
        <ele>1056.15</ele>
        <time>2013-11-04T09:16:52Z</time>
      </trkpt>
      <trkpt lat="28.29911" lon="83.76967">
        <ele>1056.15</ele>
        <time>2013-11-04T09:17:15Z</time>
      </trkpt>
      <trkpt lat="28.29907" lon="83.76964">
        <ele>1056.15</ele>
        <time>2013-11-04T09:17:32Z</time>
      </trkpt>
      <trkpt lat="28.2991" lon="83.76968">
        <ele>1056.15</ele>
        <time>2013-11-04T09:17:49Z</time>
      </trkpt>
      <trkpt lat="28.29913" lon="83.76975">
        <ele>1056.63</ele>
        <time>2013-11-04T09:18:04Z</time>
      </trkpt>
      <trkpt lat="28.29916" lon="83.76981">
        <ele>1056.63</ele>
        <time>2013-11-04T09:18:19Z</time>
      </trkpt>
      <trkpt lat="28.29916" lon="83.76981">
        <ele>1057.11</ele>
        <time>2013-11-04T09:18:38Z</time>
      </trkpt>
      <trkpt lat="28.29917" lon="83.7698">
        <ele>1057.11</ele>
        <time>2013-11-04T09:18:57Z</time>
      </trkpt>
      <trkpt lat="28.29915" lon="83.76981">
        <ele>1057.11</ele>
        <time>2013-11-04T09:19:19Z</time>
      </trkpt>
      <trkpt lat="28.29918" lon="83.76979">
        <ele>1057.11</ele>
        <time>2013-11-04T09:19:38Z</time>
      </trkpt>
      <trkpt lat="28.29918" lon="83.76981">
        <ele>1056.63</ele>
        <time>2013-11-04T09:19:53Z</time>
      </trkpt>
      <trkpt lat="28.29916" lon="83.76983">
        <ele>1057.59</ele>
        <time>2013-11-04T09:20:09Z</time>
      </trkpt>
      <trkpt lat="28.29917" lon="83.76979">
        <ele>1057.59</ele>
        <time>2013-11-04T09:20:24Z</time>
      </trkpt>
      <trkpt lat="28.29919" lon="83.76993">
        <ele>1059.03</ele>
        <time>2013-11-04T09:20:29Z</time>
      </trkpt>
      <trkpt lat="28.2992" lon="83.77019">
        <ele>1061.43</ele>
        <time>2013-11-04T09:20:34Z</time>
      </trkpt>
      <trkpt lat="28.29914" lon="83.77071">
        <ele>1063.36</ele>
        <time>2013-11-04T09:20:42Z</time>
      </trkpt>
      <trkpt lat="28.29894" lon="83.77123">
        <ele>1067.68</ele>
        <time>2013-11-04T09:20:48Z</time>
      </trkpt>
      <trkpt lat="28.29869" lon="83.77171">
        <ele>1071.05</ele>
        <time>2013-11-04T09:20:54Z</time>
      </trkpt>
      <trkpt lat="28.29838" lon="83.77222">
        <ele>1074.41</ele>
        <time>2013-11-04T09:21:01Z</time>
      </trkpt>
      <trkpt lat="28.2982" lon="83.77252">
        <ele>1076.81</ele>
        <time>2013-11-04T09:21:05Z</time>
      </trkpt>
      <trkpt lat="28.29812" lon="83.77268">
        <ele>1078.26</ele>
        <time>2013-11-04T09:21:07Z</time>
      </trkpt>
      <trkpt lat="28.29796" lon="83.77306">
        <ele>1080.66</ele>
        <time>2013-11-04T09:21:12Z</time>
      </trkpt>
      <trkpt lat="28.29784" lon="83.77346">
        <ele>1080.18</ele>
        <time>2013-11-04T09:21:21Z</time>
      </trkpt>
      <trkpt lat="28.29772" lon="83.77395">
        <ele>1083.06</ele>
        <time>2013-11-04T09:21:40Z</time>
      </trkpt>
      <trkpt lat="28.2977" lon="83.7744">
        <ele>1085.47</ele>
        <time>2013-11-04T09:22:00Z</time>
      </trkpt>
      <trkpt lat="28.29771" lon="83.77445">
        <ele>1085.95</ele>
        <time>2013-11-04T09:22:01Z</time>
      </trkpt>
      <trkpt lat="28.29768" lon="83.77494">
        <ele>1089.79</ele>
        <time>2013-11-04T09:22:09Z</time>
      </trkpt>
      <trkpt lat="28.29767" lon="83.77507">
        <ele>1091.23</ele>
        <time>2013-11-04T09:22:11Z</time>
      </trkpt>
      <trkpt lat="28.29764" lon="83.7754">
        <ele>1094.6</ele>
        <time>2013-11-04T09:22:16Z</time>
      </trkpt>
      <trkpt lat="28.29763" lon="83.77547">
        <ele>1095.56</ele>
        <time>2013-11-04T09:22:17Z</time>
      </trkpt>
      <trkpt lat="28.29738" lon="83.77596">
        <ele>1097.48</ele>
        <time>2013-11-04T09:22:20Z</time>
      </trkpt>
      <trkpt lat="28.29723" lon="83.77683">
        <ele>1099.89</ele>
        <time>2013-11-04T09:22:29Z</time>
      </trkpt>
      <trkpt lat="28.29729" lon="83.77723">
        <ele>1100.85</ele>
        <time>2013-11-04T09:22:34Z</time>
      </trkpt>
      <trkpt lat="28.29725" lon="83.77742">
        <ele>1101.81</ele>
        <time>2013-11-04T09:22:37Z</time>
      </trkpt>
      <trkpt lat="28.29718" lon="83.7775">
        <ele>1102.77</ele>
        <time>2013-11-04T09:22:41Z</time>
      </trkpt>
      <trkpt lat="28.29719" lon="83.77741">
        <ele>1105.17</ele>
        <time>2013-11-04T09:22:43Z</time>
      </trkpt>
      <trkpt lat="28.29719" lon="83.77739">
        <ele>1105.17</ele>
        <time>2013-11-04T09:22:44Z</time>
      </trkpt>
      <trkpt lat="28.29724" lon="83.77727">
        <ele>1106.13</ele>
        <time>2013-11-04T09:22:45Z</time>
      </trkpt>
      <trkpt lat="28.29737" lon="83.7767">
        <ele>1109.5</ele>
        <time>2013-11-04T09:22:50Z</time>
      </trkpt>
      <trkpt lat="28.29736" lon="83.77657">
        <ele>1109.5</ele>
        <time>2013-11-04T09:22:51Z</time>
      </trkpt>
      <trkpt lat="28.29735" lon="83.7756">
        <ele>1112.86</ele>
        <time>2013-11-04T09:22:57Z</time>
      </trkpt>
      <trkpt lat="28.29728" lon="83.77509">
        <ele>1116.23</ele>
        <time>2013-11-04T09:23:02Z</time>
      </trkpt>
      <trkpt lat="28.2971" lon="83.77388">
        <ele>1119.11</ele>
        <time>2013-11-04T09:23:12Z</time>
      </trkpt>
      <trkpt lat="28.29713" lon="83.77316">
        <ele>1120.55</ele>
        <time>2013-11-04T09:23:20Z</time>
      </trkpt>
      <trkpt lat="28.29701" lon="83.77279">
        <ele>1121.52</ele>
        <time>2013-11-04T09:23:25Z</time>
      </trkpt>
      <trkpt lat="28.29713" lon="83.77276">
        <ele>1122.96</ele>
        <time>2013-11-04T09:23:31Z</time>
      </trkpt>
      <trkpt lat="28.20507" lon="83.96258">
        <ele>814.85</ele>
        <time>2013-11-04T10:50:04Z</time>
      </trkpt>
      <trkpt lat="28.20507" lon="83.96257">
        <ele>814.37</ele>
        <time>2013-11-04T10:50:05Z</time>
      </trkpt>
    </trkseg>
  </trk>
</gpx>